<?xml version="1.0" encoding="UTF-8" standalone="no" ?>
<gpx xmlns="http://www.topografix.com/GPX/1/1" xmlns:xsi="http://www.w3.org/2001/XMLSchema-instance" xsi:schemaLocation="http://www.topografix.com/GPX/1/1 http://www.topografix.com/GPX/1/1/gpx.xsd" version="1.1" creator="VisuGPX - https://www.visugpx.com">
  <metadata>
    <name>Villeneuve-Saint-Georges-Lieusaint</name>
    <desc><![CDATA[Chemin de Compostelle 2013 : Villeneuve-Saint-Georges-Lieusaint]]></desc>
  </metadata>
  <trk>
    <name><![CDATA[2 Villeneuve-Saint-Georges Lieusaint]]></name>
    <trkseg>
      <trkpt lat="48.7272" lon="2.44591">
        <ele>39</ele>
        <time>2013-07-30T07:33:35Z</time>
      </trkpt>
      <trkpt lat="48.72716" lon="2.44596">
        <ele>39</ele>
        <time>2013-07-30T07:33:47Z</time>
      </trkpt>
      <trkpt lat="48.72712" lon="2.446">
        <ele>39</ele>
        <time>2013-07-30T07:33:53Z</time>
      </trkpt>
      <trkpt lat="48.72686" lon="2.44599">
        <ele>39</ele>
        <time>2013-07-30T07:34:26Z</time>
      </trkpt>
      <trkpt lat="48.72681" lon="2.446">
        <ele>39</ele>
        <time>2013-07-30T07:34:36Z</time>
      </trkpt>
      <trkpt lat="48.72676" lon="2.44601">
        <ele>39</ele>
        <time>2013-07-30T07:34:38Z</time>
      </trkpt>
      <trkpt lat="48.7267" lon="2.44602">
        <ele>39</ele>
        <time>2013-07-30T07:34:40Z</time>
      </trkpt>
      <trkpt lat="48.72663" lon="2.44601">
        <ele>39</ele>
        <time>2013-07-30T07:34:42Z</time>
      </trkpt>
      <trkpt lat="48.72658" lon="2.44599">
        <ele>39</ele>
        <time>2013-07-30T07:34:44Z</time>
      </trkpt>
      <trkpt lat="48.72653" lon="2.446">
        <ele>39</ele>
        <time>2013-07-30T07:34:48Z</time>
      </trkpt>
      <trkpt lat="48.72643" lon="2.44602">
        <ele>40</ele>
        <time>2013-07-30T07:34:57Z</time>
      </trkpt>
      <trkpt lat="48.72638" lon="2.44605">
        <ele>40</ele>
        <time>2013-07-30T07:35:01Z</time>
      </trkpt>
      <trkpt lat="48.72633" lon="2.44609">
        <ele>41</ele>
        <time>2013-07-30T07:35:05Z</time>
      </trkpt>
      <trkpt lat="48.72628" lon="2.44609">
        <ele>41</ele>
        <time>2013-07-30T07:35:09Z</time>
      </trkpt>
      <trkpt lat="48.72624" lon="2.44607">
        <ele>41</ele>
        <time>2013-07-30T07:35:13Z</time>
      </trkpt>
      <trkpt lat="48.72619" lon="2.44606">
        <ele>41</ele>
        <time>2013-07-30T07:35:17Z</time>
      </trkpt>
      <trkpt lat="48.72614" lon="2.44606">
        <ele>41</ele>
        <time>2013-07-30T07:35:22Z</time>
      </trkpt>
      <trkpt lat="48.7261" lon="2.44606">
        <ele>41</ele>
        <time>2013-07-30T07:35:26Z</time>
      </trkpt>
      <trkpt lat="48.72605" lon="2.44606">
        <ele>41</ele>
        <time>2013-07-30T07:35:31Z</time>
      </trkpt>
      <trkpt lat="48.72601" lon="2.446">
        <ele>40</ele>
        <time>2013-07-30T07:35:38Z</time>
      </trkpt>
      <trkpt lat="48.72596" lon="2.44599">
        <ele>40</ele>
        <time>2013-07-30T07:35:42Z</time>
      </trkpt>
      <trkpt lat="48.7259" lon="2.446">
        <ele>40</ele>
        <time>2013-07-30T07:35:46Z</time>
      </trkpt>
      <trkpt lat="48.72586" lon="2.446">
        <ele>40</ele>
        <time>2013-07-30T07:35:49Z</time>
      </trkpt>
      <trkpt lat="48.72581" lon="2.44601">
        <ele>39</ele>
        <time>2013-07-30T07:35:53Z</time>
      </trkpt>
      <trkpt lat="48.72575" lon="2.446">
        <ele>39</ele>
        <time>2013-07-30T07:35:59Z</time>
      </trkpt>
      <trkpt lat="48.7257" lon="2.44598">
        <ele>39</ele>
        <time>2013-07-30T07:36:02Z</time>
      </trkpt>
      <trkpt lat="48.72565" lon="2.44596">
        <ele>39</ele>
        <time>2013-07-30T07:36:05Z</time>
      </trkpt>
      <trkpt lat="48.7256" lon="2.44593">
        <ele>39</ele>
        <time>2013-07-30T07:36:08Z</time>
      </trkpt>
      <trkpt lat="48.72554" lon="2.4459">
        <ele>39</ele>
        <time>2013-07-30T07:36:12Z</time>
      </trkpt>
      <trkpt lat="48.72548" lon="2.44589">
        <ele>38</ele>
        <time>2013-07-30T07:36:16Z</time>
      </trkpt>
      <trkpt lat="48.72543" lon="2.44592">
        <ele>38</ele>
        <time>2013-07-30T07:36:20Z</time>
      </trkpt>
      <trkpt lat="48.72541" lon="2.44598">
        <ele>38</ele>
        <time>2013-07-30T07:36:25Z</time>
      </trkpt>
      <trkpt lat="48.72537" lon="2.44605">
        <ele>38</ele>
        <time>2013-07-30T07:36:52Z</time>
      </trkpt>
      <trkpt lat="48.72535" lon="2.44607">
        <ele>38</ele>
        <time>2013-07-30T07:37:21Z</time>
      </trkpt>
      <trkpt lat="48.72532" lon="2.44613">
        <ele>38</ele>
        <time>2013-07-30T07:37:27Z</time>
      </trkpt>
      <trkpt lat="48.72528" lon="2.44618">
        <ele>38</ele>
        <time>2013-07-30T07:37:35Z</time>
      </trkpt>
      <trkpt lat="48.72523" lon="2.44613">
        <ele>38</ele>
        <time>2013-07-30T07:37:43Z</time>
      </trkpt>
      <trkpt lat="48.72518" lon="2.44616">
        <ele>38</ele>
        <time>2013-07-30T07:37:49Z</time>
      </trkpt>
      <trkpt lat="48.72517" lon="2.44623">
        <ele>38</ele>
        <time>2013-07-30T07:37:52Z</time>
      </trkpt>
      <trkpt lat="48.72513" lon="2.44629">
        <ele>38</ele>
        <time>2013-07-30T07:37:57Z</time>
      </trkpt>
      <trkpt lat="48.72509" lon="2.44633">
        <ele>38</ele>
        <time>2013-07-30T07:38:01Z</time>
      </trkpt>
      <trkpt lat="48.72504" lon="2.44635">
        <ele>38</ele>
        <time>2013-07-30T07:38:05Z</time>
      </trkpt>
      <trkpt lat="48.72498" lon="2.44637">
        <ele>36</ele>
        <time>2013-07-30T07:38:09Z</time>
      </trkpt>
      <trkpt lat="48.72493" lon="2.44642">
        <ele>36</ele>
        <time>2013-07-30T07:38:12Z</time>
      </trkpt>
      <trkpt lat="48.72488" lon="2.44645">
        <ele>36</ele>
        <time>2013-07-30T07:38:15Z</time>
      </trkpt>
      <trkpt lat="48.72486" lon="2.44652">
        <ele>36</ele>
        <time>2013-07-30T07:38:20Z</time>
      </trkpt>
      <trkpt lat="48.72484" lon="2.44658">
        <ele>36</ele>
        <time>2013-07-30T07:38:24Z</time>
      </trkpt>
      <trkpt lat="48.72484" lon="2.44665">
        <ele>36</ele>
        <time>2013-07-30T07:38:28Z</time>
      </trkpt>
      <trkpt lat="48.72484" lon="2.44673">
        <ele>38</ele>
        <time>2013-07-30T07:38:32Z</time>
      </trkpt>
      <trkpt lat="48.72481" lon="2.44679">
        <ele>38</ele>
        <time>2013-07-30T07:38:38Z</time>
      </trkpt>
      <trkpt lat="48.72477" lon="2.44683">
        <ele>39</ele>
        <time>2013-07-30T07:38:43Z</time>
      </trkpt>
      <trkpt lat="48.72475" lon="2.4469">
        <ele>39</ele>
        <time>2013-07-30T07:38:48Z</time>
      </trkpt>
      <trkpt lat="48.72471" lon="2.44695">
        <ele>39</ele>
        <time>2013-07-30T07:38:51Z</time>
      </trkpt>
      <trkpt lat="48.72468" lon="2.447">
        <ele>39</ele>
        <time>2013-07-30T07:38:55Z</time>
      </trkpt>
      <trkpt lat="48.72464" lon="2.44705">
        <ele>39</ele>
        <time>2013-07-30T07:39:00Z</time>
      </trkpt>
      <trkpt lat="48.72462" lon="2.44712">
        <ele>40</ele>
        <time>2013-07-30T07:39:04Z</time>
      </trkpt>
      <trkpt lat="48.72459" lon="2.44718">
        <ele>40</ele>
        <time>2013-07-30T07:39:11Z</time>
      </trkpt>
      <trkpt lat="48.72452" lon="2.44719">
        <ele>39</ele>
        <time>2013-07-30T07:39:14Z</time>
      </trkpt>
      <trkpt lat="48.72448" lon="2.44724">
        <ele>39</ele>
        <time>2013-07-30T07:39:19Z</time>
      </trkpt>
      <trkpt lat="48.72443" lon="2.44724">
        <ele>39</ele>
        <time>2013-07-30T07:39:23Z</time>
      </trkpt>
      <trkpt lat="48.72439" lon="2.44726">
        <ele>39</ele>
        <time>2013-07-30T07:39:30Z</time>
      </trkpt>
      <trkpt lat="48.72437" lon="2.44732">
        <ele>39</ele>
        <time>2013-07-30T07:39:34Z</time>
      </trkpt>
      <trkpt lat="48.72432" lon="2.44737">
        <ele>39</ele>
        <time>2013-07-30T07:39:38Z</time>
      </trkpt>
      <trkpt lat="48.72428" lon="2.44742">
        <ele>38</ele>
        <time>2013-07-30T07:39:41Z</time>
      </trkpt>
      <trkpt lat="48.72423" lon="2.44744">
        <ele>38</ele>
        <time>2013-07-30T07:39:46Z</time>
      </trkpt>
      <trkpt lat="48.72418" lon="2.44746">
        <ele>37</ele>
        <time>2013-07-30T07:39:50Z</time>
      </trkpt>
      <trkpt lat="48.72414" lon="2.4475">
        <ele>37</ele>
        <time>2013-07-30T07:39:54Z</time>
      </trkpt>
      <trkpt lat="48.72411" lon="2.44754">
        <ele>37</ele>
        <time>2013-07-30T07:40:04Z</time>
      </trkpt>
      <trkpt lat="48.72406" lon="2.44756">
        <ele>38</ele>
        <time>2013-07-30T07:40:16Z</time>
      </trkpt>
      <trkpt lat="48.72402" lon="2.44762">
        <ele>38</ele>
        <time>2013-07-30T07:40:21Z</time>
      </trkpt>
      <trkpt lat="48.724" lon="2.44768">
        <ele>38</ele>
        <time>2013-07-30T07:40:26Z</time>
      </trkpt>
      <trkpt lat="48.72397" lon="2.44775">
        <ele>39</ele>
        <time>2013-07-30T07:40:31Z</time>
      </trkpt>
      <trkpt lat="48.72394" lon="2.44781">
        <ele>39</ele>
        <time>2013-07-30T07:40:35Z</time>
      </trkpt>
      <trkpt lat="48.72391" lon="2.44787">
        <ele>39</ele>
        <time>2013-07-30T07:40:39Z</time>
      </trkpt>
      <trkpt lat="48.72386" lon="2.4479">
        <ele>39</ele>
        <time>2013-07-30T07:40:43Z</time>
      </trkpt>
      <trkpt lat="48.72382" lon="2.44791">
        <ele>39</ele>
        <time>2013-07-30T07:40:46Z</time>
      </trkpt>
      <trkpt lat="48.72379" lon="2.44797">
        <ele>39</ele>
        <time>2013-07-30T07:40:50Z</time>
      </trkpt>
      <trkpt lat="48.72375" lon="2.44802">
        <ele>39</ele>
        <time>2013-07-30T07:40:55Z</time>
      </trkpt>
      <trkpt lat="48.72372" lon="2.44807">
        <ele>39</ele>
        <time>2013-07-30T07:40:59Z</time>
      </trkpt>
      <trkpt lat="48.72367" lon="2.44809">
        <ele>39</ele>
        <time>2013-07-30T07:41:05Z</time>
      </trkpt>
      <trkpt lat="48.72364" lon="2.44817">
        <ele>39</ele>
        <time>2013-07-30T07:41:10Z</time>
      </trkpt>
      <trkpt lat="48.72363" lon="2.44824">
        <ele>39</ele>
        <time>2013-07-30T07:41:14Z</time>
      </trkpt>
      <trkpt lat="48.7236" lon="2.44831">
        <ele>39</ele>
        <time>2013-07-30T07:41:18Z</time>
      </trkpt>
      <trkpt lat="48.72357" lon="2.44836">
        <ele>44</ele>
        <time>2013-07-30T07:41:22Z</time>
      </trkpt>
      <trkpt lat="48.72354" lon="2.44841">
        <ele>44</ele>
        <time>2013-07-30T07:41:26Z</time>
      </trkpt>
      <trkpt lat="48.72351" lon="2.44847">
        <ele>44</ele>
        <time>2013-07-30T07:41:31Z</time>
      </trkpt>
      <trkpt lat="48.72346" lon="2.4485">
        <ele>44</ele>
        <time>2013-07-30T07:41:36Z</time>
      </trkpt>
      <trkpt lat="48.72342" lon="2.44846">
        <ele>43</ele>
        <time>2013-07-30T07:41:38Z</time>
      </trkpt>
      <trkpt lat="48.72337" lon="2.44846">
        <ele>42</ele>
        <time>2013-07-30T07:41:41Z</time>
      </trkpt>
      <trkpt lat="48.72332" lon="2.44847">
        <ele>39</ele>
        <time>2013-07-30T07:41:45Z</time>
      </trkpt>
      <trkpt lat="48.72327" lon="2.44848">
        <ele>39</ele>
        <time>2013-07-30T07:41:48Z</time>
      </trkpt>
      <trkpt lat="48.72323" lon="2.44852">
        <ele>39</ele>
        <time>2013-07-30T07:41:51Z</time>
      </trkpt>
      <trkpt lat="48.72319" lon="2.44856">
        <ele>39</ele>
        <time>2013-07-30T07:41:54Z</time>
      </trkpt>
      <trkpt lat="48.72314" lon="2.44859">
        <ele>39</ele>
        <time>2013-07-30T07:41:59Z</time>
      </trkpt>
      <trkpt lat="48.7231" lon="2.44861">
        <ele>39</ele>
        <time>2013-07-30T07:42:03Z</time>
      </trkpt>
      <trkpt lat="48.72306" lon="2.44864">
        <ele>39</ele>
        <time>2013-07-30T07:42:07Z</time>
      </trkpt>
      <trkpt lat="48.72301" lon="2.44868">
        <ele>39</ele>
        <time>2013-07-30T07:42:12Z</time>
      </trkpt>
      <trkpt lat="48.72299" lon="2.44874">
        <ele>39</ele>
        <time>2013-07-30T07:42:16Z</time>
      </trkpt>
      <trkpt lat="48.72295" lon="2.44879">
        <ele>39</ele>
        <time>2013-07-30T07:42:21Z</time>
      </trkpt>
      <trkpt lat="48.72291" lon="2.44885">
        <ele>39</ele>
        <time>2013-07-30T07:42:26Z</time>
      </trkpt>
      <trkpt lat="48.72289" lon="2.44891">
        <ele>39</ele>
        <time>2013-07-30T07:42:37Z</time>
      </trkpt>
      <trkpt lat="48.72284" lon="2.44896">
        <ele>39</ele>
        <time>2013-07-30T07:42:47Z</time>
      </trkpt>
      <trkpt lat="48.72284" lon="2.44903">
        <ele>39</ele>
        <time>2013-07-30T07:42:52Z</time>
      </trkpt>
      <trkpt lat="48.72279" lon="2.44908">
        <ele>39</ele>
        <time>2013-07-30T07:42:56Z</time>
      </trkpt>
      <trkpt lat="48.72275" lon="2.44913">
        <ele>38</ele>
        <time>2013-07-30T07:43:01Z</time>
      </trkpt>
      <trkpt lat="48.72271" lon="2.44917">
        <ele>41</ele>
        <time>2013-07-30T07:43:05Z</time>
      </trkpt>
      <trkpt lat="48.72266" lon="2.44921">
        <ele>40</ele>
        <time>2013-07-30T07:43:09Z</time>
      </trkpt>
      <trkpt lat="48.72261" lon="2.44924">
        <ele>40</ele>
        <time>2013-07-30T07:43:13Z</time>
      </trkpt>
      <trkpt lat="48.72258" lon="2.44929">
        <ele>40</ele>
        <time>2013-07-30T07:43:16Z</time>
      </trkpt>
      <trkpt lat="48.72254" lon="2.44934">
        <ele>40</ele>
        <time>2013-07-30T07:43:23Z</time>
      </trkpt>
      <trkpt lat="48.7225" lon="2.44937">
        <ele>41</ele>
        <time>2013-07-30T07:43:30Z</time>
      </trkpt>
      <trkpt lat="48.72246" lon="2.44942">
        <ele>37</ele>
        <time>2013-07-30T07:43:33Z</time>
      </trkpt>
      <trkpt lat="48.72242" lon="2.44949">
        <ele>37</ele>
        <time>2013-07-30T07:43:36Z</time>
      </trkpt>
      <trkpt lat="48.72238" lon="2.44954">
        <ele>37</ele>
        <time>2013-07-30T07:43:39Z</time>
      </trkpt>
      <trkpt lat="48.72235" lon="2.44959">
        <ele>37</ele>
        <time>2013-07-30T07:43:43Z</time>
      </trkpt>
      <trkpt lat="48.7223" lon="2.44964">
        <ele>37</ele>
        <time>2013-07-30T07:43:47Z</time>
      </trkpt>
      <trkpt lat="48.72225" lon="2.44968">
        <ele>37</ele>
        <time>2013-07-30T07:43:51Z</time>
      </trkpt>
      <trkpt lat="48.72222" lon="2.44975">
        <ele>38</ele>
        <time>2013-07-30T07:43:55Z</time>
      </trkpt>
      <trkpt lat="48.72222" lon="2.44984">
        <ele>38</ele>
        <time>2013-07-30T07:43:58Z</time>
      </trkpt>
      <trkpt lat="48.72217" lon="2.44988">
        <ele>38</ele>
        <time>2013-07-30T07:44:02Z</time>
      </trkpt>
      <trkpt lat="48.72212" lon="2.4499">
        <ele>38</ele>
        <time>2013-07-30T07:44:05Z</time>
      </trkpt>
      <trkpt lat="48.72207" lon="2.44991">
        <ele>38</ele>
        <time>2013-07-30T07:44:09Z</time>
      </trkpt>
      <trkpt lat="48.72201" lon="2.44992">
        <ele>38</ele>
        <time>2013-07-30T07:44:13Z</time>
      </trkpt>
      <trkpt lat="48.72197" lon="2.44997">
        <ele>38</ele>
        <time>2013-07-30T07:44:18Z</time>
      </trkpt>
      <trkpt lat="48.72194" lon="2.45003">
        <ele>41</ele>
        <time>2013-07-30T07:44:23Z</time>
      </trkpt>
      <trkpt lat="48.7219" lon="2.45009">
        <ele>41</ele>
        <time>2013-07-30T07:44:28Z</time>
      </trkpt>
      <trkpt lat="48.72186" lon="2.45013">
        <ele>41</ele>
        <time>2013-07-30T07:44:33Z</time>
      </trkpt>
      <trkpt lat="48.72181" lon="2.45017">
        <ele>41</ele>
        <time>2013-07-30T07:44:37Z</time>
      </trkpt>
      <trkpt lat="48.72176" lon="2.45022">
        <ele>41</ele>
        <time>2013-07-30T07:44:41Z</time>
      </trkpt>
      <trkpt lat="48.72173" lon="2.45027">
        <ele>41</ele>
        <time>2013-07-30T07:44:44Z</time>
      </trkpt>
      <trkpt lat="48.72171" lon="2.45034">
        <ele>42</ele>
        <time>2013-07-30T07:44:48Z</time>
      </trkpt>
      <trkpt lat="48.72169" lon="2.45043">
        <ele>42</ele>
        <time>2013-07-30T07:44:51Z</time>
      </trkpt>
      <trkpt lat="48.72165" lon="2.45046">
        <ele>40</ele>
        <time>2013-07-30T07:44:57Z</time>
      </trkpt>
      <trkpt lat="48.72161" lon="2.45048">
        <ele>40</ele>
        <time>2013-07-30T07:45:01Z</time>
      </trkpt>
      <trkpt lat="48.72158" lon="2.45053">
        <ele>40</ele>
        <time>2013-07-30T07:45:05Z</time>
      </trkpt>
      <trkpt lat="48.72153" lon="2.45057">
        <ele>40</ele>
        <time>2013-07-30T07:45:09Z</time>
      </trkpt>
      <trkpt lat="48.72149" lon="2.45059">
        <ele>40</ele>
        <time>2013-07-30T07:45:14Z</time>
      </trkpt>
      <trkpt lat="48.72144" lon="2.45063">
        <ele>40</ele>
        <time>2013-07-30T07:45:18Z</time>
      </trkpt>
      <trkpt lat="48.7214" lon="2.45067">
        <ele>40</ele>
        <time>2013-07-30T07:45:23Z</time>
      </trkpt>
      <trkpt lat="48.72136" lon="2.45072">
        <ele>40</ele>
        <time>2013-07-30T07:45:27Z</time>
      </trkpt>
      <trkpt lat="48.72131" lon="2.45075">
        <ele>39</ele>
        <time>2013-07-30T07:45:32Z</time>
      </trkpt>
      <trkpt lat="48.72126" lon="2.4508">
        <ele>39</ele>
        <time>2013-07-30T07:45:36Z</time>
      </trkpt>
      <trkpt lat="48.72122" lon="2.45084">
        <ele>41</ele>
        <time>2013-07-30T07:45:39Z</time>
      </trkpt>
      <trkpt lat="48.7212" lon="2.45092">
        <ele>41</ele>
        <time>2013-07-30T07:45:43Z</time>
      </trkpt>
      <trkpt lat="48.72115" lon="2.45096">
        <ele>41</ele>
        <time>2013-07-30T07:45:47Z</time>
      </trkpt>
      <trkpt lat="48.7211" lon="2.45098">
        <ele>40</ele>
        <time>2013-07-30T07:45:51Z</time>
      </trkpt>
      <trkpt lat="48.72107" lon="2.45104">
        <ele>40</ele>
        <time>2013-07-30T07:45:55Z</time>
      </trkpt>
      <trkpt lat="48.72102" lon="2.45107">
        <ele>40</ele>
        <time>2013-07-30T07:46:00Z</time>
      </trkpt>
      <trkpt lat="48.72097" lon="2.4511">
        <ele>40</ele>
        <time>2013-07-30T07:46:04Z</time>
      </trkpt>
      <trkpt lat="48.72094" lon="2.45116">
        <ele>40</ele>
        <time>2013-07-30T07:46:08Z</time>
      </trkpt>
      <trkpt lat="48.7209" lon="2.4512">
        <ele>40</ele>
        <time>2013-07-30T07:46:12Z</time>
      </trkpt>
      <trkpt lat="48.72086" lon="2.45125">
        <ele>40</ele>
        <time>2013-07-30T07:46:17Z</time>
      </trkpt>
      <trkpt lat="48.72081" lon="2.4513">
        <ele>37</ele>
        <time>2013-07-30T07:46:22Z</time>
      </trkpt>
      <trkpt lat="48.72077" lon="2.45133">
        <ele>37</ele>
        <time>2013-07-30T07:46:27Z</time>
      </trkpt>
      <trkpt lat="48.72073" lon="2.45138">
        <ele>37</ele>
        <time>2013-07-30T07:46:32Z</time>
      </trkpt>
      <trkpt lat="48.72069" lon="2.45143">
        <ele>37</ele>
        <time>2013-07-30T07:46:37Z</time>
      </trkpt>
      <trkpt lat="48.72066" lon="2.4515">
        <ele>37</ele>
        <time>2013-07-30T07:46:41Z</time>
      </trkpt>
      <trkpt lat="48.72062" lon="2.45153">
        <ele>37</ele>
        <time>2013-07-30T07:46:47Z</time>
      </trkpt>
      <trkpt lat="48.72058" lon="2.45157">
        <ele>37</ele>
        <time>2013-07-30T07:46:54Z</time>
      </trkpt>
      <trkpt lat="48.72056" lon="2.45166">
        <ele>37</ele>
        <time>2013-07-30T07:46:57Z</time>
      </trkpt>
      <trkpt lat="48.72053" lon="2.45171">
        <ele>38</ele>
        <time>2013-07-30T07:47:01Z</time>
      </trkpt>
      <trkpt lat="48.72047" lon="2.45172">
        <ele>37</ele>
        <time>2013-07-30T07:47:05Z</time>
      </trkpt>
      <trkpt lat="48.72041" lon="2.45175">
        <ele>37</ele>
        <time>2013-07-30T07:47:09Z</time>
      </trkpt>
      <trkpt lat="48.72037" lon="2.45179">
        <ele>37</ele>
        <time>2013-07-30T07:47:12Z</time>
      </trkpt>
      <trkpt lat="48.72034" lon="2.45183">
        <ele>37</ele>
        <time>2013-07-30T07:47:16Z</time>
      </trkpt>
      <trkpt lat="48.72029" lon="2.45185">
        <ele>37</ele>
        <time>2013-07-30T07:47:21Z</time>
      </trkpt>
      <trkpt lat="48.72024" lon="2.45188">
        <ele>37</ele>
        <time>2013-07-30T07:47:24Z</time>
      </trkpt>
      <trkpt lat="48.72019" lon="2.45191">
        <ele>37</ele>
        <time>2013-07-30T07:47:28Z</time>
      </trkpt>
      <trkpt lat="48.72015" lon="2.45195">
        <ele>37</ele>
        <time>2013-07-30T07:47:31Z</time>
      </trkpt>
      <trkpt lat="48.72012" lon="2.45199">
        <ele>37</ele>
        <time>2013-07-30T07:47:34Z</time>
      </trkpt>
      <trkpt lat="48.72011" lon="2.45207">
        <ele>37</ele>
        <time>2013-07-30T07:47:39Z</time>
      </trkpt>
      <trkpt lat="48.72007" lon="2.45211">
        <ele>37</ele>
        <time>2013-07-30T07:47:46Z</time>
      </trkpt>
      <trkpt lat="48.72004" lon="2.45217">
        <ele>37</ele>
        <time>2013-07-30T07:47:51Z</time>
      </trkpt>
      <trkpt lat="48.72003" lon="2.45223">
        <ele>37</ele>
        <time>2013-07-30T07:47:53Z</time>
      </trkpt>
      <trkpt lat="48.72003" lon="2.45232">
        <ele>37</ele>
        <time>2013-07-30T07:47:56Z</time>
      </trkpt>
      <trkpt lat="48.72" lon="2.45239">
        <ele>36</ele>
        <time>2013-07-30T07:48:01Z</time>
      </trkpt>
      <trkpt lat="48.71996" lon="2.45244">
        <ele>36</ele>
        <time>2013-07-30T07:48:05Z</time>
      </trkpt>
      <trkpt lat="48.71996" lon="2.45252">
        <ele>36</ele>
        <time>2013-07-30T07:48:10Z</time>
      </trkpt>
      <trkpt lat="48.71994" lon="2.45258">
        <ele>36</ele>
        <time>2013-07-30T07:48:14Z</time>
      </trkpt>
      <trkpt lat="48.71994" lon="2.45262">
        <ele>36</ele>
        <time>2013-07-30T07:48:20Z</time>
      </trkpt>
      <trkpt lat="48.71993" lon="2.4527">
        <ele>35</ele>
        <time>2013-07-30T07:48:24Z</time>
      </trkpt>
      <trkpt lat="48.71992" lon="2.45278">
        <ele>35</ele>
        <time>2013-07-30T07:48:28Z</time>
      </trkpt>
      <trkpt lat="48.71989" lon="2.45286">
        <ele>35</ele>
        <time>2013-07-30T07:48:33Z</time>
      </trkpt>
      <trkpt lat="48.71987" lon="2.45293">
        <ele>35</ele>
        <time>2013-07-30T07:48:36Z</time>
      </trkpt>
      <trkpt lat="48.71986" lon="2.45301">
        <ele>35</ele>
        <time>2013-07-30T07:48:39Z</time>
      </trkpt>
      <trkpt lat="48.71985" lon="2.4531">
        <ele>35</ele>
        <time>2013-07-30T07:48:43Z</time>
      </trkpt>
      <trkpt lat="48.71983" lon="2.45319">
        <ele>35</ele>
        <time>2013-07-30T07:48:47Z</time>
      </trkpt>
      <trkpt lat="48.71982" lon="2.45326">
        <ele>35</ele>
        <time>2013-07-30T07:48:52Z</time>
      </trkpt>
      <trkpt lat="48.71977" lon="2.45339">
        <ele>35</ele>
        <time>2013-07-30T07:49:02Z</time>
      </trkpt>
      <trkpt lat="48.71977" lon="2.45344">
        <ele>35</ele>
        <time>2013-07-30T07:49:10Z</time>
      </trkpt>
      <trkpt lat="48.71975" lon="2.45351">
        <ele>35</ele>
        <time>2013-07-30T07:49:24Z</time>
      </trkpt>
      <trkpt lat="48.71976" lon="2.4536">
        <ele>35</ele>
        <time>2013-07-30T07:49:28Z</time>
      </trkpt>
      <trkpt lat="48.71974" lon="2.45367">
        <ele>35</ele>
        <time>2013-07-30T07:49:32Z</time>
      </trkpt>
      <trkpt lat="48.71974" lon="2.45373">
        <ele>35</ele>
        <time>2013-07-30T07:49:36Z</time>
      </trkpt>
      <trkpt lat="48.71974" lon="2.4538">
        <ele>36</ele>
        <time>2013-07-30T07:49:41Z</time>
      </trkpt>
      <trkpt lat="48.71971" lon="2.45387">
        <ele>36</ele>
        <time>2013-07-30T07:49:45Z</time>
      </trkpt>
      <trkpt lat="48.71972" lon="2.45395">
        <ele>36</ele>
        <time>2013-07-30T07:49:50Z</time>
      </trkpt>
      <trkpt lat="48.71969" lon="2.45402">
        <ele>36</ele>
        <time>2013-07-30T07:49:54Z</time>
      </trkpt>
      <trkpt lat="48.71966" lon="2.45407">
        <ele>36</ele>
        <time>2013-07-30T07:49:57Z</time>
      </trkpt>
      <trkpt lat="48.71963" lon="2.45414">
        <ele>35</ele>
        <time>2013-07-30T07:50:02Z</time>
      </trkpt>
      <trkpt lat="48.7196" lon="2.4542">
        <ele>36</ele>
        <time>2013-07-30T07:50:06Z</time>
      </trkpt>
      <trkpt lat="48.71957" lon="2.45426">
        <ele>36</ele>
        <time>2013-07-30T07:50:10Z</time>
      </trkpt>
      <trkpt lat="48.71954" lon="2.45432">
        <ele>36</ele>
        <time>2013-07-30T07:50:14Z</time>
      </trkpt>
      <trkpt lat="48.71951" lon="2.45438">
        <ele>36</ele>
        <time>2013-07-30T07:50:23Z</time>
      </trkpt>
      <trkpt lat="48.7195" lon="2.45446">
        <ele>37</ele>
        <time>2013-07-30T07:50:28Z</time>
      </trkpt>
      <trkpt lat="48.71948" lon="2.45454">
        <ele>37</ele>
        <time>2013-07-30T07:50:32Z</time>
      </trkpt>
      <trkpt lat="48.71945" lon="2.45462">
        <ele>37</ele>
        <time>2013-07-30T07:50:36Z</time>
      </trkpt>
      <trkpt lat="48.71946" lon="2.4547">
        <ele>37</ele>
        <time>2013-07-30T07:50:39Z</time>
      </trkpt>
      <trkpt lat="48.71946" lon="2.45479">
        <ele>37</ele>
        <time>2013-07-30T07:50:43Z</time>
      </trkpt>
      <trkpt lat="48.71943" lon="2.45486">
        <ele>37</ele>
        <time>2013-07-30T07:50:47Z</time>
      </trkpt>
      <trkpt lat="48.71939" lon="2.45491">
        <ele>37</ele>
        <time>2013-07-30T07:50:51Z</time>
      </trkpt>
      <trkpt lat="48.71936" lon="2.45498">
        <ele>37</ele>
        <time>2013-07-30T07:50:55Z</time>
      </trkpt>
      <trkpt lat="48.71933" lon="2.45504">
        <ele>37</ele>
        <time>2013-07-30T07:51:00Z</time>
      </trkpt>
      <trkpt lat="48.71934" lon="2.45512">
        <ele>38</ele>
        <time>2013-07-30T07:51:05Z</time>
      </trkpt>
      <trkpt lat="48.71933" lon="2.4552">
        <ele>38</ele>
        <time>2013-07-30T07:51:09Z</time>
      </trkpt>
      <trkpt lat="48.71932" lon="2.45526">
        <ele>38</ele>
        <time>2013-07-30T07:51:13Z</time>
      </trkpt>
      <trkpt lat="48.71928" lon="2.45533">
        <ele>38</ele>
        <time>2013-07-30T07:51:18Z</time>
      </trkpt>
      <trkpt lat="48.71927" lon="2.45541">
        <ele>38</ele>
        <time>2013-07-30T07:51:21Z</time>
      </trkpt>
      <trkpt lat="48.71927" lon="2.45549">
        <ele>38</ele>
        <time>2013-07-30T07:51:25Z</time>
      </trkpt>
      <trkpt lat="48.71926" lon="2.45556">
        <ele>38</ele>
        <time>2013-07-30T07:51:29Z</time>
      </trkpt>
      <trkpt lat="48.71923" lon="2.45562">
        <ele>38</ele>
        <time>2013-07-30T07:51:33Z</time>
      </trkpt>
      <trkpt lat="48.71921" lon="2.45569">
        <ele>37</ele>
        <time>2013-07-30T07:51:38Z</time>
      </trkpt>
      <trkpt lat="48.71919" lon="2.45575">
        <ele>37</ele>
        <time>2013-07-30T07:51:44Z</time>
      </trkpt>
      <trkpt lat="48.71914" lon="2.45579">
        <ele>36</ele>
        <time>2013-07-30T07:51:48Z</time>
      </trkpt>
      <trkpt lat="48.71909" lon="2.45582">
        <ele>36</ele>
        <time>2013-07-30T07:51:52Z</time>
      </trkpt>
      <trkpt lat="48.71905" lon="2.45587">
        <ele>36</ele>
        <time>2013-07-30T07:51:57Z</time>
      </trkpt>
      <trkpt lat="48.71901" lon="2.45592">
        <ele>36</ele>
        <time>2013-07-30T07:52:01Z</time>
      </trkpt>
      <trkpt lat="48.71898" lon="2.45598">
        <ele>36</ele>
        <time>2013-07-30T07:52:06Z</time>
      </trkpt>
      <trkpt lat="48.71895" lon="2.45602">
        <ele>36</ele>
        <time>2013-07-30T07:52:11Z</time>
      </trkpt>
      <trkpt lat="48.7189" lon="2.45606">
        <ele>36</ele>
        <time>2013-07-30T07:52:15Z</time>
      </trkpt>
      <trkpt lat="48.71885" lon="2.4561">
        <ele>36</ele>
        <time>2013-07-30T07:52:19Z</time>
      </trkpt>
      <trkpt lat="48.71882" lon="2.45618">
        <ele>36</ele>
        <time>2013-07-30T07:52:31Z</time>
      </trkpt>
      <trkpt lat="48.71876" lon="2.45619">
        <ele>36</ele>
        <time>2013-07-30T07:52:35Z</time>
      </trkpt>
      <trkpt lat="48.71872" lon="2.45622">
        <ele>36</ele>
        <time>2013-07-30T07:52:39Z</time>
      </trkpt>
      <trkpt lat="48.71868" lon="2.45626">
        <ele>36</ele>
        <time>2013-07-30T07:52:43Z</time>
      </trkpt>
      <trkpt lat="48.71865" lon="2.4563">
        <ele>36</ele>
        <time>2013-07-30T07:52:47Z</time>
      </trkpt>
      <trkpt lat="48.71861" lon="2.45634">
        <ele>36</ele>
        <time>2013-07-30T07:52:50Z</time>
      </trkpt>
      <trkpt lat="48.71856" lon="2.45639">
        <ele>36</ele>
        <time>2013-07-30T07:52:54Z</time>
      </trkpt>
      <trkpt lat="48.71851" lon="2.45642">
        <ele>36</ele>
        <time>2013-07-30T07:52:58Z</time>
      </trkpt>
      <trkpt lat="48.71847" lon="2.45645">
        <ele>36</ele>
        <time>2013-07-30T07:53:03Z</time>
      </trkpt>
      <trkpt lat="48.71842" lon="2.45648">
        <ele>36</ele>
        <time>2013-07-30T07:53:09Z</time>
      </trkpt>
      <trkpt lat="48.71838" lon="2.45652">
        <ele>36</ele>
        <time>2013-07-30T07:53:15Z</time>
      </trkpt>
      <trkpt lat="48.71835" lon="2.45658">
        <ele>36</ele>
        <time>2013-07-30T07:53:20Z</time>
      </trkpt>
      <trkpt lat="48.71831" lon="2.45661">
        <ele>36</ele>
        <time>2013-07-30T07:53:25Z</time>
      </trkpt>
      <trkpt lat="48.71826" lon="2.45665">
        <ele>36</ele>
        <time>2013-07-30T07:53:29Z</time>
      </trkpt>
      <trkpt lat="48.71822" lon="2.45669">
        <ele>36</ele>
        <time>2013-07-30T07:53:33Z</time>
      </trkpt>
      <trkpt lat="48.71819" lon="2.45673">
        <ele>36</ele>
        <time>2013-07-30T07:53:37Z</time>
      </trkpt>
      <trkpt lat="48.71815" lon="2.4568">
        <ele>36</ele>
        <time>2013-07-30T07:53:41Z</time>
      </trkpt>
      <trkpt lat="48.71811" lon="2.45685">
        <ele>36</ele>
        <time>2013-07-30T07:53:45Z</time>
      </trkpt>
      <trkpt lat="48.71807" lon="2.45688">
        <ele>36</ele>
        <time>2013-07-30T07:53:49Z</time>
      </trkpt>
      <trkpt lat="48.718" lon="2.45688">
        <ele>36</ele>
        <time>2013-07-30T07:53:58Z</time>
      </trkpt>
      <trkpt lat="48.71796" lon="2.45691">
        <ele>36</ele>
        <time>2013-07-30T07:54:01Z</time>
      </trkpt>
      <trkpt lat="48.71791" lon="2.45696">
        <ele>36</ele>
        <time>2013-07-30T07:54:04Z</time>
      </trkpt>
      <trkpt lat="48.71787" lon="2.457">
        <ele>36</ele>
        <time>2013-07-30T07:54:07Z</time>
      </trkpt>
      <trkpt lat="48.71784" lon="2.45706">
        <ele>36</ele>
        <time>2013-07-30T07:54:11Z</time>
      </trkpt>
      <trkpt lat="48.7178" lon="2.45712">
        <ele>36</ele>
        <time>2013-07-30T07:54:15Z</time>
      </trkpt>
      <trkpt lat="48.71776" lon="2.45716">
        <ele>36</ele>
        <time>2013-07-30T07:54:20Z</time>
      </trkpt>
      <trkpt lat="48.71772" lon="2.45721">
        <ele>36</ele>
        <time>2013-07-30T07:54:26Z</time>
      </trkpt>
      <trkpt lat="48.71766" lon="2.45725">
        <ele>36</ele>
        <time>2013-07-30T07:54:30Z</time>
      </trkpt>
      <trkpt lat="48.71762" lon="2.45729">
        <ele>36</ele>
        <time>2013-07-30T07:54:34Z</time>
      </trkpt>
      <trkpt lat="48.71757" lon="2.45733">
        <ele>36</ele>
        <time>2013-07-30T07:54:39Z</time>
      </trkpt>
      <trkpt lat="48.71752" lon="2.45736">
        <ele>36</ele>
        <time>2013-07-30T07:54:43Z</time>
      </trkpt>
      <trkpt lat="48.71747" lon="2.4574">
        <ele>36</ele>
        <time>2013-07-30T07:54:47Z</time>
      </trkpt>
      <trkpt lat="48.71743" lon="2.45745">
        <ele>35</ele>
        <time>2013-07-30T07:54:53Z</time>
      </trkpt>
      <trkpt lat="48.71738" lon="2.45748">
        <ele>36</ele>
        <time>2013-07-30T07:54:57Z</time>
      </trkpt>
      <trkpt lat="48.71734" lon="2.45751">
        <ele>36</ele>
        <time>2013-07-30T07:55:00Z</time>
      </trkpt>
      <trkpt lat="48.7173" lon="2.45755">
        <ele>36</ele>
        <time>2013-07-30T07:55:04Z</time>
      </trkpt>
      <trkpt lat="48.71725" lon="2.45758">
        <ele>36</ele>
        <time>2013-07-30T07:55:09Z</time>
      </trkpt>
      <trkpt lat="48.71723" lon="2.45763">
        <ele>36</ele>
        <time>2013-07-30T07:55:19Z</time>
      </trkpt>
      <trkpt lat="48.7172" lon="2.4577">
        <ele>36</ele>
        <time>2013-07-30T07:55:34Z</time>
      </trkpt>
      <trkpt lat="48.71715" lon="2.45774">
        <ele>36</ele>
        <time>2013-07-30T07:55:37Z</time>
      </trkpt>
      <trkpt lat="48.7171" lon="2.45778">
        <ele>36</ele>
        <time>2013-07-30T07:55:40Z</time>
      </trkpt>
      <trkpt lat="48.71704" lon="2.45781">
        <ele>36</ele>
        <time>2013-07-30T07:55:44Z</time>
      </trkpt>
      <trkpt lat="48.71699" lon="2.45782">
        <ele>36</ele>
        <time>2013-07-30T07:55:47Z</time>
      </trkpt>
      <trkpt lat="48.71695" lon="2.45785">
        <ele>36</ele>
        <time>2013-07-30T07:55:50Z</time>
      </trkpt>
      <trkpt lat="48.71691" lon="2.45789">
        <ele>36</ele>
        <time>2013-07-30T07:55:54Z</time>
      </trkpt>
      <trkpt lat="48.71687" lon="2.45792">
        <ele>36</ele>
        <time>2013-07-30T07:55:58Z</time>
      </trkpt>
      <trkpt lat="48.71683" lon="2.45798">
        <ele>36</ele>
        <time>2013-07-30T07:56:03Z</time>
      </trkpt>
      <trkpt lat="48.71679" lon="2.45802">
        <ele>36</ele>
        <time>2013-07-30T07:56:09Z</time>
      </trkpt>
      <trkpt lat="48.71674" lon="2.45799">
        <ele>36</ele>
        <time>2013-07-30T07:56:16Z</time>
      </trkpt>
      <trkpt lat="48.71671" lon="2.45792">
        <ele>36</ele>
        <time>2013-07-30T07:56:19Z</time>
      </trkpt>
      <trkpt lat="48.7167" lon="2.45789">
        <ele>36</ele>
        <time>2013-07-30T07:56:25Z</time>
      </trkpt>
      <trkpt lat="48.71666" lon="2.45793">
        <ele>37</ele>
        <time>2013-07-30T07:56:32Z</time>
      </trkpt>
      <trkpt lat="48.71668" lon="2.45805">
        <ele>36</ele>
        <time>2013-07-30T07:57:34Z</time>
      </trkpt>
      <trkpt lat="48.71664" lon="2.45802">
        <ele>37</ele>
        <time>2013-07-30T07:57:39Z</time>
      </trkpt>
      <trkpt lat="48.71665" lon="2.45793">
        <ele>37</ele>
        <time>2013-07-30T07:58:06Z</time>
      </trkpt>
      <trkpt lat="48.71661" lon="2.45787">
        <ele>37</ele>
        <time>2013-07-30T07:58:10Z</time>
      </trkpt>
      <trkpt lat="48.71658" lon="2.45781">
        <ele>37</ele>
        <time>2013-07-30T07:58:13Z</time>
      </trkpt>
      <trkpt lat="48.71654" lon="2.45777">
        <ele>37</ele>
        <time>2013-07-30T07:58:16Z</time>
      </trkpt>
      <trkpt lat="48.7165" lon="2.45774">
        <ele>37</ele>
        <time>2013-07-30T07:58:20Z</time>
      </trkpt>
      <trkpt lat="48.71645" lon="2.45772">
        <ele>37</ele>
        <time>2013-07-30T07:58:25Z</time>
      </trkpt>
      <trkpt lat="48.71641" lon="2.45768">
        <ele>37</ele>
        <time>2013-07-30T07:58:28Z</time>
      </trkpt>
      <trkpt lat="48.71636" lon="2.45763">
        <ele>37</ele>
        <time>2013-07-30T07:58:31Z</time>
      </trkpt>
      <trkpt lat="48.71633" lon="2.45756">
        <ele>37</ele>
        <time>2013-07-30T07:58:35Z</time>
      </trkpt>
      <trkpt lat="48.7163" lon="2.4575">
        <ele>37</ele>
        <time>2013-07-30T07:58:40Z</time>
      </trkpt>
      <trkpt lat="48.71631" lon="2.45741">
        <ele>37</ele>
        <time>2013-07-30T07:58:43Z</time>
      </trkpt>
      <trkpt lat="48.7163" lon="2.45733">
        <ele>37</ele>
        <time>2013-07-30T07:58:49Z</time>
      </trkpt>
      <trkpt lat="48.71627" lon="2.45727">
        <ele>37</ele>
        <time>2013-07-30T07:58:53Z</time>
      </trkpt>
      <trkpt lat="48.71624" lon="2.45722">
        <ele>37</ele>
        <time>2013-07-30T07:58:56Z</time>
      </trkpt>
      <trkpt lat="48.7162" lon="2.45717">
        <ele>37</ele>
        <time>2013-07-30T07:59:00Z</time>
      </trkpt>
      <trkpt lat="48.71616" lon="2.45714">
        <ele>37</ele>
        <time>2013-07-30T07:59:06Z</time>
      </trkpt>
      <trkpt lat="48.71611" lon="2.45711">
        <ele>37</ele>
        <time>2013-07-30T07:59:10Z</time>
      </trkpt>
      <trkpt lat="48.71606" lon="2.45705">
        <ele>37</ele>
        <time>2013-07-30T07:59:15Z</time>
      </trkpt>
      <trkpt lat="48.71603" lon="2.45699">
        <ele>37</ele>
        <time>2013-07-30T07:59:19Z</time>
      </trkpt>
      <trkpt lat="48.71601" lon="2.45692">
        <ele>37</ele>
        <time>2013-07-30T07:59:23Z</time>
      </trkpt>
      <trkpt lat="48.71599" lon="2.45685">
        <ele>36</ele>
        <time>2013-07-30T07:59:29Z</time>
      </trkpt>
      <trkpt lat="48.71597" lon="2.45678">
        <ele>36</ele>
        <time>2013-07-30T07:59:34Z</time>
      </trkpt>
      <trkpt lat="48.71593" lon="2.45673">
        <ele>36</ele>
        <time>2013-07-30T07:59:38Z</time>
      </trkpt>
      <trkpt lat="48.71589" lon="2.45668">
        <ele>36</ele>
        <time>2013-07-30T07:59:41Z</time>
      </trkpt>
      <trkpt lat="48.71584" lon="2.45667">
        <ele>36</ele>
        <time>2013-07-30T07:59:47Z</time>
      </trkpt>
      <trkpt lat="48.71583" lon="2.45663">
        <ele>36</ele>
        <time>2013-07-30T08:00:16Z</time>
      </trkpt>
      <trkpt lat="48.71579" lon="2.4566">
        <ele>35</ele>
        <time>2013-07-30T08:00:22Z</time>
      </trkpt>
      <trkpt lat="48.71575" lon="2.45655">
        <ele>35</ele>
        <time>2013-07-30T08:00:28Z</time>
      </trkpt>
      <trkpt lat="48.7157" lon="2.45656">
        <ele>35</ele>
        <time>2013-07-30T08:00:39Z</time>
      </trkpt>
      <trkpt lat="48.71565" lon="2.45657">
        <ele>35</ele>
        <time>2013-07-30T08:00:44Z</time>
      </trkpt>
      <trkpt lat="48.7156" lon="2.45661">
        <ele>35</ele>
        <time>2013-07-30T08:00:49Z</time>
      </trkpt>
      <trkpt lat="48.71555" lon="2.45661">
        <ele>35</ele>
        <time>2013-07-30T08:00:52Z</time>
      </trkpt>
      <trkpt lat="48.71552" lon="2.45661">
        <ele>35</ele>
        <time>2013-07-30T08:01:00Z</time>
      </trkpt>
      <trkpt lat="48.71552" lon="2.45669">
        <ele>36</ele>
        <time>2013-07-30T08:01:01Z</time>
      </trkpt>
      <trkpt lat="48.71552" lon="2.45677">
        <ele>36</ele>
        <time>2013-07-30T08:01:11Z</time>
      </trkpt>
      <trkpt lat="48.71551" lon="2.45685">
        <ele>37</ele>
        <time>2013-07-30T08:01:14Z</time>
      </trkpt>
      <trkpt lat="48.71548" lon="2.45693">
        <ele>37</ele>
        <time>2013-07-30T08:01:17Z</time>
      </trkpt>
      <trkpt lat="48.71548" lon="2.457">
        <ele>37</ele>
        <time>2013-07-30T08:01:20Z</time>
      </trkpt>
      <trkpt lat="48.71549" lon="2.45708">
        <ele>37</ele>
        <time>2013-07-30T08:01:23Z</time>
      </trkpt>
      <trkpt lat="48.71549" lon="2.45717">
        <ele>37</ele>
        <time>2013-07-30T08:01:26Z</time>
      </trkpt>
      <trkpt lat="48.71548" lon="2.45726">
        <ele>37</ele>
        <time>2013-07-30T08:01:30Z</time>
      </trkpt>
      <trkpt lat="48.71545" lon="2.45733">
        <ele>37</ele>
        <time>2013-07-30T08:01:34Z</time>
      </trkpt>
      <trkpt lat="48.71546" lon="2.4574">
        <ele>37</ele>
        <time>2013-07-30T08:01:39Z</time>
      </trkpt>
      <trkpt lat="48.71545" lon="2.45744">
        <ele>37</ele>
        <time>2013-07-30T08:01:57Z</time>
      </trkpt>
      <trkpt lat="48.7154" lon="2.45749">
        <ele>37</ele>
        <time>2013-07-30T08:02:22Z</time>
      </trkpt>
      <trkpt lat="48.71535" lon="2.45753">
        <ele>38</ele>
        <time>2013-07-30T08:02:26Z</time>
      </trkpt>
      <trkpt lat="48.71531" lon="2.45758">
        <ele>38</ele>
        <time>2013-07-30T08:02:30Z</time>
      </trkpt>
      <trkpt lat="48.71526" lon="2.45761">
        <ele>38</ele>
        <time>2013-07-30T08:02:33Z</time>
      </trkpt>
      <trkpt lat="48.71521" lon="2.45765">
        <ele>38</ele>
        <time>2013-07-30T08:02:39Z</time>
      </trkpt>
      <trkpt lat="48.71516" lon="2.45769">
        <ele>38</ele>
        <time>2013-07-30T08:02:43Z</time>
      </trkpt>
      <trkpt lat="48.71513" lon="2.45775">
        <ele>38</ele>
        <time>2013-07-30T08:02:49Z</time>
      </trkpt>
      <trkpt lat="48.71507" lon="2.45776">
        <ele>38</ele>
        <time>2013-07-30T08:02:54Z</time>
      </trkpt>
      <trkpt lat="48.71503" lon="2.45775">
        <ele>38</ele>
        <time>2013-07-30T08:03:04Z</time>
      </trkpt>
      <trkpt lat="48.715" lon="2.45776">
        <ele>37</ele>
        <time>2013-07-30T08:03:29Z</time>
      </trkpt>
      <trkpt lat="48.71498" lon="2.4577">
        <ele>37</ele>
        <time>2013-07-30T08:04:20Z</time>
      </trkpt>
      <trkpt lat="48.71496" lon="2.45762">
        <ele>37</ele>
        <time>2013-07-30T08:04:26Z</time>
      </trkpt>
      <trkpt lat="48.71495" lon="2.45759">
        <ele>37</ele>
        <time>2013-07-30T08:04:32Z</time>
      </trkpt>
      <trkpt lat="48.71491" lon="2.45754">
        <ele>37</ele>
        <time>2013-07-30T08:04:48Z</time>
      </trkpt>
      <trkpt lat="48.71486" lon="2.45757">
        <ele>37</ele>
        <time>2013-07-30T08:04:53Z</time>
      </trkpt>
      <trkpt lat="48.71482" lon="2.45761">
        <ele>37</ele>
        <time>2013-07-30T08:04:57Z</time>
      </trkpt>
      <trkpt lat="48.71479" lon="2.45767">
        <ele>37</ele>
        <time>2013-07-30T08:05:01Z</time>
      </trkpt>
      <trkpt lat="48.71476" lon="2.45772">
        <ele>37</ele>
        <time>2013-07-30T08:05:05Z</time>
      </trkpt>
      <trkpt lat="48.71471" lon="2.45777">
        <ele>37</ele>
        <time>2013-07-30T08:05:10Z</time>
      </trkpt>
      <trkpt lat="48.71466" lon="2.4578">
        <ele>37</ele>
        <time>2013-07-30T08:05:14Z</time>
      </trkpt>
      <trkpt lat="48.71461" lon="2.4578">
        <ele>36</ele>
        <time>2013-07-30T08:05:18Z</time>
      </trkpt>
      <trkpt lat="48.71458" lon="2.45773">
        <ele>36</ele>
        <time>2013-07-30T08:05:22Z</time>
      </trkpt>
      <trkpt lat="48.71454" lon="2.45768">
        <ele>36</ele>
        <time>2013-07-30T08:05:26Z</time>
      </trkpt>
      <trkpt lat="48.7145" lon="2.45765">
        <ele>36</ele>
        <time>2013-07-30T08:05:31Z</time>
      </trkpt>
      <trkpt lat="48.71445" lon="2.45761">
        <ele>36</ele>
        <time>2013-07-30T08:05:35Z</time>
      </trkpt>
      <trkpt lat="48.71441" lon="2.45757">
        <ele>36</ele>
        <time>2013-07-30T08:05:39Z</time>
      </trkpt>
      <trkpt lat="48.71436" lon="2.45753">
        <ele>35</ele>
        <time>2013-07-30T08:05:43Z</time>
      </trkpt>
      <trkpt lat="48.71432" lon="2.45749">
        <ele>35</ele>
        <time>2013-07-30T08:05:47Z</time>
      </trkpt>
      <trkpt lat="48.71427" lon="2.45745">
        <ele>34</ele>
        <time>2013-07-30T08:05:51Z</time>
      </trkpt>
      <trkpt lat="48.71422" lon="2.45741">
        <ele>34</ele>
        <time>2013-07-30T08:05:55Z</time>
      </trkpt>
      <trkpt lat="48.71418" lon="2.45738">
        <ele>34</ele>
        <time>2013-07-30T08:05:59Z</time>
      </trkpt>
      <trkpt lat="48.71413" lon="2.45736">
        <ele>34</ele>
        <time>2013-07-30T08:06:04Z</time>
      </trkpt>
      <trkpt lat="48.71409" lon="2.45732">
        <ele>34</ele>
        <time>2013-07-30T08:06:08Z</time>
      </trkpt>
      <trkpt lat="48.71404" lon="2.45729">
        <ele>34</ele>
        <time>2013-07-30T08:06:13Z</time>
      </trkpt>
      <trkpt lat="48.714" lon="2.45726">
        <ele>34</ele>
        <time>2013-07-30T08:06:17Z</time>
      </trkpt>
      <trkpt lat="48.71396" lon="2.45722">
        <ele>34</ele>
        <time>2013-07-30T08:06:21Z</time>
      </trkpt>
      <trkpt lat="48.71392" lon="2.45718">
        <ele>34</ele>
        <time>2013-07-30T08:06:25Z</time>
      </trkpt>
      <trkpt lat="48.71387" lon="2.45714">
        <ele>34</ele>
        <time>2013-07-30T08:06:29Z</time>
      </trkpt>
      <trkpt lat="48.71383" lon="2.45709">
        <ele>34</ele>
        <time>2013-07-30T08:06:34Z</time>
      </trkpt>
      <trkpt lat="48.7138" lon="2.45704">
        <ele>34</ele>
        <time>2013-07-30T08:06:37Z</time>
      </trkpt>
      <trkpt lat="48.71376" lon="2.457">
        <ele>34</ele>
        <time>2013-07-30T08:06:41Z</time>
      </trkpt>
      <trkpt lat="48.71372" lon="2.45696">
        <ele>34</ele>
        <time>2013-07-30T08:06:45Z</time>
      </trkpt>
      <trkpt lat="48.71367" lon="2.45692">
        <ele>34</ele>
        <time>2013-07-30T08:06:50Z</time>
      </trkpt>
      <trkpt lat="48.71362" lon="2.45689">
        <ele>34</ele>
        <time>2013-07-30T08:06:54Z</time>
      </trkpt>
      <trkpt lat="48.71358" lon="2.45687">
        <ele>34</ele>
        <time>2013-07-30T08:06:58Z</time>
      </trkpt>
      <trkpt lat="48.71352" lon="2.45685">
        <ele>34</ele>
        <time>2013-07-30T08:07:03Z</time>
      </trkpt>
      <trkpt lat="48.71348" lon="2.45682">
        <ele>34</ele>
        <time>2013-07-30T08:07:07Z</time>
      </trkpt>
      <trkpt lat="48.71344" lon="2.45678">
        <ele>34</ele>
        <time>2013-07-30T08:07:11Z</time>
      </trkpt>
      <trkpt lat="48.7134" lon="2.45673">
        <ele>34</ele>
        <time>2013-07-30T08:07:15Z</time>
      </trkpt>
      <trkpt lat="48.71338" lon="2.45667">
        <ele>34</ele>
        <time>2013-07-30T08:07:21Z</time>
      </trkpt>
      <trkpt lat="48.71334" lon="2.45662">
        <ele>34</ele>
        <time>2013-07-30T08:07:29Z</time>
      </trkpt>
      <trkpt lat="48.71332" lon="2.45655">
        <ele>35</ele>
        <time>2013-07-30T08:07:36Z</time>
      </trkpt>
      <trkpt lat="48.71328" lon="2.45651">
        <ele>35</ele>
        <time>2013-07-30T08:07:43Z</time>
      </trkpt>
      <trkpt lat="48.71323" lon="2.45649">
        <ele>35</ele>
        <time>2013-07-30T08:07:48Z</time>
      </trkpt>
      <trkpt lat="48.71319" lon="2.4565">
        <ele>35</ele>
        <time>2013-07-30T08:07:54Z</time>
      </trkpt>
      <trkpt lat="48.71314" lon="2.45651">
        <ele>36</ele>
        <time>2013-07-30T08:07:58Z</time>
      </trkpt>
      <trkpt lat="48.71309" lon="2.45652">
        <ele>36</ele>
        <time>2013-07-30T08:08:02Z</time>
      </trkpt>
      <trkpt lat="48.71304" lon="2.45654">
        <ele>36</ele>
        <time>2013-07-30T08:08:06Z</time>
      </trkpt>
      <trkpt lat="48.71299" lon="2.45658">
        <ele>36</ele>
        <time>2013-07-30T08:08:10Z</time>
      </trkpt>
      <trkpt lat="48.71295" lon="2.45662">
        <ele>36</ele>
        <time>2013-07-30T08:08:14Z</time>
      </trkpt>
      <trkpt lat="48.71291" lon="2.45669">
        <ele>35</ele>
        <time>2013-07-30T08:08:19Z</time>
      </trkpt>
      <trkpt lat="48.71288" lon="2.45675">
        <ele>35</ele>
        <time>2013-07-30T08:08:23Z</time>
      </trkpt>
      <trkpt lat="48.71286" lon="2.45682">
        <ele>35</ele>
        <time>2013-07-30T08:08:27Z</time>
      </trkpt>
      <trkpt lat="48.71285" lon="2.45686">
        <ele>35</ele>
        <time>2013-07-30T08:08:34Z</time>
      </trkpt>
      <trkpt lat="48.71285" lon="2.45693">
        <ele>35</ele>
        <time>2013-07-30T08:08:45Z</time>
      </trkpt>
      <trkpt lat="48.71283" lon="2.45701">
        <ele>35</ele>
        <time>2013-07-30T08:08:51Z</time>
      </trkpt>
      <trkpt lat="48.7128" lon="2.45706">
        <ele>35</ele>
        <time>2013-07-30T08:08:56Z</time>
      </trkpt>
      <trkpt lat="48.71277" lon="2.45713">
        <ele>35</ele>
        <time>2013-07-30T08:09:01Z</time>
      </trkpt>
      <trkpt lat="48.71274" lon="2.45718">
        <ele>35</ele>
        <time>2013-07-30T08:09:05Z</time>
      </trkpt>
      <trkpt lat="48.71271" lon="2.45724">
        <ele>35</ele>
        <time>2013-07-30T08:09:11Z</time>
      </trkpt>
      <trkpt lat="48.71268" lon="2.4573">
        <ele>35</ele>
        <time>2013-07-30T08:09:15Z</time>
      </trkpt>
      <trkpt lat="48.71267" lon="2.45739">
        <ele>35</ele>
        <time>2013-07-30T08:09:20Z</time>
      </trkpt>
      <trkpt lat="48.71264" lon="2.45743">
        <ele>35</ele>
        <time>2013-07-30T08:09:24Z</time>
      </trkpt>
      <trkpt lat="48.71261" lon="2.45749">
        <ele>35</ele>
        <time>2013-07-30T08:09:31Z</time>
      </trkpt>
      <trkpt lat="48.71256" lon="2.4575">
        <ele>35</ele>
        <time>2013-07-30T08:09:35Z</time>
      </trkpt>
      <trkpt lat="48.71251" lon="2.45752">
        <ele>35</ele>
        <time>2013-07-30T08:09:39Z</time>
      </trkpt>
      <trkpt lat="48.71246" lon="2.45754">
        <ele>35</ele>
        <time>2013-07-30T08:09:44Z</time>
      </trkpt>
      <trkpt lat="48.71241" lon="2.45755">
        <ele>35</ele>
        <time>2013-07-30T08:09:48Z</time>
      </trkpt>
      <trkpt lat="48.71237" lon="2.45756">
        <ele>35</ele>
        <time>2013-07-30T08:09:58Z</time>
      </trkpt>
      <trkpt lat="48.71232" lon="2.45761">
        <ele>35</ele>
        <time>2013-07-30T08:10:47Z</time>
      </trkpt>
      <trkpt lat="48.71228" lon="2.45764">
        <ele>35</ele>
        <time>2013-07-30T08:10:50Z</time>
      </trkpt>
      <trkpt lat="48.71222" lon="2.45765">
        <ele>35</ele>
        <time>2013-07-30T08:10:53Z</time>
      </trkpt>
      <trkpt lat="48.71217" lon="2.45762">
        <ele>36</ele>
        <time>2013-07-30T08:10:56Z</time>
      </trkpt>
      <trkpt lat="48.71212" lon="2.4576">
        <ele>36</ele>
        <time>2013-07-30T08:10:59Z</time>
      </trkpt>
      <trkpt lat="48.71207" lon="2.45761">
        <ele>36</ele>
        <time>2013-07-30T08:11:03Z</time>
      </trkpt>
      <trkpt lat="48.71202" lon="2.45762">
        <ele>36</ele>
        <time>2013-07-30T08:11:07Z</time>
      </trkpt>
      <trkpt lat="48.712" lon="2.45762">
        <ele>36</ele>
        <time>2013-07-30T08:11:13Z</time>
      </trkpt>
      <trkpt lat="48.71196" lon="2.45767">
        <ele>36</ele>
        <time>2013-07-30T08:11:22Z</time>
      </trkpt>
      <trkpt lat="48.71192" lon="2.45771">
        <ele>36</ele>
        <time>2013-07-30T08:11:27Z</time>
      </trkpt>
      <trkpt lat="48.71187" lon="2.45772">
        <ele>36</ele>
        <time>2013-07-30T08:11:32Z</time>
      </trkpt>
      <trkpt lat="48.71182" lon="2.4577">
        <ele>36</ele>
        <time>2013-07-30T08:11:35Z</time>
      </trkpt>
      <trkpt lat="48.71177" lon="2.45769">
        <ele>36</ele>
        <time>2013-07-30T08:11:38Z</time>
      </trkpt>
      <trkpt lat="48.71173" lon="2.45769">
        <ele>36</ele>
        <time>2013-07-30T08:11:41Z</time>
      </trkpt>
      <trkpt lat="48.71167" lon="2.45768">
        <ele>36</ele>
        <time>2013-07-30T08:11:45Z</time>
      </trkpt>
      <trkpt lat="48.71162" lon="2.45767">
        <ele>37</ele>
        <time>2013-07-30T08:11:49Z</time>
      </trkpt>
      <trkpt lat="48.71157" lon="2.45765">
        <ele>37</ele>
        <time>2013-07-30T08:11:53Z</time>
      </trkpt>
      <trkpt lat="48.71153" lon="2.45764">
        <ele>37</ele>
        <time>2013-07-30T08:11:58Z</time>
      </trkpt>
      <trkpt lat="48.71148" lon="2.45762">
        <ele>37</ele>
        <time>2013-07-30T08:12:02Z</time>
      </trkpt>
      <trkpt lat="48.71143" lon="2.4576">
        <ele>37</ele>
        <time>2013-07-30T08:12:06Z</time>
      </trkpt>
      <trkpt lat="48.71139" lon="2.45756">
        <ele>38</ele>
        <time>2013-07-30T08:12:09Z</time>
      </trkpt>
      <trkpt lat="48.71134" lon="2.45756">
        <ele>38</ele>
        <time>2013-07-30T08:12:14Z</time>
      </trkpt>
      <trkpt lat="48.71129" lon="2.45759">
        <ele>38</ele>
        <time>2013-07-30T08:12:23Z</time>
      </trkpt>
      <trkpt lat="48.71126" lon="2.45753">
        <ele>38</ele>
        <time>2013-07-30T08:12:28Z</time>
      </trkpt>
      <trkpt lat="48.71121" lon="2.45752">
        <ele>38</ele>
        <time>2013-07-30T08:12:37Z</time>
      </trkpt>
      <trkpt lat="48.71116" lon="2.45754">
        <ele>38</ele>
        <time>2013-07-30T08:12:41Z</time>
      </trkpt>
      <trkpt lat="48.71114" lon="2.45749">
        <ele>41</ele>
        <time>2013-07-30T08:13:15Z</time>
      </trkpt>
      <trkpt lat="48.71109" lon="2.45751">
        <ele>39</ele>
        <time>2013-07-30T08:13:17Z</time>
      </trkpt>
      <trkpt lat="48.71105" lon="2.45754">
        <ele>39</ele>
        <time>2013-07-30T08:13:19Z</time>
      </trkpt>
      <trkpt lat="48.71103" lon="2.4576">
        <ele>39</ele>
        <time>2013-07-30T08:13:23Z</time>
      </trkpt>
      <trkpt lat="48.71102" lon="2.45769">
        <ele>39</ele>
        <time>2013-07-30T08:13:27Z</time>
      </trkpt>
      <trkpt lat="48.711" lon="2.45777">
        <ele>38</ele>
        <time>2013-07-30T08:13:31Z</time>
      </trkpt>
      <trkpt lat="48.71097" lon="2.45782">
        <ele>38</ele>
        <time>2013-07-30T08:13:35Z</time>
      </trkpt>
      <trkpt lat="48.7109" lon="2.45781">
        <ele>38</ele>
        <time>2013-07-30T08:13:44Z</time>
      </trkpt>
      <trkpt lat="48.71086" lon="2.4579">
        <ele>38</ele>
        <time>2013-07-30T08:13:47Z</time>
      </trkpt>
      <trkpt lat="48.71083" lon="2.45797">
        <ele>42</ele>
        <time>2013-07-30T08:13:50Z</time>
      </trkpt>
      <trkpt lat="48.71079" lon="2.458">
        <ele>41</ele>
        <time>2013-07-30T08:13:55Z</time>
      </trkpt>
      <trkpt lat="48.71074" lon="2.45805">
        <ele>41</ele>
        <time>2013-07-30T08:14:07Z</time>
      </trkpt>
      <trkpt lat="48.71071" lon="2.45811">
        <ele>41</ele>
        <time>2013-07-30T08:14:12Z</time>
      </trkpt>
      <trkpt lat="48.71067" lon="2.45817">
        <ele>40</ele>
        <time>2013-07-30T08:14:16Z</time>
      </trkpt>
      <trkpt lat="48.71063" lon="2.45821">
        <ele>41</ele>
        <time>2013-07-30T08:14:19Z</time>
      </trkpt>
      <trkpt lat="48.71058" lon="2.45824">
        <ele>41</ele>
        <time>2013-07-30T08:14:27Z</time>
      </trkpt>
      <trkpt lat="48.71053" lon="2.45824">
        <ele>42</ele>
        <time>2013-07-30T08:14:30Z</time>
      </trkpt>
      <trkpt lat="48.71048" lon="2.45826">
        <ele>42</ele>
        <time>2013-07-30T08:14:34Z</time>
      </trkpt>
      <trkpt lat="48.71043" lon="2.45828">
        <ele>43</ele>
        <time>2013-07-30T08:14:38Z</time>
      </trkpt>
      <trkpt lat="48.71037" lon="2.45829">
        <ele>43</ele>
        <time>2013-07-30T08:14:42Z</time>
      </trkpt>
      <trkpt lat="48.71026" lon="2.45826">
        <ele>44</ele>
        <time>2013-07-30T08:14:48Z</time>
      </trkpt>
      <trkpt lat="48.71023" lon="2.45813">
        <ele>44</ele>
        <time>2013-07-30T08:15:37Z</time>
      </trkpt>
      <trkpt lat="48.71021" lon="2.4582">
        <ele>45</ele>
        <time>2013-07-30T08:15:43Z</time>
      </trkpt>
      <trkpt lat="48.71017" lon="2.45827">
        <ele>45</ele>
        <time>2013-07-30T08:15:48Z</time>
      </trkpt>
      <trkpt lat="48.71014" lon="2.45832">
        <ele>45</ele>
        <time>2013-07-30T08:15:51Z</time>
      </trkpt>
      <trkpt lat="48.7101" lon="2.45835">
        <ele>44</ele>
        <time>2013-07-30T08:15:55Z</time>
      </trkpt>
      <trkpt lat="48.71006" lon="2.4583">
        <ele>46</ele>
        <time>2013-07-30T08:15:59Z</time>
      </trkpt>
      <trkpt lat="48.71006" lon="2.45823">
        <ele>45</ele>
        <time>2013-07-30T08:16:03Z</time>
      </trkpt>
      <trkpt lat="48.71002" lon="2.45818">
        <ele>45</ele>
        <time>2013-07-30T08:16:08Z</time>
      </trkpt>
      <trkpt lat="48.70998" lon="2.45816">
        <ele>50</ele>
        <time>2013-07-30T08:16:16Z</time>
      </trkpt>
      <trkpt lat="48.70993" lon="2.45814">
        <ele>51</ele>
        <time>2013-07-30T08:16:21Z</time>
      </trkpt>
      <trkpt lat="48.70989" lon="2.45811">
        <ele>51</ele>
        <time>2013-07-30T08:16:48Z</time>
      </trkpt>
      <trkpt lat="48.70985" lon="2.45806">
        <ele>52</ele>
        <time>2013-07-30T08:16:53Z</time>
      </trkpt>
      <trkpt lat="48.70982" lon="2.458">
        <ele>53</ele>
        <time>2013-07-30T08:16:58Z</time>
      </trkpt>
      <trkpt lat="48.70977" lon="2.45796">
        <ele>53</ele>
        <time>2013-07-30T08:17:02Z</time>
      </trkpt>
      <trkpt lat="48.70973" lon="2.45791">
        <ele>54</ele>
        <time>2013-07-30T08:17:06Z</time>
      </trkpt>
      <trkpt lat="48.70969" lon="2.45788">
        <ele>54</ele>
        <time>2013-07-30T08:17:10Z</time>
      </trkpt>
      <trkpt lat="48.70964" lon="2.45784">
        <ele>54</ele>
        <time>2013-07-30T08:17:14Z</time>
      </trkpt>
      <trkpt lat="48.70962" lon="2.45777">
        <ele>55</ele>
        <time>2013-07-30T08:17:19Z</time>
      </trkpt>
      <trkpt lat="48.70959" lon="2.4577">
        <ele>55</ele>
        <time>2013-07-30T08:17:24Z</time>
      </trkpt>
      <trkpt lat="48.70955" lon="2.45766">
        <ele>55</ele>
        <time>2013-07-30T08:17:28Z</time>
      </trkpt>
      <trkpt lat="48.70952" lon="2.4576">
        <ele>56</ele>
        <time>2013-07-30T08:17:33Z</time>
      </trkpt>
      <trkpt lat="48.70948" lon="2.45755">
        <ele>56</ele>
        <time>2013-07-30T08:17:37Z</time>
      </trkpt>
      <trkpt lat="48.70943" lon="2.45751">
        <ele>57</ele>
        <time>2013-07-30T08:17:42Z</time>
      </trkpt>
      <trkpt lat="48.7094" lon="2.45745">
        <ele>59</ele>
        <time>2013-07-30T08:17:47Z</time>
      </trkpt>
      <trkpt lat="48.70936" lon="2.45742">
        <ele>60</ele>
        <time>2013-07-30T08:17:53Z</time>
      </trkpt>
      <trkpt lat="48.70935" lon="2.45735">
        <ele>60</ele>
        <time>2013-07-30T08:17:57Z</time>
      </trkpt>
      <trkpt lat="48.70934" lon="2.45727">
        <ele>60</ele>
        <time>2013-07-30T08:18:03Z</time>
      </trkpt>
      <trkpt lat="48.70934" lon="2.45719">
        <ele>60</ele>
        <time>2013-07-30T08:18:08Z</time>
      </trkpt>
      <trkpt lat="48.70936" lon="2.45713">
        <ele>60</ele>
        <time>2013-07-30T08:18:11Z</time>
      </trkpt>
      <trkpt lat="48.70936" lon="2.45705">
        <ele>60</ele>
        <time>2013-07-30T08:18:16Z</time>
      </trkpt>
      <trkpt lat="48.70935" lon="2.45702">
        <ele>60</ele>
        <time>2013-07-30T08:18:22Z</time>
      </trkpt>
      <trkpt lat="48.70931" lon="2.45695">
        <ele>61</ele>
        <time>2013-07-30T08:18:58Z</time>
      </trkpt>
      <trkpt lat="48.70927" lon="2.4569">
        <ele>61</ele>
        <time>2013-07-30T08:19:01Z</time>
      </trkpt>
      <trkpt lat="48.70923" lon="2.45686">
        <ele>61</ele>
        <time>2013-07-30T08:19:03Z</time>
      </trkpt>
      <trkpt lat="48.7092" lon="2.4568">
        <ele>62</ele>
        <time>2013-07-30T08:19:06Z</time>
      </trkpt>
      <trkpt lat="48.70918" lon="2.45673">
        <ele>63</ele>
        <time>2013-07-30T08:19:11Z</time>
      </trkpt>
      <trkpt lat="48.70918" lon="2.45666">
        <ele>64</ele>
        <time>2013-07-30T08:19:15Z</time>
      </trkpt>
      <trkpt lat="48.70915" lon="2.45659">
        <ele>65</ele>
        <time>2013-07-30T08:19:21Z</time>
      </trkpt>
      <trkpt lat="48.7091" lon="2.45658">
        <ele>65</ele>
        <time>2013-07-30T08:19:24Z</time>
      </trkpt>
      <trkpt lat="48.70898" lon="2.45653">
        <ele>65</ele>
        <time>2013-07-30T08:20:07Z</time>
      </trkpt>
      <trkpt lat="48.70894" lon="2.45648">
        <ele>65</ele>
        <time>2013-07-30T08:20:11Z</time>
      </trkpt>
      <trkpt lat="48.70893" lon="2.4564">
        <ele>66</ele>
        <time>2013-07-30T08:20:16Z</time>
      </trkpt>
      <trkpt lat="48.70889" lon="2.45634">
        <ele>66</ele>
        <time>2013-07-30T08:20:23Z</time>
      </trkpt>
      <trkpt lat="48.70884" lon="2.45632">
        <ele>66</ele>
        <time>2013-07-30T08:20:34Z</time>
      </trkpt>
      <trkpt lat="48.70879" lon="2.45631">
        <ele>66</ele>
        <time>2013-07-30T08:20:37Z</time>
      </trkpt>
      <trkpt lat="48.70875" lon="2.45634">
        <ele>66</ele>
        <time>2013-07-30T08:20:39Z</time>
      </trkpt>
      <trkpt lat="48.7087" lon="2.45634">
        <ele>66</ele>
        <time>2013-07-30T08:20:43Z</time>
      </trkpt>
      <trkpt lat="48.70869" lon="2.45627">
        <ele>66</ele>
        <time>2013-07-30T08:20:56Z</time>
      </trkpt>
      <trkpt lat="48.70862" lon="2.45615">
        <ele>66</ele>
        <time>2013-07-30T08:21:08Z</time>
      </trkpt>
      <trkpt lat="48.70852" lon="2.45608">
        <ele>67</ele>
        <time>2013-07-30T08:21:13Z</time>
      </trkpt>
      <trkpt lat="48.70844" lon="2.45608">
        <ele>67</ele>
        <time>2013-07-30T08:21:16Z</time>
      </trkpt>
      <trkpt lat="48.70839" lon="2.45603">
        <ele>67</ele>
        <time>2013-07-30T08:21:21Z</time>
      </trkpt>
      <trkpt lat="48.70837" lon="2.45596">
        <ele>67</ele>
        <time>2013-07-30T08:21:24Z</time>
      </trkpt>
      <trkpt lat="48.70834" lon="2.4559">
        <ele>68</ele>
        <time>2013-07-30T08:21:28Z</time>
      </trkpt>
      <trkpt lat="48.7083" lon="2.45584">
        <ele>68</ele>
        <time>2013-07-30T08:21:33Z</time>
      </trkpt>
      <trkpt lat="48.70826" lon="2.45581">
        <ele>68</ele>
        <time>2013-07-30T08:21:37Z</time>
      </trkpt>
      <trkpt lat="48.70821" lon="2.45576">
        <ele>69</ele>
        <time>2013-07-30T08:21:42Z</time>
      </trkpt>
      <trkpt lat="48.70817" lon="2.45571">
        <ele>69</ele>
        <time>2013-07-30T08:21:47Z</time>
      </trkpt>
      <trkpt lat="48.70813" lon="2.45566">
        <ele>69</ele>
        <time>2013-07-30T08:21:52Z</time>
      </trkpt>
      <trkpt lat="48.7081" lon="2.45564">
        <ele>69</ele>
        <time>2013-07-30T08:21:58Z</time>
      </trkpt>
      <trkpt lat="48.70807" lon="2.45559">
        <ele>69</ele>
        <time>2013-07-30T08:22:15Z</time>
      </trkpt>
      <trkpt lat="48.70804" lon="2.45553">
        <ele>69</ele>
        <time>2013-07-30T08:22:19Z</time>
      </trkpt>
      <trkpt lat="48.708" lon="2.4555">
        <ele>70</ele>
        <time>2013-07-30T08:22:24Z</time>
      </trkpt>
      <trkpt lat="48.70797" lon="2.45541">
        <ele>70</ele>
        <time>2013-07-30T08:22:45Z</time>
      </trkpt>
      <trkpt lat="48.70796" lon="2.45538">
        <ele>70</ele>
        <time>2013-07-30T08:22:51Z</time>
      </trkpt>
      <trkpt lat="48.70799" lon="2.4553">
        <ele>70</ele>
        <time>2013-07-30T08:23:20Z</time>
      </trkpt>
      <trkpt lat="48.70803" lon="2.45525">
        <ele>70</ele>
        <time>2013-07-30T08:23:22Z</time>
      </trkpt>
      <trkpt lat="48.70806" lon="2.4552">
        <ele>69</ele>
        <time>2013-07-30T08:23:24Z</time>
      </trkpt>
      <trkpt lat="48.70809" lon="2.45515">
        <ele>69</ele>
        <time>2013-07-30T08:23:26Z</time>
      </trkpt>
      <trkpt lat="48.70812" lon="2.45509">
        <ele>69</ele>
        <time>2013-07-30T08:23:29Z</time>
      </trkpt>
      <trkpt lat="48.70816" lon="2.45503">
        <ele>69</ele>
        <time>2013-07-30T08:23:32Z</time>
      </trkpt>
      <trkpt lat="48.70819" lon="2.45498">
        <ele>69</ele>
        <time>2013-07-30T08:23:36Z</time>
      </trkpt>
      <trkpt lat="48.70822" lon="2.45491">
        <ele>69</ele>
        <time>2013-07-30T08:23:41Z</time>
      </trkpt>
      <trkpt lat="48.70824" lon="2.45484">
        <ele>69</ele>
        <time>2013-07-30T08:23:46Z</time>
      </trkpt>
      <trkpt lat="48.70828" lon="2.45476">
        <ele>69</ele>
        <time>2013-07-30T08:23:56Z</time>
      </trkpt>
      <trkpt lat="48.70831" lon="2.45468">
        <ele>69</ele>
        <time>2013-07-30T08:24:01Z</time>
      </trkpt>
      <trkpt lat="48.70831" lon="2.45464">
        <ele>69</ele>
        <time>2013-07-30T08:24:07Z</time>
      </trkpt>
      <trkpt lat="48.70827" lon="2.4546">
        <ele>69</ele>
        <time>2013-07-30T08:24:16Z</time>
      </trkpt>
      <trkpt lat="48.70834" lon="2.45457">
        <ele>68</ele>
        <time>2013-07-30T08:24:30Z</time>
      </trkpt>
      <trkpt lat="48.70831" lon="2.45452">
        <ele>69</ele>
        <time>2013-07-30T08:24:40Z</time>
      </trkpt>
      <trkpt lat="48.70832" lon="2.45449">
        <ele>69</ele>
        <time>2013-07-30T08:25:01Z</time>
      </trkpt>
      <trkpt lat="48.70836" lon="2.4544">
        <ele>68</ele>
        <time>2013-07-30T08:25:22Z</time>
      </trkpt>
      <trkpt lat="48.70839" lon="2.45434">
        <ele>68</ele>
        <time>2013-07-30T08:25:27Z</time>
      </trkpt>
      <trkpt lat="48.7084" lon="2.45426">
        <ele>68</ele>
        <time>2013-07-30T08:25:34Z</time>
      </trkpt>
      <trkpt lat="48.70842" lon="2.45419">
        <ele>68</ele>
        <time>2013-07-30T08:25:38Z</time>
      </trkpt>
      <trkpt lat="48.70843" lon="2.45412">
        <ele>68</ele>
        <time>2013-07-30T08:25:40Z</time>
      </trkpt>
      <trkpt lat="48.70845" lon="2.45404">
        <ele>68</ele>
        <time>2013-07-30T08:25:43Z</time>
      </trkpt>
      <trkpt lat="48.70847" lon="2.45397">
        <ele>68</ele>
        <time>2013-07-30T08:25:47Z</time>
      </trkpt>
      <trkpt lat="48.70851" lon="2.45391">
        <ele>68</ele>
        <time>2013-07-30T08:25:51Z</time>
      </trkpt>
      <trkpt lat="48.70853" lon="2.45384">
        <ele>67</ele>
        <time>2013-07-30T08:25:56Z</time>
      </trkpt>
      <trkpt lat="48.70853" lon="2.45376">
        <ele>67</ele>
        <time>2013-07-30T08:26:02Z</time>
      </trkpt>
      <trkpt lat="48.70851" lon="2.4537">
        <ele>67</ele>
        <time>2013-07-30T08:26:09Z</time>
      </trkpt>
      <trkpt lat="48.70849" lon="2.45364">
        <ele>67</ele>
        <time>2013-07-30T08:27:06Z</time>
      </trkpt>
      <trkpt lat="48.70848" lon="2.45356">
        <ele>67</ele>
        <time>2013-07-30T08:27:11Z</time>
      </trkpt>
      <trkpt lat="48.70847" lon="2.45349">
        <ele>67</ele>
        <time>2013-07-30T08:27:16Z</time>
      </trkpt>
      <trkpt lat="48.70847" lon="2.45344">
        <ele>68</ele>
        <time>2013-07-30T08:27:24Z</time>
      </trkpt>
      <trkpt lat="48.70844" lon="2.45336">
        <ele>68</ele>
        <time>2013-07-30T08:27:30Z</time>
      </trkpt>
      <trkpt lat="48.70839" lon="2.45333">
        <ele>68</ele>
        <time>2013-07-30T08:27:33Z</time>
      </trkpt>
      <trkpt lat="48.70834" lon="2.45335">
        <ele>68</ele>
        <time>2013-07-30T08:27:37Z</time>
      </trkpt>
      <trkpt lat="48.70832" lon="2.45337">
        <ele>68</ele>
        <time>2013-07-30T08:27:43Z</time>
      </trkpt>
      <trkpt lat="48.70831" lon="2.45342">
        <ele>68</ele>
        <time>2013-07-30T08:27:51Z</time>
      </trkpt>
      <trkpt lat="48.70832" lon="2.45349">
        <ele>69</ele>
        <time>2013-07-30T08:28:08Z</time>
      </trkpt>
      <trkpt lat="48.70831" lon="2.45353">
        <ele>69</ele>
        <time>2013-07-30T08:28:15Z</time>
      </trkpt>
      <trkpt lat="48.70829" lon="2.45355">
        <ele>69</ele>
        <time>2013-07-30T08:28:36Z</time>
      </trkpt>
      <trkpt lat="48.70828" lon="2.45339">
        <ele>68</ele>
        <time>2013-07-30T08:30:17Z</time>
      </trkpt>
      <trkpt lat="48.70829" lon="2.45336">
        <ele>68</ele>
        <time>2013-07-30T08:32:16Z</time>
      </trkpt>
      <trkpt lat="48.70832" lon="2.4533">
        <ele>68</ele>
        <time>2013-07-30T08:35:25Z</time>
      </trkpt>
      <trkpt lat="48.70836" lon="2.45326">
        <ele>67</ele>
        <time>2013-07-30T08:35:29Z</time>
      </trkpt>
      <trkpt lat="48.7084" lon="2.45321">
        <ele>67</ele>
        <time>2013-07-30T08:35:33Z</time>
      </trkpt>
      <trkpt lat="48.70844" lon="2.45316">
        <ele>67</ele>
        <time>2013-07-30T08:35:36Z</time>
      </trkpt>
      <trkpt lat="48.70848" lon="2.45313">
        <ele>67</ele>
        <time>2013-07-30T08:35:40Z</time>
      </trkpt>
      <trkpt lat="48.70852" lon="2.45308">
        <ele>67</ele>
        <time>2013-07-30T08:35:47Z</time>
      </trkpt>
      <trkpt lat="48.70854" lon="2.45301">
        <ele>66</ele>
        <time>2013-07-30T08:35:51Z</time>
      </trkpt>
      <trkpt lat="48.70855" lon="2.45308">
        <ele>67</ele>
        <time>2013-07-30T08:38:43Z</time>
      </trkpt>
      <trkpt lat="48.70852" lon="2.45315">
        <ele>67</ele>
        <time>2013-07-30T08:39:40Z</time>
      </trkpt>
      <trkpt lat="48.70849" lon="2.45321">
        <ele>67</ele>
        <time>2013-07-30T08:39:44Z</time>
      </trkpt>
      <trkpt lat="48.70844" lon="2.45323">
        <ele>67</ele>
        <time>2013-07-30T08:39:51Z</time>
      </trkpt>
      <trkpt lat="48.70842" lon="2.45326">
        <ele>67</ele>
        <time>2013-07-30T08:39:57Z</time>
      </trkpt>
      <trkpt lat="48.70838" lon="2.45332">
        <ele>68</ele>
        <time>2013-07-30T08:40:50Z</time>
      </trkpt>
      <trkpt lat="48.70834" lon="2.45334">
        <ele>68</ele>
        <time>2013-07-30T08:40:54Z</time>
      </trkpt>
      <trkpt lat="48.70829" lon="2.45338">
        <ele>68</ele>
        <time>2013-07-30T08:40:59Z</time>
      </trkpt>
      <trkpt lat="48.70825" lon="2.45342">
        <ele>69</ele>
        <time>2013-07-30T08:41:03Z</time>
      </trkpt>
      <trkpt lat="48.70826" lon="2.45347">
        <ele>69</ele>
        <time>2013-07-30T08:41:11Z</time>
      </trkpt>
      <trkpt lat="48.70821" lon="2.45347">
        <ele>69</ele>
        <time>2013-07-30T08:41:20Z</time>
      </trkpt>
      <trkpt lat="48.70817" lon="2.45351">
        <ele>69</ele>
        <time>2013-07-30T08:41:23Z</time>
      </trkpt>
      <trkpt lat="48.70813" lon="2.45356">
        <ele>69</ele>
        <time>2013-07-30T08:41:27Z</time>
      </trkpt>
      <trkpt lat="48.70813" lon="2.4536">
        <ele>69</ele>
        <time>2013-07-30T08:41:33Z</time>
      </trkpt>
      <trkpt lat="48.70811" lon="2.45363">
        <ele>69</ele>
        <time>2013-07-30T08:41:50Z</time>
      </trkpt>
      <trkpt lat="48.7081" lon="2.4537">
        <ele>69</ele>
        <time>2013-07-30T08:41:54Z</time>
      </trkpt>
      <trkpt lat="48.70806" lon="2.45373">
        <ele>69</ele>
        <time>2013-07-30T08:41:57Z</time>
      </trkpt>
      <trkpt lat="48.70801" lon="2.45374">
        <ele>69</ele>
        <time>2013-07-30T08:42:00Z</time>
      </trkpt>
      <trkpt lat="48.70796" lon="2.45376">
        <ele>69</ele>
        <time>2013-07-30T08:42:05Z</time>
      </trkpt>
      <trkpt lat="48.70792" lon="2.45378">
        <ele>70</ele>
        <time>2013-07-30T08:42:10Z</time>
      </trkpt>
      <trkpt lat="48.70793" lon="2.45386">
        <ele>70</ele>
        <time>2013-07-30T08:42:16Z</time>
      </trkpt>
      <trkpt lat="48.70789" lon="2.45389">
        <ele>70</ele>
        <time>2013-07-30T08:42:20Z</time>
      </trkpt>
      <trkpt lat="48.70785" lon="2.45394">
        <ele>70</ele>
        <time>2013-07-30T08:42:23Z</time>
      </trkpt>
      <trkpt lat="48.70781" lon="2.45397">
        <ele>70</ele>
        <time>2013-07-30T08:42:26Z</time>
      </trkpt>
      <trkpt lat="48.70776" lon="2.45402">
        <ele>70</ele>
        <time>2013-07-30T08:42:30Z</time>
      </trkpt>
      <trkpt lat="48.70773" lon="2.45408">
        <ele>70</ele>
        <time>2013-07-30T08:42:35Z</time>
      </trkpt>
      <trkpt lat="48.70768" lon="2.45411">
        <ele>70</ele>
        <time>2013-07-30T08:42:40Z</time>
      </trkpt>
      <trkpt lat="48.70765" lon="2.45416">
        <ele>70</ele>
        <time>2013-07-30T08:42:45Z</time>
      </trkpt>
      <trkpt lat="48.70762" lon="2.45421">
        <ele>71</ele>
        <time>2013-07-30T08:42:49Z</time>
      </trkpt>
      <trkpt lat="48.70759" lon="2.45427">
        <ele>71</ele>
        <time>2013-07-30T08:42:54Z</time>
      </trkpt>
      <trkpt lat="48.70756" lon="2.45433">
        <ele>71</ele>
        <time>2013-07-30T08:42:58Z</time>
      </trkpt>
      <trkpt lat="48.70753" lon="2.45439">
        <ele>71</ele>
        <time>2013-07-30T08:43:03Z</time>
      </trkpt>
      <trkpt lat="48.70748" lon="2.4544">
        <ele>72</ele>
        <time>2013-07-30T08:43:07Z</time>
      </trkpt>
      <trkpt lat="48.70743" lon="2.45444">
        <ele>72</ele>
        <time>2013-07-30T08:43:12Z</time>
      </trkpt>
      <trkpt lat="48.70738" lon="2.45448">
        <ele>73</ele>
        <time>2013-07-30T08:43:18Z</time>
      </trkpt>
      <trkpt lat="48.70735" lon="2.45453">
        <ele>73</ele>
        <time>2013-07-30T08:43:22Z</time>
      </trkpt>
      <trkpt lat="48.70733" lon="2.45459">
        <ele>73</ele>
        <time>2013-07-30T08:43:27Z</time>
      </trkpt>
      <trkpt lat="48.70729" lon="2.45463">
        <ele>73</ele>
        <time>2013-07-30T08:43:33Z</time>
      </trkpt>
      <trkpt lat="48.70728" lon="2.45471">
        <ele>73</ele>
        <time>2013-07-30T08:43:38Z</time>
      </trkpt>
      <trkpt lat="48.70728" lon="2.45479">
        <ele>73</ele>
        <time>2013-07-30T08:43:42Z</time>
      </trkpt>
      <trkpt lat="48.70728" lon="2.45486">
        <ele>73</ele>
        <time>2013-07-30T08:43:45Z</time>
      </trkpt>
      <trkpt lat="48.70726" lon="2.45494">
        <ele>73</ele>
        <time>2013-07-30T08:43:49Z</time>
      </trkpt>
      <trkpt lat="48.70722" lon="2.45498">
        <ele>73</ele>
        <time>2013-07-30T08:43:53Z</time>
      </trkpt>
      <trkpt lat="48.7072" lon="2.45506">
        <ele>73</ele>
        <time>2013-07-30T08:43:57Z</time>
      </trkpt>
      <trkpt lat="48.70717" lon="2.45512">
        <ele>73</ele>
        <time>2013-07-30T08:44:02Z</time>
      </trkpt>
      <trkpt lat="48.70711" lon="2.45513">
        <ele>73</ele>
        <time>2013-07-30T08:44:07Z</time>
      </trkpt>
      <trkpt lat="48.70704" lon="2.45524">
        <ele>73</ele>
        <time>2013-07-30T08:44:19Z</time>
      </trkpt>
      <trkpt lat="48.70702" lon="2.45534">
        <ele>73</ele>
        <time>2013-07-30T08:44:24Z</time>
      </trkpt>
      <trkpt lat="48.70702" lon="2.45541">
        <ele>73</ele>
        <time>2013-07-30T08:44:27Z</time>
      </trkpt>
      <trkpt lat="48.70703" lon="2.45549">
        <ele>73</ele>
        <time>2013-07-30T08:44:30Z</time>
      </trkpt>
      <trkpt lat="48.70702" lon="2.45555">
        <ele>73</ele>
        <time>2013-07-30T08:44:33Z</time>
      </trkpt>
      <trkpt lat="48.70699" lon="2.45562">
        <ele>73</ele>
        <time>2013-07-30T08:44:36Z</time>
      </trkpt>
      <trkpt lat="48.70697" lon="2.45568">
        <ele>73</ele>
        <time>2013-07-30T08:44:39Z</time>
      </trkpt>
      <trkpt lat="48.70695" lon="2.45574">
        <ele>73</ele>
        <time>2013-07-30T08:44:43Z</time>
      </trkpt>
      <trkpt lat="48.70691" lon="2.45581">
        <ele>73</ele>
        <time>2013-07-30T08:44:50Z</time>
      </trkpt>
      <trkpt lat="48.7069" lon="2.45588">
        <ele>73</ele>
        <time>2013-07-30T08:44:52Z</time>
      </trkpt>
      <trkpt lat="48.70691" lon="2.45595">
        <ele>73</ele>
        <time>2013-07-30T08:44:54Z</time>
      </trkpt>
      <trkpt lat="48.70692" lon="2.45603">
        <ele>73</ele>
        <time>2013-07-30T08:44:57Z</time>
      </trkpt>
      <trkpt lat="48.70687" lon="2.45603">
        <ele>73</ele>
        <time>2013-07-30T08:45:02Z</time>
      </trkpt>
      <trkpt lat="48.70684" lon="2.45608">
        <ele>73</ele>
        <time>2013-07-30T08:45:08Z</time>
      </trkpt>
      <trkpt lat="48.70681" lon="2.45615">
        <ele>73</ele>
        <time>2013-07-30T08:45:14Z</time>
      </trkpt>
      <trkpt lat="48.70676" lon="2.45616">
        <ele>73</ele>
        <time>2013-07-30T08:45:19Z</time>
      </trkpt>
      <trkpt lat="48.70671" lon="2.45618">
        <ele>73</ele>
        <time>2013-07-30T08:45:35Z</time>
      </trkpt>
      <trkpt lat="48.70674" lon="2.45613">
        <ele>73</ele>
        <time>2013-07-30T08:48:02Z</time>
      </trkpt>
      <trkpt lat="48.70674" lon="2.45612">
        <ele>73</ele>
        <time>2013-07-30T08:48:33Z</time>
      </trkpt>
      <trkpt lat="48.70668" lon="2.45617">
        <ele>73</ele>
        <time>2013-07-30T08:48:36Z</time>
      </trkpt>
      <trkpt lat="48.70655" lon="2.45637">
        <ele>75</ele>
        <time>2013-07-30T08:48:49Z</time>
      </trkpt>
      <trkpt lat="48.70653" lon="2.45645">
        <ele>75</ele>
        <time>2013-07-30T08:48:53Z</time>
      </trkpt>
      <trkpt lat="48.70654" lon="2.45652">
        <ele>75</ele>
        <time>2013-07-30T08:48:55Z</time>
      </trkpt>
      <trkpt lat="48.70656" lon="2.45661">
        <ele>75</ele>
        <time>2013-07-30T08:48:57Z</time>
      </trkpt>
      <trkpt lat="48.70656" lon="2.45669">
        <ele>74</ele>
        <time>2013-07-30T08:48:59Z</time>
      </trkpt>
      <trkpt lat="48.70655" lon="2.45676">
        <ele>75</ele>
        <time>2013-07-30T08:49:03Z</time>
      </trkpt>
      <trkpt lat="48.70654" lon="2.45684">
        <ele>75</ele>
        <time>2013-07-30T08:49:06Z</time>
      </trkpt>
      <trkpt lat="48.7065" lon="2.45689">
        <ele>75</ele>
        <time>2013-07-30T08:49:10Z</time>
      </trkpt>
      <trkpt lat="48.70656" lon="2.45425">
        <ele>76</ele>
        <time>2013-07-30T09:33:30Z</time>
      </trkpt>
      <trkpt lat="48.70655" lon="2.45419">
        <ele>76</ele>
        <time>2013-07-30T09:33:39Z</time>
      </trkpt>
      <trkpt lat="48.70691" lon="2.4547">
        <ele>74</ele>
        <time>2013-07-30T09:44:37Z</time>
      </trkpt>
      <trkpt lat="48.70686" lon="2.45465">
        <ele>74</ele>
        <time>2013-07-30T09:44:43Z</time>
      </trkpt>
      <trkpt lat="48.70681" lon="2.4546">
        <ele>74</ele>
        <time>2013-07-30T09:44:47Z</time>
      </trkpt>
      <trkpt lat="48.70677" lon="2.45457">
        <ele>74</ele>
        <time>2013-07-30T09:44:52Z</time>
      </trkpt>
      <trkpt lat="48.70675" lon="2.45448">
        <ele>74</ele>
        <time>2013-07-30T09:44:58Z</time>
      </trkpt>
      <trkpt lat="48.70671" lon="2.45443">
        <ele>74</ele>
        <time>2013-07-30T09:45:02Z</time>
      </trkpt>
      <trkpt lat="48.70667" lon="2.45439">
        <ele>74</ele>
        <time>2013-07-30T09:45:06Z</time>
      </trkpt>
      <trkpt lat="48.70665" lon="2.45434">
        <ele>76</ele>
        <time>2013-07-30T09:45:13Z</time>
      </trkpt>
      <trkpt lat="48.7066" lon="2.45431">
        <ele>76</ele>
        <time>2013-07-30T09:45:20Z</time>
      </trkpt>
      <trkpt lat="48.70656" lon="2.45426">
        <ele>76</ele>
        <time>2013-07-30T09:45:24Z</time>
      </trkpt>
      <trkpt lat="48.70653" lon="2.45421">
        <ele>76</ele>
        <time>2013-07-30T09:45:27Z</time>
      </trkpt>
      <trkpt lat="48.70649" lon="2.45417">
        <ele>76</ele>
        <time>2013-07-30T09:45:30Z</time>
      </trkpt>
      <trkpt lat="48.70645" lon="2.45412">
        <ele>76</ele>
        <time>2013-07-30T09:45:34Z</time>
      </trkpt>
      <trkpt lat="48.7064" lon="2.45409">
        <ele>77</ele>
        <time>2013-07-30T09:45:38Z</time>
      </trkpt>
      <trkpt lat="48.70635" lon="2.45404">
        <ele>77</ele>
        <time>2013-07-30T09:45:42Z</time>
      </trkpt>
      <trkpt lat="48.70631" lon="2.45402">
        <ele>77</ele>
        <time>2013-07-30T09:45:46Z</time>
      </trkpt>
      <trkpt lat="48.70626" lon="2.45402">
        <ele>77</ele>
        <time>2013-07-30T09:45:51Z</time>
      </trkpt>
      <trkpt lat="48.70621" lon="2.45399">
        <ele>77</ele>
        <time>2013-07-30T09:45:56Z</time>
      </trkpt>
      <trkpt lat="48.70616" lon="2.45397">
        <ele>77</ele>
        <time>2013-07-30T09:46:01Z</time>
      </trkpt>
      <trkpt lat="48.70611" lon="2.45394">
        <ele>77</ele>
        <time>2013-07-30T09:46:05Z</time>
      </trkpt>
      <trkpt lat="48.70608" lon="2.45388">
        <ele>77</ele>
        <time>2013-07-30T09:46:08Z</time>
      </trkpt>
      <trkpt lat="48.70603" lon="2.45387">
        <ele>77</ele>
        <time>2013-07-30T09:46:12Z</time>
      </trkpt>
      <trkpt lat="48.70598" lon="2.45387">
        <ele>77</ele>
        <time>2013-07-30T09:46:16Z</time>
      </trkpt>
      <trkpt lat="48.70593" lon="2.45386">
        <ele>77</ele>
        <time>2013-07-30T09:46:20Z</time>
      </trkpt>
      <trkpt lat="48.70588" lon="2.45386">
        <ele>77</ele>
        <time>2013-07-30T09:46:24Z</time>
      </trkpt>
      <trkpt lat="48.70582" lon="2.45388">
        <ele>78</ele>
        <time>2013-07-30T09:46:28Z</time>
      </trkpt>
      <trkpt lat="48.70577" lon="2.45389">
        <ele>78</ele>
        <time>2013-07-30T09:46:32Z</time>
      </trkpt>
      <trkpt lat="48.70572" lon="2.45389">
        <ele>78</ele>
        <time>2013-07-30T09:46:36Z</time>
      </trkpt>
      <trkpt lat="48.70567" lon="2.45388">
        <ele>78</ele>
        <time>2013-07-30T09:46:40Z</time>
      </trkpt>
      <trkpt lat="48.70562" lon="2.45387">
        <ele>78</ele>
        <time>2013-07-30T09:46:44Z</time>
      </trkpt>
      <trkpt lat="48.70558" lon="2.45386">
        <ele>78</ele>
        <time>2013-07-30T09:46:48Z</time>
      </trkpt>
      <trkpt lat="48.70553" lon="2.45385">
        <ele>78</ele>
        <time>2013-07-30T09:46:52Z</time>
      </trkpt>
      <trkpt lat="48.70548" lon="2.45386">
        <ele>78</ele>
        <time>2013-07-30T09:46:56Z</time>
      </trkpt>
      <trkpt lat="48.70544" lon="2.45389">
        <ele>78</ele>
        <time>2013-07-30T09:47:01Z</time>
      </trkpt>
      <trkpt lat="48.70539" lon="2.45391">
        <ele>78</ele>
        <time>2013-07-30T09:47:07Z</time>
      </trkpt>
      <trkpt lat="48.70536" lon="2.45385">
        <ele>78</ele>
        <time>2013-07-30T09:47:11Z</time>
      </trkpt>
      <trkpt lat="48.70531" lon="2.4538">
        <ele>78</ele>
        <time>2013-07-30T09:47:15Z</time>
      </trkpt>
      <trkpt lat="48.70526" lon="2.45379">
        <ele>78</ele>
        <time>2013-07-30T09:47:20Z</time>
      </trkpt>
      <trkpt lat="48.70521" lon="2.45379">
        <ele>78</ele>
        <time>2013-07-30T09:47:24Z</time>
      </trkpt>
      <trkpt lat="48.70516" lon="2.45379">
        <ele>78</ele>
        <time>2013-07-30T09:47:28Z</time>
      </trkpt>
      <trkpt lat="48.70511" lon="2.45383">
        <ele>78</ele>
        <time>2013-07-30T09:47:32Z</time>
      </trkpt>
      <trkpt lat="48.70506" lon="2.45384">
        <ele>78</ele>
        <time>2013-07-30T09:47:36Z</time>
      </trkpt>
      <trkpt lat="48.70502" lon="2.45387">
        <ele>78</ele>
        <time>2013-07-30T09:47:40Z</time>
      </trkpt>
      <trkpt lat="48.705" lon="2.45394">
        <ele>78</ele>
        <time>2013-07-30T09:47:47Z</time>
      </trkpt>
      <trkpt lat="48.70496" lon="2.45397">
        <ele>78</ele>
        <time>2013-07-30T09:47:51Z</time>
      </trkpt>
      <trkpt lat="48.70492" lon="2.45403">
        <ele>78</ele>
        <time>2013-07-30T09:47:55Z</time>
      </trkpt>
      <trkpt lat="48.70488" lon="2.45408">
        <ele>78</ele>
        <time>2013-07-30T09:47:58Z</time>
      </trkpt>
      <trkpt lat="48.70484" lon="2.45412">
        <ele>78</ele>
        <time>2013-07-30T09:48:03Z</time>
      </trkpt>
      <trkpt lat="48.7048" lon="2.4541">
        <ele>78</ele>
        <time>2013-07-30T09:48:07Z</time>
      </trkpt>
      <trkpt lat="48.70475" lon="2.45414">
        <ele>78</ele>
        <time>2013-07-30T09:48:12Z</time>
      </trkpt>
      <trkpt lat="48.70472" lon="2.45419">
        <ele>79</ele>
        <time>2013-07-30T09:48:15Z</time>
      </trkpt>
      <trkpt lat="48.70468" lon="2.45425">
        <ele>79</ele>
        <time>2013-07-30T09:48:19Z</time>
      </trkpt>
      <trkpt lat="48.70464" lon="2.4543">
        <ele>79</ele>
        <time>2013-07-30T09:48:23Z</time>
      </trkpt>
      <trkpt lat="48.70461" lon="2.45436">
        <ele>79</ele>
        <time>2013-07-30T09:48:28Z</time>
      </trkpt>
      <trkpt lat="48.70457" lon="2.4544">
        <ele>79</ele>
        <time>2013-07-30T09:48:32Z</time>
      </trkpt>
      <trkpt lat="48.70453" lon="2.45445">
        <ele>79</ele>
        <time>2013-07-30T09:48:37Z</time>
      </trkpt>
      <trkpt lat="48.70448" lon="2.45449">
        <ele>79</ele>
        <time>2013-07-30T09:48:42Z</time>
      </trkpt>
      <trkpt lat="48.70443" lon="2.45452">
        <ele>79</ele>
        <time>2013-07-30T09:48:45Z</time>
      </trkpt>
      <trkpt lat="48.70438" lon="2.45455">
        <ele>79</ele>
        <time>2013-07-30T09:48:48Z</time>
      </trkpt>
      <trkpt lat="48.70433" lon="2.4546">
        <ele>79</ele>
        <time>2013-07-30T09:48:52Z</time>
      </trkpt>
      <trkpt lat="48.70431" lon="2.45466">
        <ele>79</ele>
        <time>2013-07-30T09:48:57Z</time>
      </trkpt>
      <trkpt lat="48.70426" lon="2.45466">
        <ele>79</ele>
        <time>2013-07-30T09:50:06Z</time>
      </trkpt>
      <trkpt lat="48.70425" lon="2.45471">
        <ele>79</ele>
        <time>2013-07-30T09:50:26Z</time>
      </trkpt>
      <trkpt lat="48.70425" lon="2.45475">
        <ele>79</ele>
        <time>2013-07-30T09:50:42Z</time>
      </trkpt>
      <trkpt lat="48.7042" lon="2.45477">
        <ele>79</ele>
        <time>2013-07-30T09:51:07Z</time>
      </trkpt>
      <trkpt lat="48.70417" lon="2.45483">
        <ele>79</ele>
        <time>2013-07-30T09:51:14Z</time>
      </trkpt>
      <trkpt lat="48.70414" lon="2.45489">
        <ele>80</ele>
        <time>2013-07-30T09:51:19Z</time>
      </trkpt>
      <trkpt lat="48.70409" lon="2.45493">
        <ele>80</ele>
        <time>2013-07-30T09:51:24Z</time>
      </trkpt>
      <trkpt lat="48.70405" lon="2.45496">
        <ele>80</ele>
        <time>2013-07-30T09:51:29Z</time>
      </trkpt>
      <trkpt lat="48.704" lon="2.45499">
        <ele>80</ele>
        <time>2013-07-30T09:51:34Z</time>
      </trkpt>
      <trkpt lat="48.70396" lon="2.45505">
        <ele>80</ele>
        <time>2013-07-30T09:51:39Z</time>
      </trkpt>
      <trkpt lat="48.70392" lon="2.45508">
        <ele>80</ele>
        <time>2013-07-30T09:51:43Z</time>
      </trkpt>
      <trkpt lat="48.70388" lon="2.45513">
        <ele>80</ele>
        <time>2013-07-30T09:51:49Z</time>
      </trkpt>
      <trkpt lat="48.70383" lon="2.45517">
        <ele>80</ele>
        <time>2013-07-30T09:51:54Z</time>
      </trkpt>
      <trkpt lat="48.70378" lon="2.45521">
        <ele>80</ele>
        <time>2013-07-30T09:51:58Z</time>
      </trkpt>
      <trkpt lat="48.70373" lon="2.45525">
        <ele>80</ele>
        <time>2013-07-30T09:52:02Z</time>
      </trkpt>
      <trkpt lat="48.70369" lon="2.4553">
        <ele>80</ele>
        <time>2013-07-30T09:52:06Z</time>
      </trkpt>
      <trkpt lat="48.70365" lon="2.45535">
        <ele>80</ele>
        <time>2013-07-30T09:52:11Z</time>
      </trkpt>
      <trkpt lat="48.70361" lon="2.4554">
        <ele>80</ele>
        <time>2013-07-30T09:52:17Z</time>
      </trkpt>
      <trkpt lat="48.70359" lon="2.45542">
        <ele>80</ele>
        <time>2013-07-30T09:52:23Z</time>
      </trkpt>
      <trkpt lat="48.70355" lon="2.45545">
        <ele>81</ele>
        <time>2013-07-30T09:52:36Z</time>
      </trkpt>
      <trkpt lat="48.70352" lon="2.45548">
        <ele>81</ele>
        <time>2013-07-30T09:52:44Z</time>
      </trkpt>
      <trkpt lat="48.70349" lon="2.45553">
        <ele>81</ele>
        <time>2013-07-30T09:52:47Z</time>
      </trkpt>
      <trkpt lat="48.70345" lon="2.45557">
        <ele>81</ele>
        <time>2013-07-30T09:52:51Z</time>
      </trkpt>
      <trkpt lat="48.7034" lon="2.45561">
        <ele>81</ele>
        <time>2013-07-30T09:52:54Z</time>
      </trkpt>
      <trkpt lat="48.70335" lon="2.45565">
        <ele>81</ele>
        <time>2013-07-30T09:52:56Z</time>
      </trkpt>
      <trkpt lat="48.70331" lon="2.45568">
        <ele>81</ele>
        <time>2013-07-30T09:52:58Z</time>
      </trkpt>
      <trkpt lat="48.70326" lon="2.45573">
        <ele>81</ele>
        <time>2013-07-30T09:53:01Z</time>
      </trkpt>
      <trkpt lat="48.70321" lon="2.45578">
        <ele>81</ele>
        <time>2013-07-30T09:53:05Z</time>
      </trkpt>
      <trkpt lat="48.70317" lon="2.45582">
        <ele>82</ele>
        <time>2013-07-30T09:53:09Z</time>
      </trkpt>
      <trkpt lat="48.70313" lon="2.45587">
        <ele>81</ele>
        <time>2013-07-30T09:53:13Z</time>
      </trkpt>
      <trkpt lat="48.70309" lon="2.45591">
        <ele>81</ele>
        <time>2013-07-30T09:53:16Z</time>
      </trkpt>
      <trkpt lat="48.70305" lon="2.45594">
        <ele>81</ele>
        <time>2013-07-30T09:53:19Z</time>
      </trkpt>
      <trkpt lat="48.703" lon="2.45598">
        <ele>82</ele>
        <time>2013-07-30T09:53:22Z</time>
      </trkpt>
      <trkpt lat="48.70296" lon="2.45603">
        <ele>82</ele>
        <time>2013-07-30T09:53:26Z</time>
      </trkpt>
      <trkpt lat="48.70294" lon="2.45605">
        <ele>82</ele>
        <time>2013-07-30T09:53:33Z</time>
      </trkpt>
      <trkpt lat="48.70289" lon="2.45609">
        <ele>82</ele>
        <time>2013-07-30T09:53:35Z</time>
      </trkpt>
      <trkpt lat="48.70284" lon="2.45612">
        <ele>82</ele>
        <time>2013-07-30T09:53:39Z</time>
      </trkpt>
      <trkpt lat="48.7028" lon="2.45617">
        <ele>82</ele>
        <time>2013-07-30T09:53:44Z</time>
      </trkpt>
      <trkpt lat="48.70276" lon="2.45622">
        <ele>82</ele>
        <time>2013-07-30T09:53:47Z</time>
      </trkpt>
      <trkpt lat="48.70271" lon="2.45626">
        <ele>82</ele>
        <time>2013-07-30T09:53:51Z</time>
      </trkpt>
      <trkpt lat="48.70268" lon="2.45631">
        <ele>82</ele>
        <time>2013-07-30T09:53:55Z</time>
      </trkpt>
      <trkpt lat="48.70265" lon="2.45637">
        <ele>82</ele>
        <time>2013-07-30T09:54:02Z</time>
      </trkpt>
      <trkpt lat="48.70262" lon="2.45643">
        <ele>82</ele>
        <time>2013-07-30T09:54:06Z</time>
      </trkpt>
      <trkpt lat="48.70259" lon="2.45649">
        <ele>82</ele>
        <time>2013-07-30T09:54:09Z</time>
      </trkpt>
      <trkpt lat="48.70254" lon="2.45651">
        <ele>82</ele>
        <time>2013-07-30T09:54:12Z</time>
      </trkpt>
      <trkpt lat="48.70248" lon="2.45654">
        <ele>82</ele>
        <time>2013-07-30T09:54:15Z</time>
      </trkpt>
      <trkpt lat="48.70244" lon="2.45657">
        <ele>82</ele>
        <time>2013-07-30T09:54:18Z</time>
      </trkpt>
      <trkpt lat="48.7024" lon="2.45662">
        <ele>82</ele>
        <time>2013-07-30T09:54:23Z</time>
      </trkpt>
      <trkpt lat="48.70237" lon="2.45667">
        <ele>82</ele>
        <time>2013-07-30T09:54:27Z</time>
      </trkpt>
      <trkpt lat="48.70232" lon="2.4567">
        <ele>82</ele>
        <time>2013-07-30T09:54:31Z</time>
      </trkpt>
      <trkpt lat="48.70228" lon="2.45673">
        <ele>82</ele>
        <time>2013-07-30T09:54:35Z</time>
      </trkpt>
      <trkpt lat="48.70223" lon="2.45677">
        <ele>82</ele>
        <time>2013-07-30T09:54:40Z</time>
      </trkpt>
      <trkpt lat="48.70218" lon="2.4568">
        <ele>82</ele>
        <time>2013-07-30T09:54:43Z</time>
      </trkpt>
      <trkpt lat="48.70214" lon="2.45683">
        <ele>82</ele>
        <time>2013-07-30T09:54:46Z</time>
      </trkpt>
      <trkpt lat="48.7021" lon="2.45687">
        <ele>82</ele>
        <time>2013-07-30T09:54:51Z</time>
      </trkpt>
      <trkpt lat="48.70205" lon="2.45691">
        <ele>82</ele>
        <time>2013-07-30T09:54:56Z</time>
      </trkpt>
      <trkpt lat="48.70201" lon="2.45696">
        <ele>82</ele>
        <time>2013-07-30T09:55:00Z</time>
      </trkpt>
      <trkpt lat="48.70196" lon="2.457">
        <ele>82</ele>
        <time>2013-07-30T09:55:05Z</time>
      </trkpt>
      <trkpt lat="48.70189" lon="2.45703">
        <ele>82</ele>
        <time>2013-07-30T09:55:35Z</time>
      </trkpt>
      <trkpt lat="48.70184" lon="2.45706">
        <ele>82</ele>
        <time>2013-07-30T09:55:39Z</time>
      </trkpt>
      <trkpt lat="48.70182" lon="2.45711">
        <ele>82</ele>
        <time>2013-07-30T09:55:57Z</time>
      </trkpt>
      <trkpt lat="48.70179" lon="2.45716">
        <ele>82</ele>
        <time>2013-07-30T09:56:07Z</time>
      </trkpt>
      <trkpt lat="48.70174" lon="2.45717">
        <ele>82</ele>
        <time>2013-07-30T09:56:16Z</time>
      </trkpt>
      <trkpt lat="48.70169" lon="2.4572">
        <ele>82</ele>
        <time>2013-07-30T09:56:19Z</time>
      </trkpt>
      <trkpt lat="48.70166" lon="2.45724">
        <ele>82</ele>
        <time>2013-07-30T09:56:22Z</time>
      </trkpt>
      <trkpt lat="48.70162" lon="2.45728">
        <ele>82</ele>
        <time>2013-07-30T09:56:25Z</time>
      </trkpt>
      <trkpt lat="48.70157" lon="2.45733">
        <ele>82</ele>
        <time>2013-07-30T09:56:29Z</time>
      </trkpt>
      <trkpt lat="48.70153" lon="2.45737">
        <ele>82</ele>
        <time>2013-07-30T09:56:33Z</time>
      </trkpt>
      <trkpt lat="48.70149" lon="2.45742">
        <ele>82</ele>
        <time>2013-07-30T09:56:38Z</time>
      </trkpt>
      <trkpt lat="48.70145" lon="2.45748">
        <ele>82</ele>
        <time>2013-07-30T09:56:42Z</time>
      </trkpt>
      <trkpt lat="48.70141" lon="2.45754">
        <ele>83</ele>
        <time>2013-07-30T09:56:46Z</time>
      </trkpt>
      <trkpt lat="48.70138" lon="2.45758">
        <ele>83</ele>
        <time>2013-07-30T09:56:49Z</time>
      </trkpt>
      <trkpt lat="48.70133" lon="2.45761">
        <ele>83</ele>
        <time>2013-07-30T09:56:52Z</time>
      </trkpt>
      <trkpt lat="48.70129" lon="2.45765">
        <ele>83</ele>
        <time>2013-07-30T09:56:56Z</time>
      </trkpt>
      <trkpt lat="48.70125" lon="2.45771">
        <ele>83</ele>
        <time>2013-07-30T09:57:00Z</time>
      </trkpt>
      <trkpt lat="48.70122" lon="2.45777">
        <ele>83</ele>
        <time>2013-07-30T09:57:04Z</time>
      </trkpt>
      <trkpt lat="48.70118" lon="2.4578">
        <ele>83</ele>
        <time>2013-07-30T09:57:07Z</time>
      </trkpt>
      <trkpt lat="48.70113" lon="2.45787">
        <ele>83</ele>
        <time>2013-07-30T09:57:12Z</time>
      </trkpt>
      <trkpt lat="48.70109" lon="2.45791">
        <ele>83</ele>
        <time>2013-07-30T09:57:14Z</time>
      </trkpt>
      <trkpt lat="48.70105" lon="2.45795">
        <ele>83</ele>
        <time>2013-07-30T09:57:18Z</time>
      </trkpt>
      <trkpt lat="48.70101" lon="2.45801">
        <ele>83</ele>
        <time>2013-07-30T09:57:23Z</time>
      </trkpt>
      <trkpt lat="48.70096" lon="2.45804">
        <ele>83</ele>
        <time>2013-07-30T09:57:27Z</time>
      </trkpt>
      <trkpt lat="48.70092" lon="2.45809">
        <ele>83</ele>
        <time>2013-07-30T09:57:31Z</time>
      </trkpt>
      <trkpt lat="48.70089" lon="2.45813">
        <ele>83</ele>
        <time>2013-07-30T09:57:35Z</time>
      </trkpt>
      <trkpt lat="48.70085" lon="2.45819">
        <ele>84</ele>
        <time>2013-07-30T09:57:39Z</time>
      </trkpt>
      <trkpt lat="48.70081" lon="2.45823">
        <ele>84</ele>
        <time>2013-07-30T09:57:44Z</time>
      </trkpt>
      <trkpt lat="48.70076" lon="2.45826">
        <ele>84</ele>
        <time>2013-07-30T09:57:48Z</time>
      </trkpt>
      <trkpt lat="48.70072" lon="2.45829">
        <ele>84</ele>
        <time>2013-07-30T09:57:54Z</time>
      </trkpt>
      <trkpt lat="48.70067" lon="2.45831">
        <ele>84</ele>
        <time>2013-07-30T09:57:59Z</time>
      </trkpt>
      <trkpt lat="48.70062" lon="2.45833">
        <ele>83</ele>
        <time>2013-07-30T09:58:06Z</time>
      </trkpt>
      <trkpt lat="48.70058" lon="2.45835">
        <ele>84</ele>
        <time>2013-07-30T09:58:14Z</time>
      </trkpt>
      <trkpt lat="48.70054" lon="2.4584">
        <ele>84</ele>
        <time>2013-07-30T09:58:17Z</time>
      </trkpt>
      <trkpt lat="48.70051" lon="2.45844">
        <ele>84</ele>
        <time>2013-07-30T09:58:21Z</time>
      </trkpt>
      <trkpt lat="48.70046" lon="2.45847">
        <ele>84</ele>
        <time>2013-07-30T09:58:26Z</time>
      </trkpt>
      <trkpt lat="48.70041" lon="2.4585">
        <ele>83</ele>
        <time>2013-07-30T09:58:30Z</time>
      </trkpt>
      <trkpt lat="48.70037" lon="2.45856">
        <ele>83</ele>
        <time>2013-07-30T09:58:34Z</time>
      </trkpt>
      <trkpt lat="48.70034" lon="2.45862">
        <ele>83</ele>
        <time>2013-07-30T09:58:38Z</time>
      </trkpt>
      <trkpt lat="48.7003" lon="2.45866">
        <ele>83</ele>
        <time>2013-07-30T09:58:41Z</time>
      </trkpt>
      <trkpt lat="48.70025" lon="2.45871">
        <ele>83</ele>
        <time>2013-07-30T09:58:45Z</time>
      </trkpt>
      <trkpt lat="48.70023" lon="2.45877">
        <ele>84</ele>
        <time>2013-07-30T09:58:49Z</time>
      </trkpt>
      <trkpt lat="48.70019" lon="2.45882">
        <ele>84</ele>
        <time>2013-07-30T09:58:53Z</time>
      </trkpt>
      <trkpt lat="48.70016" lon="2.45887">
        <ele>84</ele>
        <time>2013-07-30T09:58:56Z</time>
      </trkpt>
      <trkpt lat="48.70008" lon="2.45893">
        <ele>84</ele>
        <time>2013-07-30T09:59:06Z</time>
      </trkpt>
      <trkpt lat="48.70004" lon="2.45898">
        <ele>84</ele>
        <time>2013-07-30T09:59:15Z</time>
      </trkpt>
      <trkpt lat="48.69999" lon="2.45903">
        <ele>84</ele>
        <time>2013-07-30T09:59:19Z</time>
      </trkpt>
      <trkpt lat="48.69994" lon="2.45906">
        <ele>84</ele>
        <time>2013-07-30T09:59:25Z</time>
      </trkpt>
      <trkpt lat="48.69989" lon="2.45911">
        <ele>84</ele>
        <time>2013-07-30T09:59:29Z</time>
      </trkpt>
      <trkpt lat="48.69984" lon="2.45916">
        <ele>84</ele>
        <time>2013-07-30T09:59:32Z</time>
      </trkpt>
      <trkpt lat="48.6998" lon="2.45919">
        <ele>84</ele>
        <time>2013-07-30T09:59:34Z</time>
      </trkpt>
      <trkpt lat="48.69975" lon="2.45923">
        <ele>84</ele>
        <time>2013-07-30T09:59:38Z</time>
      </trkpt>
      <trkpt lat="48.6997" lon="2.45926">
        <ele>84</ele>
        <time>2013-07-30T09:59:41Z</time>
      </trkpt>
      <trkpt lat="48.69965" lon="2.4593">
        <ele>84</ele>
        <time>2013-07-30T09:59:44Z</time>
      </trkpt>
      <trkpt lat="48.69961" lon="2.45933">
        <ele>84</ele>
        <time>2013-07-30T09:59:48Z</time>
      </trkpt>
      <trkpt lat="48.69956" lon="2.45937">
        <ele>84</ele>
        <time>2013-07-30T09:59:52Z</time>
      </trkpt>
      <trkpt lat="48.69952" lon="2.45942">
        <ele>84</ele>
        <time>2013-07-30T09:59:58Z</time>
      </trkpt>
      <trkpt lat="48.69948" lon="2.45946">
        <ele>84</ele>
        <time>2013-07-30T10:00:01Z</time>
      </trkpt>
      <trkpt lat="48.69944" lon="2.4595">
        <ele>84</ele>
        <time>2013-07-30T10:00:05Z</time>
      </trkpt>
      <trkpt lat="48.6994" lon="2.45954">
        <ele>84</ele>
        <time>2013-07-30T10:00:09Z</time>
      </trkpt>
      <trkpt lat="48.69935" lon="2.45958">
        <ele>84</ele>
        <time>2013-07-30T10:00:13Z</time>
      </trkpt>
      <trkpt lat="48.69929" lon="2.4596">
        <ele>84</ele>
        <time>2013-07-30T10:00:19Z</time>
      </trkpt>
      <trkpt lat="48.69925" lon="2.45962">
        <ele>84</ele>
        <time>2013-07-30T10:00:23Z</time>
      </trkpt>
      <trkpt lat="48.69921" lon="2.45967">
        <ele>84</ele>
        <time>2013-07-30T10:00:28Z</time>
      </trkpt>
      <trkpt lat="48.69917" lon="2.45971">
        <ele>84</ele>
        <time>2013-07-30T10:00:32Z</time>
      </trkpt>
      <trkpt lat="48.69911" lon="2.45978">
        <ele>84</ele>
        <time>2013-07-30T10:00:41Z</time>
      </trkpt>
      <trkpt lat="48.69908" lon="2.45983">
        <ele>84</ele>
        <time>2013-07-30T10:00:45Z</time>
      </trkpt>
      <trkpt lat="48.69903" lon="2.45987">
        <ele>84</ele>
        <time>2013-07-30T10:00:49Z</time>
      </trkpt>
      <trkpt lat="48.69899" lon="2.45993">
        <ele>84</ele>
        <time>2013-07-30T10:00:52Z</time>
      </trkpt>
      <trkpt lat="48.69896" lon="2.45999">
        <ele>84</ele>
        <time>2013-07-30T10:00:55Z</time>
      </trkpt>
      <trkpt lat="48.69893" lon="2.46005">
        <ele>84</ele>
        <time>2013-07-30T10:01:00Z</time>
      </trkpt>
      <trkpt lat="48.69888" lon="2.46007">
        <ele>84</ele>
        <time>2013-07-30T10:01:06Z</time>
      </trkpt>
      <trkpt lat="48.69884" lon="2.46009">
        <ele>84</ele>
        <time>2013-07-30T10:01:11Z</time>
      </trkpt>
      <trkpt lat="48.6988" lon="2.46007">
        <ele>84</ele>
        <time>2013-07-30T10:01:19Z</time>
      </trkpt>
      <trkpt lat="48.69876" lon="2.46011">
        <ele>84</ele>
        <time>2013-07-30T10:01:25Z</time>
      </trkpt>
      <trkpt lat="48.69874" lon="2.4602">
        <ele>83</ele>
        <time>2013-07-30T10:01:27Z</time>
      </trkpt>
      <trkpt lat="48.69873" lon="2.46027">
        <ele>83</ele>
        <time>2013-07-30T10:01:32Z</time>
      </trkpt>
      <trkpt lat="48.69868" lon="2.46028">
        <ele>83</ele>
        <time>2013-07-30T10:01:44Z</time>
      </trkpt>
      <trkpt lat="48.69865" lon="2.46027">
        <ele>83</ele>
        <time>2013-07-30T10:01:51Z</time>
      </trkpt>
      <trkpt lat="48.69862" lon="2.46033">
        <ele>83</ele>
        <time>2013-07-30T10:02:02Z</time>
      </trkpt>
      <trkpt lat="48.69855" lon="2.46039">
        <ele>83</ele>
        <time>2013-07-30T10:02:07Z</time>
      </trkpt>
      <trkpt lat="48.69851" lon="2.46043">
        <ele>84</ele>
        <time>2013-07-30T10:02:11Z</time>
      </trkpt>
      <trkpt lat="48.69846" lon="2.46048">
        <ele>84</ele>
        <time>2013-07-30T10:02:15Z</time>
      </trkpt>
      <trkpt lat="48.69842" lon="2.46052">
        <ele>84</ele>
        <time>2013-07-30T10:02:18Z</time>
      </trkpt>
      <trkpt lat="48.69837" lon="2.46057">
        <ele>84</ele>
        <time>2013-07-30T10:02:22Z</time>
      </trkpt>
      <trkpt lat="48.69831" lon="2.46063">
        <ele>84</ele>
        <time>2013-07-30T10:02:25Z</time>
      </trkpt>
      <trkpt lat="48.69828" lon="2.46067">
        <ele>84</ele>
        <time>2013-07-30T10:02:27Z</time>
      </trkpt>
      <trkpt lat="48.69824" lon="2.46073">
        <ele>84</ele>
        <time>2013-07-30T10:02:31Z</time>
      </trkpt>
      <trkpt lat="48.69821" lon="2.4608">
        <ele>84</ele>
        <time>2013-07-30T10:02:35Z</time>
      </trkpt>
      <trkpt lat="48.69817" lon="2.46086">
        <ele>84</ele>
        <time>2013-07-30T10:02:39Z</time>
      </trkpt>
      <trkpt lat="48.69812" lon="2.46092">
        <ele>84</ele>
        <time>2013-07-30T10:02:53Z</time>
      </trkpt>
      <trkpt lat="48.69807" lon="2.46097">
        <ele>84</ele>
        <time>2013-07-30T10:02:57Z</time>
      </trkpt>
      <trkpt lat="48.69802" lon="2.46103">
        <ele>85</ele>
        <time>2013-07-30T10:02:59Z</time>
      </trkpt>
      <trkpt lat="48.69798" lon="2.46109">
        <ele>85</ele>
        <time>2013-07-30T10:03:02Z</time>
      </trkpt>
      <trkpt lat="48.69795" lon="2.46113">
        <ele>85</ele>
        <time>2013-07-30T10:03:12Z</time>
      </trkpt>
      <trkpt lat="48.69791" lon="2.46118">
        <ele>85</ele>
        <time>2013-07-30T10:03:22Z</time>
      </trkpt>
      <trkpt lat="48.69787" lon="2.46124">
        <ele>85</ele>
        <time>2013-07-30T10:03:25Z</time>
      </trkpt>
      <trkpt lat="48.69785" lon="2.46129">
        <ele>85</ele>
        <time>2013-07-30T10:03:27Z</time>
      </trkpt>
      <trkpt lat="48.6978" lon="2.46132">
        <ele>85</ele>
        <time>2013-07-30T10:03:30Z</time>
      </trkpt>
      <trkpt lat="48.69775" lon="2.46133">
        <ele>85</ele>
        <time>2013-07-30T10:03:33Z</time>
      </trkpt>
      <trkpt lat="48.69769" lon="2.46134">
        <ele>85</ele>
        <time>2013-07-30T10:03:37Z</time>
      </trkpt>
      <trkpt lat="48.69765" lon="2.46133">
        <ele>85</ele>
        <time>2013-07-30T10:03:47Z</time>
      </trkpt>
      <trkpt lat="48.69759" lon="2.46136">
        <ele>85</ele>
        <time>2013-07-30T10:03:51Z</time>
      </trkpt>
      <trkpt lat="48.69753" lon="2.46138">
        <ele>84</ele>
        <time>2013-07-30T10:03:54Z</time>
      </trkpt>
      <trkpt lat="48.69749" lon="2.46141">
        <ele>85</ele>
        <time>2013-07-30T10:03:56Z</time>
      </trkpt>
      <trkpt lat="48.69745" lon="2.46146">
        <ele>85</ele>
        <time>2013-07-30T10:03:59Z</time>
      </trkpt>
      <trkpt lat="48.6974" lon="2.46151">
        <ele>85</ele>
        <time>2013-07-30T10:04:05Z</time>
      </trkpt>
      <trkpt lat="48.69737" lon="2.46157">
        <ele>85</ele>
        <time>2013-07-30T10:04:09Z</time>
      </trkpt>
      <trkpt lat="48.69733" lon="2.46163">
        <ele>85</ele>
        <time>2013-07-30T10:04:13Z</time>
      </trkpt>
      <trkpt lat="48.69729" lon="2.46169">
        <ele>84</ele>
        <time>2013-07-30T10:04:17Z</time>
      </trkpt>
      <trkpt lat="48.69726" lon="2.46175">
        <ele>84</ele>
        <time>2013-07-30T10:04:21Z</time>
      </trkpt>
      <trkpt lat="48.69723" lon="2.46181">
        <ele>84</ele>
        <time>2013-07-30T10:04:26Z</time>
      </trkpt>
      <trkpt lat="48.69718" lon="2.46182">
        <ele>85</ele>
        <time>2013-07-30T10:04:32Z</time>
      </trkpt>
      <trkpt lat="48.69713" lon="2.46182">
        <ele>85</ele>
        <time>2013-07-30T10:04:38Z</time>
      </trkpt>
      <trkpt lat="48.69711" lon="2.46188">
        <ele>85</ele>
        <time>2013-07-30T10:04:43Z</time>
      </trkpt>
      <trkpt lat="48.69709" lon="2.46196">
        <ele>85</ele>
        <time>2013-07-30T10:04:50Z</time>
      </trkpt>
      <trkpt lat="48.69703" lon="2.46196">
        <ele>85</ele>
        <time>2013-07-30T10:04:59Z</time>
      </trkpt>
      <trkpt lat="48.69699" lon="2.462">
        <ele>85</ele>
        <time>2013-07-30T10:05:03Z</time>
      </trkpt>
      <trkpt lat="48.69696" lon="2.46205">
        <ele>85</ele>
        <time>2013-07-30T10:05:06Z</time>
      </trkpt>
      <trkpt lat="48.69693" lon="2.46212">
        <ele>85</ele>
        <time>2013-07-30T10:05:09Z</time>
      </trkpt>
      <trkpt lat="48.69691" lon="2.46219">
        <ele>84</ele>
        <time>2013-07-30T10:05:13Z</time>
      </trkpt>
      <trkpt lat="48.69686" lon="2.46223">
        <ele>84</ele>
        <time>2013-07-30T10:05:16Z</time>
      </trkpt>
      <trkpt lat="48.69677" lon="2.46223">
        <ele>84</ele>
        <time>2013-07-30T10:05:20Z</time>
      </trkpt>
      <trkpt lat="48.69673" lon="2.46225">
        <ele>84</ele>
        <time>2013-07-30T10:05:23Z</time>
      </trkpt>
      <trkpt lat="48.69668" lon="2.46232">
        <ele>84</ele>
        <time>2013-07-30T10:05:28Z</time>
      </trkpt>
      <trkpt lat="48.69665" lon="2.46237">
        <ele>85</ele>
        <time>2013-07-30T10:05:30Z</time>
      </trkpt>
      <trkpt lat="48.69661" lon="2.46241">
        <ele>85</ele>
        <time>2013-07-30T10:05:33Z</time>
      </trkpt>
      <trkpt lat="48.69658" lon="2.46246">
        <ele>84</ele>
        <time>2013-07-30T10:05:37Z</time>
      </trkpt>
      <trkpt lat="48.69654" lon="2.46253">
        <ele>84</ele>
        <time>2013-07-30T10:05:41Z</time>
      </trkpt>
      <trkpt lat="48.6965" lon="2.46259">
        <ele>84</ele>
        <time>2013-07-30T10:05:46Z</time>
      </trkpt>
      <trkpt lat="48.69646" lon="2.46262">
        <ele>84</ele>
        <time>2013-07-30T10:05:50Z</time>
      </trkpt>
      <trkpt lat="48.69643" lon="2.46267">
        <ele>84</ele>
        <time>2013-07-30T10:05:54Z</time>
      </trkpt>
      <trkpt lat="48.69638" lon="2.46271">
        <ele>84</ele>
        <time>2013-07-30T10:05:59Z</time>
      </trkpt>
      <trkpt lat="48.69633" lon="2.46271">
        <ele>84</ele>
        <time>2013-07-30T10:06:02Z</time>
      </trkpt>
      <trkpt lat="48.69629" lon="2.46273">
        <ele>84</ele>
        <time>2013-07-30T10:06:06Z</time>
      </trkpt>
      <trkpt lat="48.69625" lon="2.4628">
        <ele>85</ele>
        <time>2013-07-30T10:06:13Z</time>
      </trkpt>
      <trkpt lat="48.69621" lon="2.46286">
        <ele>85</ele>
        <time>2013-07-30T10:06:17Z</time>
      </trkpt>
      <trkpt lat="48.69618" lon="2.46291">
        <ele>85</ele>
        <time>2013-07-30T10:06:20Z</time>
      </trkpt>
      <trkpt lat="48.69614" lon="2.46295">
        <ele>85</ele>
        <time>2013-07-30T10:06:25Z</time>
      </trkpt>
      <trkpt lat="48.69611" lon="2.46298">
        <ele>85</ele>
        <time>2013-07-30T10:06:32Z</time>
      </trkpt>
      <trkpt lat="48.69608" lon="2.46303">
        <ele>85</ele>
        <time>2013-07-30T10:07:10Z</time>
      </trkpt>
      <trkpt lat="48.69599" lon="2.4631">
        <ele>85</ele>
        <time>2013-07-30T10:07:40Z</time>
      </trkpt>
      <trkpt lat="48.69595" lon="2.46313">
        <ele>85</ele>
        <time>2013-07-30T10:08:05Z</time>
      </trkpt>
      <trkpt lat="48.69592" lon="2.46319">
        <ele>85</ele>
        <time>2013-07-30T10:08:08Z</time>
      </trkpt>
      <trkpt lat="48.69587" lon="2.4632">
        <ele>85</ele>
        <time>2013-07-30T10:08:12Z</time>
      </trkpt>
      <trkpt lat="48.69582" lon="2.46322">
        <ele>85</ele>
        <time>2013-07-30T10:08:18Z</time>
      </trkpt>
      <trkpt lat="48.69579" lon="2.46326">
        <ele>85</ele>
        <time>2013-07-30T10:08:26Z</time>
      </trkpt>
      <trkpt lat="48.69573" lon="2.46329">
        <ele>85</ele>
        <time>2013-07-30T10:08:44Z</time>
      </trkpt>
      <trkpt lat="48.69569" lon="2.46335">
        <ele>84</ele>
        <time>2013-07-30T10:08:48Z</time>
      </trkpt>
      <trkpt lat="48.69565" lon="2.4634">
        <ele>84</ele>
        <time>2013-07-30T10:08:51Z</time>
      </trkpt>
      <trkpt lat="48.69561" lon="2.46344">
        <ele>84</ele>
        <time>2013-07-30T10:08:56Z</time>
      </trkpt>
      <trkpt lat="48.69556" lon="2.46349">
        <ele>84</ele>
        <time>2013-07-30T10:09:00Z</time>
      </trkpt>
      <trkpt lat="48.69551" lon="2.46354">
        <ele>84</ele>
        <time>2013-07-30T10:09:03Z</time>
      </trkpt>
      <trkpt lat="48.69548" lon="2.46359">
        <ele>84</ele>
        <time>2013-07-30T10:09:07Z</time>
      </trkpt>
      <trkpt lat="48.69544" lon="2.46364">
        <ele>84</ele>
        <time>2013-07-30T10:09:13Z</time>
      </trkpt>
      <trkpt lat="48.6954" lon="2.46367">
        <ele>84</ele>
        <time>2013-07-30T10:09:17Z</time>
      </trkpt>
      <trkpt lat="48.69537" lon="2.46372">
        <ele>84</ele>
        <time>2013-07-30T10:09:21Z</time>
      </trkpt>
      <trkpt lat="48.69532" lon="2.46377">
        <ele>84</ele>
        <time>2013-07-30T10:09:26Z</time>
      </trkpt>
      <trkpt lat="48.69528" lon="2.4638">
        <ele>84</ele>
        <time>2013-07-30T10:09:32Z</time>
      </trkpt>
      <trkpt lat="48.69523" lon="2.4638">
        <ele>84</ele>
        <time>2013-07-30T10:09:36Z</time>
      </trkpt>
      <trkpt lat="48.69518" lon="2.46381">
        <ele>84</ele>
        <time>2013-07-30T10:09:39Z</time>
      </trkpt>
      <trkpt lat="48.69514" lon="2.46385">
        <ele>84</ele>
        <time>2013-07-30T10:09:44Z</time>
      </trkpt>
      <trkpt lat="48.69509" lon="2.46388">
        <ele>84</ele>
        <time>2013-07-30T10:09:49Z</time>
      </trkpt>
      <trkpt lat="48.69506" lon="2.46393">
        <ele>84</ele>
        <time>2013-07-30T10:09:55Z</time>
      </trkpt>
      <trkpt lat="48.69502" lon="2.46398">
        <ele>84</ele>
        <time>2013-07-30T10:10:00Z</time>
      </trkpt>
      <trkpt lat="48.69498" lon="2.46401">
        <ele>85</ele>
        <time>2013-07-30T10:10:05Z</time>
      </trkpt>
      <trkpt lat="48.69494" lon="2.46406">
        <ele>84</ele>
        <time>2013-07-30T10:10:10Z</time>
      </trkpt>
      <trkpt lat="48.6949" lon="2.46411">
        <ele>84</ele>
        <time>2013-07-30T10:10:15Z</time>
      </trkpt>
      <trkpt lat="48.69485" lon="2.46416">
        <ele>85</ele>
        <time>2013-07-30T10:10:20Z</time>
      </trkpt>
      <trkpt lat="48.6947" lon="2.46429">
        <ele>85</ele>
        <time>2013-07-30T10:10:45Z</time>
      </trkpt>
      <trkpt lat="48.69466" lon="2.46432">
        <ele>85</ele>
        <time>2013-07-30T10:10:49Z</time>
      </trkpt>
      <trkpt lat="48.69462" lon="2.46439">
        <ele>85</ele>
        <time>2013-07-30T10:10:55Z</time>
      </trkpt>
      <trkpt lat="48.69457" lon="2.46438">
        <ele>85</ele>
        <time>2013-07-30T10:11:00Z</time>
      </trkpt>
      <trkpt lat="48.69453" lon="2.46434">
        <ele>85</ele>
        <time>2013-07-30T10:11:04Z</time>
      </trkpt>
      <trkpt lat="48.6945" lon="2.46429">
        <ele>85</ele>
        <time>2013-07-30T10:11:09Z</time>
      </trkpt>
      <trkpt lat="48.69445" lon="2.46424">
        <ele>85</ele>
        <time>2013-07-30T10:11:15Z</time>
      </trkpt>
      <trkpt lat="48.6944" lon="2.46424">
        <ele>85</ele>
        <time>2013-07-30T10:11:19Z</time>
      </trkpt>
      <trkpt lat="48.69436" lon="2.4643">
        <ele>85</ele>
        <time>2013-07-30T10:11:24Z</time>
      </trkpt>
      <trkpt lat="48.69434" lon="2.46436">
        <ele>85</ele>
        <time>2013-07-30T10:11:28Z</time>
      </trkpt>
      <trkpt lat="48.69432" lon="2.46444">
        <ele>85</ele>
        <time>2013-07-30T10:11:32Z</time>
      </trkpt>
      <trkpt lat="48.69428" lon="2.4645">
        <ele>85</ele>
        <time>2013-07-30T10:11:35Z</time>
      </trkpt>
      <trkpt lat="48.69425" lon="2.46453">
        <ele>85</ele>
        <time>2013-07-30T10:11:43Z</time>
      </trkpt>
      <trkpt lat="48.6942" lon="2.46454">
        <ele>85</ele>
        <time>2013-07-30T10:11:50Z</time>
      </trkpt>
      <trkpt lat="48.69415" lon="2.46457">
        <ele>87</ele>
        <time>2013-07-30T10:11:53Z</time>
      </trkpt>
      <trkpt lat="48.69411" lon="2.46459">
        <ele>87</ele>
        <time>2013-07-30T10:11:56Z</time>
      </trkpt>
      <trkpt lat="48.69406" lon="2.46462">
        <ele>87</ele>
        <time>2013-07-30T10:12:00Z</time>
      </trkpt>
      <trkpt lat="48.69402" lon="2.46467">
        <ele>87</ele>
        <time>2013-07-30T10:12:04Z</time>
      </trkpt>
      <trkpt lat="48.69398" lon="2.4647">
        <ele>87</ele>
        <time>2013-07-30T10:12:07Z</time>
      </trkpt>
      <trkpt lat="48.69394" lon="2.46474">
        <ele>87</ele>
        <time>2013-07-30T10:12:10Z</time>
      </trkpt>
      <trkpt lat="48.69389" lon="2.46478">
        <ele>87</ele>
        <time>2013-07-30T10:12:16Z</time>
      </trkpt>
      <trkpt lat="48.69384" lon="2.46481">
        <ele>87</ele>
        <time>2013-07-30T10:12:19Z</time>
      </trkpt>
      <trkpt lat="48.69379" lon="2.46485">
        <ele>87</ele>
        <time>2013-07-30T10:12:23Z</time>
      </trkpt>
      <trkpt lat="48.69374" lon="2.46488">
        <ele>87</ele>
        <time>2013-07-30T10:12:26Z</time>
      </trkpt>
      <trkpt lat="48.6937" lon="2.4649">
        <ele>87</ele>
        <time>2013-07-30T10:12:29Z</time>
      </trkpt>
      <trkpt lat="48.69366" lon="2.46495">
        <ele>87</ele>
        <time>2013-07-30T10:12:35Z</time>
      </trkpt>
      <trkpt lat="48.69362" lon="2.46501">
        <ele>86</ele>
        <time>2013-07-30T10:12:40Z</time>
      </trkpt>
      <trkpt lat="48.6936" lon="2.46507">
        <ele>86</ele>
        <time>2013-07-30T10:12:44Z</time>
      </trkpt>
      <trkpt lat="48.69355" lon="2.4651">
        <ele>86</ele>
        <time>2013-07-30T10:12:48Z</time>
      </trkpt>
      <trkpt lat="48.69353" lon="2.46516">
        <ele>86</ele>
        <time>2013-07-30T10:12:52Z</time>
      </trkpt>
      <trkpt lat="48.6935" lon="2.46523">
        <ele>86</ele>
        <time>2013-07-30T10:12:56Z</time>
      </trkpt>
      <trkpt lat="48.69347" lon="2.46526">
        <ele>86</ele>
        <time>2013-07-30T10:13:04Z</time>
      </trkpt>
      <trkpt lat="48.69342" lon="2.46528">
        <ele>86</ele>
        <time>2013-07-30T10:13:07Z</time>
      </trkpt>
      <trkpt lat="48.69336" lon="2.46532">
        <ele>86</ele>
        <time>2013-07-30T10:13:10Z</time>
      </trkpt>
      <trkpt lat="48.69332" lon="2.46535">
        <ele>88</ele>
        <time>2013-07-30T10:13:13Z</time>
      </trkpt>
      <trkpt lat="48.69327" lon="2.46536">
        <ele>88</ele>
        <time>2013-07-30T10:13:18Z</time>
      </trkpt>
      <trkpt lat="48.69325" lon="2.46542">
        <ele>88</ele>
        <time>2013-07-30T10:13:23Z</time>
      </trkpt>
      <trkpt lat="48.69319" lon="2.46547">
        <ele>88</ele>
        <time>2013-07-30T10:13:26Z</time>
      </trkpt>
      <trkpt lat="48.69314" lon="2.46551">
        <ele>88</ele>
        <time>2013-07-30T10:13:29Z</time>
      </trkpt>
      <trkpt lat="48.69309" lon="2.46556">
        <ele>88</ele>
        <time>2013-07-30T10:13:33Z</time>
      </trkpt>
      <trkpt lat="48.69305" lon="2.46561">
        <ele>88</ele>
        <time>2013-07-30T10:13:37Z</time>
      </trkpt>
      <trkpt lat="48.693" lon="2.46564">
        <ele>88</ele>
        <time>2013-07-30T10:13:41Z</time>
      </trkpt>
      <trkpt lat="48.69295" lon="2.46568">
        <ele>88</ele>
        <time>2013-07-30T10:13:45Z</time>
      </trkpt>
      <trkpt lat="48.6929" lon="2.46572">
        <ele>88</ele>
        <time>2013-07-30T10:13:49Z</time>
      </trkpt>
      <trkpt lat="48.69285" lon="2.46575">
        <ele>89</ele>
        <time>2013-07-30T10:13:53Z</time>
      </trkpt>
      <trkpt lat="48.69281" lon="2.46581">
        <ele>89</ele>
        <time>2013-07-30T10:13:58Z</time>
      </trkpt>
      <trkpt lat="48.69278" lon="2.46585">
        <ele>88</ele>
        <time>2013-07-30T10:14:02Z</time>
      </trkpt>
      <trkpt lat="48.69274" lon="2.46588">
        <ele>88</ele>
        <time>2013-07-30T10:14:08Z</time>
      </trkpt>
      <trkpt lat="48.6927" lon="2.46593">
        <ele>88</ele>
        <time>2013-07-30T10:14:13Z</time>
      </trkpt>
      <trkpt lat="48.69266" lon="2.46598">
        <ele>88</ele>
        <time>2013-07-30T10:14:17Z</time>
      </trkpt>
      <trkpt lat="48.69261" lon="2.46603">
        <ele>88</ele>
        <time>2013-07-30T10:14:21Z</time>
      </trkpt>
      <trkpt lat="48.69257" lon="2.46608">
        <ele>88</ele>
        <time>2013-07-30T10:14:25Z</time>
      </trkpt>
      <trkpt lat="48.69252" lon="2.46612">
        <ele>88</ele>
        <time>2013-07-30T10:14:29Z</time>
      </trkpt>
      <trkpt lat="48.69248" lon="2.46617">
        <ele>90</ele>
        <time>2013-07-30T10:14:33Z</time>
      </trkpt>
      <trkpt lat="48.69243" lon="2.46622">
        <ele>90</ele>
        <time>2013-07-30T10:14:38Z</time>
      </trkpt>
      <trkpt lat="48.69239" lon="2.46627">
        <ele>90</ele>
        <time>2013-07-30T10:14:42Z</time>
      </trkpt>
      <trkpt lat="48.69234" lon="2.46631">
        <ele>90</ele>
        <time>2013-07-30T10:14:46Z</time>
      </trkpt>
      <trkpt lat="48.6923" lon="2.46635">
        <ele>90</ele>
        <time>2013-07-30T10:14:50Z</time>
      </trkpt>
      <trkpt lat="48.69225" lon="2.46637">
        <ele>90</ele>
        <time>2013-07-30T10:14:54Z</time>
      </trkpt>
      <trkpt lat="48.69221" lon="2.46643">
        <ele>90</ele>
        <time>2013-07-30T10:14:58Z</time>
      </trkpt>
      <trkpt lat="48.69217" lon="2.46647">
        <ele>90</ele>
        <time>2013-07-30T10:15:02Z</time>
      </trkpt>
      <trkpt lat="48.69213" lon="2.46651">
        <ele>90</ele>
        <time>2013-07-30T10:15:06Z</time>
      </trkpt>
      <trkpt lat="48.69209" lon="2.46657">
        <ele>90</ele>
        <time>2013-07-30T10:15:11Z</time>
      </trkpt>
      <trkpt lat="48.69207" lon="2.46664">
        <ele>90</ele>
        <time>2013-07-30T10:15:15Z</time>
      </trkpt>
      <trkpt lat="48.6921" lon="2.46669">
        <ele>88</ele>
        <time>2013-07-30T10:15:25Z</time>
      </trkpt>
      <trkpt lat="48.69206" lon="2.46672">
        <ele>89</ele>
        <time>2013-07-30T10:15:33Z</time>
      </trkpt>
      <trkpt lat="48.69202" lon="2.46677">
        <ele>89</ele>
        <time>2013-07-30T10:15:41Z</time>
      </trkpt>
      <trkpt lat="48.69198" lon="2.4668">
        <ele>89</ele>
        <time>2013-07-30T10:15:45Z</time>
      </trkpt>
      <trkpt lat="48.69194" lon="2.46682">
        <ele>89</ele>
        <time>2013-07-30T10:15:48Z</time>
      </trkpt>
      <trkpt lat="48.69189" lon="2.46685">
        <ele>89</ele>
        <time>2013-07-30T10:15:51Z</time>
      </trkpt>
      <trkpt lat="48.69184" lon="2.46686">
        <ele>89</ele>
        <time>2013-07-30T10:15:55Z</time>
      </trkpt>
      <trkpt lat="48.6918" lon="2.46689">
        <ele>89</ele>
        <time>2013-07-30T10:16:00Z</time>
      </trkpt>
      <trkpt lat="48.69176" lon="2.46695">
        <ele>89</ele>
        <time>2013-07-30T10:16:05Z</time>
      </trkpt>
      <trkpt lat="48.69173" lon="2.467">
        <ele>89</ele>
        <time>2013-07-30T10:16:10Z</time>
      </trkpt>
      <trkpt lat="48.69169" lon="2.46703">
        <ele>89</ele>
        <time>2013-07-30T10:16:14Z</time>
      </trkpt>
      <trkpt lat="48.69165" lon="2.4671">
        <ele>91</ele>
        <time>2013-07-30T10:16:18Z</time>
      </trkpt>
      <trkpt lat="48.69161" lon="2.46716">
        <ele>91</ele>
        <time>2013-07-30T10:16:22Z</time>
      </trkpt>
      <trkpt lat="48.69157" lon="2.46721">
        <ele>90</ele>
        <time>2013-07-30T10:16:29Z</time>
      </trkpt>
      <trkpt lat="48.69152" lon="2.46726">
        <ele>90</ele>
        <time>2013-07-30T10:16:33Z</time>
      </trkpt>
      <trkpt lat="48.69147" lon="2.46726">
        <ele>90</ele>
        <time>2013-07-30T10:16:38Z</time>
      </trkpt>
      <trkpt lat="48.69143" lon="2.46729">
        <ele>90</ele>
        <time>2013-07-30T10:16:43Z</time>
      </trkpt>
      <trkpt lat="48.69139" lon="2.46733">
        <ele>90</ele>
        <time>2013-07-30T10:16:46Z</time>
      </trkpt>
      <trkpt lat="48.69134" lon="2.46737">
        <ele>91</ele>
        <time>2013-07-30T10:16:50Z</time>
      </trkpt>
      <trkpt lat="48.6913" lon="2.46741">
        <ele>91</ele>
        <time>2013-07-30T10:16:54Z</time>
      </trkpt>
      <trkpt lat="48.69127" lon="2.46747">
        <ele>91</ele>
        <time>2013-07-30T10:16:57Z</time>
      </trkpt>
      <trkpt lat="48.69124" lon="2.46752">
        <ele>90</ele>
        <time>2013-07-30T10:17:00Z</time>
      </trkpt>
      <trkpt lat="48.6912" lon="2.46756">
        <ele>90</ele>
        <time>2013-07-30T10:17:04Z</time>
      </trkpt>
      <trkpt lat="48.69115" lon="2.46759">
        <ele>90</ele>
        <time>2013-07-30T10:17:08Z</time>
      </trkpt>
      <trkpt lat="48.6911" lon="2.4676">
        <ele>90</ele>
        <time>2013-07-30T10:17:12Z</time>
      </trkpt>
      <trkpt lat="48.69105" lon="2.46762">
        <ele>90</ele>
        <time>2013-07-30T10:17:17Z</time>
      </trkpt>
      <trkpt lat="48.691" lon="2.46766">
        <ele>91</ele>
        <time>2013-07-30T10:17:22Z</time>
      </trkpt>
      <trkpt lat="48.69096" lon="2.46769">
        <ele>91</ele>
        <time>2013-07-30T10:17:26Z</time>
      </trkpt>
      <trkpt lat="48.69091" lon="2.46772">
        <ele>91</ele>
        <time>2013-07-30T10:17:31Z</time>
      </trkpt>
      <trkpt lat="48.69086" lon="2.46776">
        <ele>91</ele>
        <time>2013-07-30T10:17:36Z</time>
      </trkpt>
      <trkpt lat="48.69082" lon="2.4678">
        <ele>92</ele>
        <time>2013-07-30T10:17:40Z</time>
      </trkpt>
      <trkpt lat="48.69078" lon="2.46784">
        <ele>92</ele>
        <time>2013-07-30T10:17:44Z</time>
      </trkpt>
      <trkpt lat="48.69073" lon="2.46788">
        <ele>92</ele>
        <time>2013-07-30T10:17:48Z</time>
      </trkpt>
      <trkpt lat="48.69068" lon="2.4679">
        <ele>92</ele>
        <time>2013-07-30T10:17:52Z</time>
      </trkpt>
      <trkpt lat="48.69063" lon="2.46792">
        <ele>92</ele>
        <time>2013-07-30T10:17:56Z</time>
      </trkpt>
      <trkpt lat="48.69058" lon="2.46791">
        <ele>92</ele>
        <time>2013-07-30T10:17:59Z</time>
      </trkpt>
      <trkpt lat="48.69054" lon="2.46788">
        <ele>92</ele>
        <time>2013-07-30T10:18:02Z</time>
      </trkpt>
      <trkpt lat="48.69048" lon="2.46787">
        <ele>92</ele>
        <time>2013-07-30T10:18:06Z</time>
      </trkpt>
      <trkpt lat="48.69043" lon="2.46787">
        <ele>92</ele>
        <time>2013-07-30T10:18:11Z</time>
      </trkpt>
      <trkpt lat="48.69038" lon="2.46782">
        <ele>92</ele>
        <time>2013-07-30T10:18:16Z</time>
      </trkpt>
      <trkpt lat="48.69033" lon="2.4678">
        <ele>92</ele>
        <time>2013-07-30T10:18:19Z</time>
      </trkpt>
      <trkpt lat="48.69028" lon="2.46781">
        <ele>92</ele>
        <time>2013-07-30T10:18:25Z</time>
      </trkpt>
      <trkpt lat="48.69022" lon="2.4678">
        <ele>92</ele>
        <time>2013-07-30T10:18:30Z</time>
      </trkpt>
      <trkpt lat="48.69017" lon="2.46778">
        <ele>92</ele>
        <time>2013-07-30T10:18:34Z</time>
      </trkpt>
      <trkpt lat="48.69011" lon="2.46777">
        <ele>92</ele>
        <time>2013-07-30T10:18:38Z</time>
      </trkpt>
      <trkpt lat="48.69006" lon="2.46775">
        <ele>92</ele>
        <time>2013-07-30T10:18:44Z</time>
      </trkpt>
      <trkpt lat="48.69002" lon="2.46772">
        <ele>92</ele>
        <time>2013-07-30T10:18:48Z</time>
      </trkpt>
      <trkpt lat="48.68997" lon="2.46771">
        <ele>93</ele>
        <time>2013-07-30T10:18:52Z</time>
      </trkpt>
      <trkpt lat="48.68992" lon="2.46768">
        <ele>93</ele>
        <time>2013-07-30T10:18:57Z</time>
      </trkpt>
      <trkpt lat="48.68987" lon="2.46767">
        <ele>93</ele>
        <time>2013-07-30T10:19:01Z</time>
      </trkpt>
      <trkpt lat="48.68982" lon="2.46765">
        <ele>93</ele>
        <time>2013-07-30T10:19:05Z</time>
      </trkpt>
      <trkpt lat="48.68962" lon="2.46761">
        <ele>93</ele>
        <time>2013-07-30T10:19:21Z</time>
      </trkpt>
      <trkpt lat="48.68959" lon="2.46753">
        <ele>93</ele>
        <time>2013-07-30T10:19:28Z</time>
      </trkpt>
      <trkpt lat="48.68954" lon="2.46749">
        <ele>93</ele>
        <time>2013-07-30T10:19:32Z</time>
      </trkpt>
      <trkpt lat="48.6895" lon="2.46747">
        <ele>93</ele>
        <time>2013-07-30T10:19:42Z</time>
      </trkpt>
      <trkpt lat="48.68943" lon="2.46749">
        <ele>93</ele>
        <time>2013-07-30T10:20:03Z</time>
      </trkpt>
      <trkpt lat="48.6894" lon="2.46746">
        <ele>93</ele>
        <time>2013-07-30T10:20:12Z</time>
      </trkpt>
      <trkpt lat="48.68934" lon="2.46744">
        <ele>93</ele>
        <time>2013-07-30T10:20:23Z</time>
      </trkpt>
      <trkpt lat="48.68929" lon="2.46744">
        <ele>93</ele>
        <time>2013-07-30T10:20:28Z</time>
      </trkpt>
      <trkpt lat="48.68924" lon="2.46745">
        <ele>93</ele>
        <time>2013-07-30T10:20:32Z</time>
      </trkpt>
      <trkpt lat="48.68919" lon="2.46745">
        <ele>93</ele>
        <time>2013-07-30T10:20:36Z</time>
      </trkpt>
      <trkpt lat="48.68915" lon="2.46744">
        <ele>93</ele>
        <time>2013-07-30T10:20:54Z</time>
      </trkpt>
      <trkpt lat="48.68911" lon="2.46742">
        <ele>93</ele>
        <time>2013-07-30T10:20:58Z</time>
      </trkpt>
      <trkpt lat="48.68906" lon="2.46742">
        <ele>93</ele>
        <time>2013-07-30T10:21:02Z</time>
      </trkpt>
      <trkpt lat="48.68901" lon="2.46738">
        <ele>93</ele>
        <time>2013-07-30T10:21:06Z</time>
      </trkpt>
      <trkpt lat="48.68896" lon="2.46736">
        <ele>93</ele>
        <time>2013-07-30T10:21:10Z</time>
      </trkpt>
      <trkpt lat="48.68891" lon="2.46733">
        <ele>93</ele>
        <time>2013-07-30T10:21:15Z</time>
      </trkpt>
      <trkpt lat="48.68887" lon="2.46729">
        <ele>93</ele>
        <time>2013-07-30T10:21:19Z</time>
      </trkpt>
      <trkpt lat="48.68882" lon="2.46728">
        <ele>93</ele>
        <time>2013-07-30T10:21:24Z</time>
      </trkpt>
      <trkpt lat="48.68882" lon="2.46734">
        <ele>93</ele>
        <time>2013-07-30T10:21:41Z</time>
      </trkpt>
      <trkpt lat="48.68878" lon="2.4673">
        <ele>93</ele>
        <time>2013-07-30T10:21:51Z</time>
      </trkpt>
      <trkpt lat="48.68875" lon="2.46725">
        <ele>92</ele>
        <time>2013-07-30T10:22:19Z</time>
      </trkpt>
      <trkpt lat="48.68869" lon="2.46723">
        <ele>92</ele>
        <time>2013-07-30T10:22:22Z</time>
      </trkpt>
      <trkpt lat="48.68864" lon="2.46718">
        <ele>92</ele>
        <time>2013-07-30T10:22:25Z</time>
      </trkpt>
      <trkpt lat="48.68858" lon="2.46715">
        <ele>92</ele>
        <time>2013-07-30T10:22:28Z</time>
      </trkpt>
      <trkpt lat="48.68852" lon="2.46712">
        <ele>92</ele>
        <time>2013-07-30T10:22:31Z</time>
      </trkpt>
      <trkpt lat="48.68846" lon="2.46709">
        <ele>92</ele>
        <time>2013-07-30T10:22:34Z</time>
      </trkpt>
      <trkpt lat="48.68842" lon="2.46709">
        <ele>92</ele>
        <time>2013-07-30T10:22:37Z</time>
      </trkpt>
      <trkpt lat="48.68836" lon="2.46709">
        <ele>92</ele>
        <time>2013-07-30T10:22:41Z</time>
      </trkpt>
      <trkpt lat="48.68828" lon="2.46712">
        <ele>92</ele>
        <time>2013-07-30T10:22:44Z</time>
      </trkpt>
      <trkpt lat="48.68825" lon="2.46716">
        <ele>92</ele>
        <time>2013-07-30T10:22:52Z</time>
      </trkpt>
      <trkpt lat="48.6882" lon="2.46714">
        <ele>92</ele>
        <time>2013-07-30T10:23:19Z</time>
      </trkpt>
      <trkpt lat="48.68821" lon="2.4671">
        <ele>91</ele>
        <time>2013-07-30T10:23:42Z</time>
      </trkpt>
      <trkpt lat="48.68817" lon="2.46706">
        <ele>91</ele>
        <time>2013-07-30T10:23:58Z</time>
      </trkpt>
      <trkpt lat="48.68813" lon="2.46702">
        <ele>91</ele>
        <time>2013-07-30T10:24:03Z</time>
      </trkpt>
      <trkpt lat="48.68808" lon="2.46699">
        <ele>91</ele>
        <time>2013-07-30T10:24:07Z</time>
      </trkpt>
      <trkpt lat="48.68803" lon="2.46698">
        <ele>91</ele>
        <time>2013-07-30T10:24:11Z</time>
      </trkpt>
      <trkpt lat="48.68798" lon="2.46695">
        <ele>91</ele>
        <time>2013-07-30T10:24:17Z</time>
      </trkpt>
      <trkpt lat="48.68792" lon="2.46694">
        <ele>91</ele>
        <time>2013-07-30T10:24:21Z</time>
      </trkpt>
      <trkpt lat="48.68785" lon="2.46694">
        <ele>91</ele>
        <time>2013-07-30T10:24:27Z</time>
      </trkpt>
      <trkpt lat="48.6878" lon="2.46694">
        <ele>91</ele>
        <time>2013-07-30T10:24:35Z</time>
      </trkpt>
      <trkpt lat="48.68774" lon="2.46691">
        <ele>91</ele>
        <time>2013-07-30T10:24:39Z</time>
      </trkpt>
      <trkpt lat="48.68769" lon="2.46684">
        <ele>91</ele>
        <time>2013-07-30T10:24:43Z</time>
      </trkpt>
      <trkpt lat="48.68764" lon="2.46681">
        <ele>90</ele>
        <time>2013-07-30T10:24:48Z</time>
      </trkpt>
      <trkpt lat="48.68759" lon="2.46676">
        <ele>90</ele>
        <time>2013-07-30T10:24:52Z</time>
      </trkpt>
      <trkpt lat="48.68755" lon="2.46672">
        <ele>90</ele>
        <time>2013-07-30T10:24:55Z</time>
      </trkpt>
      <trkpt lat="48.6875" lon="2.46675">
        <ele>89</ele>
        <time>2013-07-30T10:25:00Z</time>
      </trkpt>
      <trkpt lat="48.68745" lon="2.46677">
        <ele>89</ele>
        <time>2013-07-30T10:25:04Z</time>
      </trkpt>
      <trkpt lat="48.68738" lon="2.46666">
        <ele>89</ele>
        <time>2013-07-30T10:25:12Z</time>
      </trkpt>
      <trkpt lat="48.68734" lon="2.46661">
        <ele>89</ele>
        <time>2013-07-30T10:25:15Z</time>
      </trkpt>
      <trkpt lat="48.68734" lon="2.46654">
        <ele>89</ele>
        <time>2013-07-30T10:25:20Z</time>
      </trkpt>
      <trkpt lat="48.68735" lon="2.46646">
        <ele>89</ele>
        <time>2013-07-30T10:25:25Z</time>
      </trkpt>
      <trkpt lat="48.68735" lon="2.46639">
        <ele>89</ele>
        <time>2013-07-30T10:25:30Z</time>
      </trkpt>
      <trkpt lat="48.68736" lon="2.4663">
        <ele>89</ele>
        <time>2013-07-30T10:25:35Z</time>
      </trkpt>
      <trkpt lat="48.68736" lon="2.46623">
        <ele>89</ele>
        <time>2013-07-30T10:25:39Z</time>
      </trkpt>
      <trkpt lat="48.68734" lon="2.46618">
        <ele>89</ele>
        <time>2013-07-30T10:25:44Z</time>
      </trkpt>
      <trkpt lat="48.68729" lon="2.46622">
        <ele>89</ele>
        <time>2013-07-30T10:25:49Z</time>
      </trkpt>
      <trkpt lat="48.68725" lon="2.46624">
        <ele>89</ele>
        <time>2013-07-30T10:25:52Z</time>
      </trkpt>
      <trkpt lat="48.68719" lon="2.46627">
        <ele>89</ele>
        <time>2013-07-30T10:25:54Z</time>
      </trkpt>
      <trkpt lat="48.68714" lon="2.46629">
        <ele>89</ele>
        <time>2013-07-30T10:25:56Z</time>
      </trkpt>
      <trkpt lat="48.68709" lon="2.46632">
        <ele>89</ele>
        <time>2013-07-30T10:25:59Z</time>
      </trkpt>
      <trkpt lat="48.68704" lon="2.46634">
        <ele>89</ele>
        <time>2013-07-30T10:26:01Z</time>
      </trkpt>
      <trkpt lat="48.68708" lon="2.46636">
        <ele>89</ele>
        <time>2013-07-30T10:26:26Z</time>
      </trkpt>
      <trkpt lat="48.68712" lon="2.46632">
        <ele>89</ele>
        <time>2013-07-30T10:26:30Z</time>
      </trkpt>
      <trkpt lat="48.68713" lon="2.46631">
        <ele>89</ele>
        <time>2013-07-30T10:27:35Z</time>
      </trkpt>
      <trkpt lat="48.68715" lon="2.46631">
        <ele>89</ele>
        <time>2013-07-30T10:31:23Z</time>
      </trkpt>
      <trkpt lat="48.68721" lon="2.46633">
        <ele>89</ele>
        <time>2013-07-30T10:31:34Z</time>
      </trkpt>
      <trkpt lat="48.68722" lon="2.46628">
        <ele>89</ele>
        <time>2013-07-30T10:33:22Z</time>
      </trkpt>
      <trkpt lat="48.68716" lon="2.46625">
        <ele>89</ele>
        <time>2013-07-30T10:34:11Z</time>
      </trkpt>
      <trkpt lat="48.68715" lon="2.46631">
        <ele>89</ele>
        <time>2013-07-30T10:36:20Z</time>
      </trkpt>
      <trkpt lat="48.68708" lon="2.46633">
        <ele>89</ele>
        <time>2013-07-30T10:43:52Z</time>
      </trkpt>
      <trkpt lat="48.68709" lon="2.46632">
        <ele>89</ele>
        <time>2013-07-30T10:45:40Z</time>
      </trkpt>
      <trkpt lat="48.68714" lon="2.4663">
        <ele>89</ele>
        <time>2013-07-30T10:45:45Z</time>
      </trkpt>
      <trkpt lat="48.68719" lon="2.46631">
        <ele>89</ele>
        <time>2013-07-30T10:45:50Z</time>
      </trkpt>
      <trkpt lat="48.68724" lon="2.46632">
        <ele>89</ele>
        <time>2013-07-30T10:45:56Z</time>
      </trkpt>
      <trkpt lat="48.68727" lon="2.46633">
        <ele>89</ele>
        <time>2013-07-30T10:46:03Z</time>
      </trkpt>
      <trkpt lat="48.68726" lon="2.46639">
        <ele>89</ele>
        <time>2013-07-30T10:46:12Z</time>
      </trkpt>
      <trkpt lat="48.68723" lon="2.46646">
        <ele>89</ele>
        <time>2013-07-30T10:46:18Z</time>
      </trkpt>
      <trkpt lat="48.68719" lon="2.46651">
        <ele>89</ele>
        <time>2013-07-30T10:46:22Z</time>
      </trkpt>
      <trkpt lat="48.68715" lon="2.46655">
        <ele>89</ele>
        <time>2013-07-30T10:46:26Z</time>
      </trkpt>
      <trkpt lat="48.68711" lon="2.46659">
        <ele>89</ele>
        <time>2013-07-30T10:46:30Z</time>
      </trkpt>
      <trkpt lat="48.68707" lon="2.46663">
        <ele>89</ele>
        <time>2013-07-30T10:46:34Z</time>
      </trkpt>
      <trkpt lat="48.68701" lon="2.46668">
        <ele>89</ele>
        <time>2013-07-30T10:46:38Z</time>
      </trkpt>
      <trkpt lat="48.68696" lon="2.4667">
        <ele>89</ele>
        <time>2013-07-30T10:46:40Z</time>
      </trkpt>
      <trkpt lat="48.68691" lon="2.46669">
        <ele>89</ele>
        <time>2013-07-30T10:46:43Z</time>
      </trkpt>
      <trkpt lat="48.68689" lon="2.46663">
        <ele>89</ele>
        <time>2013-07-30T10:46:46Z</time>
      </trkpt>
      <trkpt lat="48.68686" lon="2.46655">
        <ele>89</ele>
        <time>2013-07-30T10:46:50Z</time>
      </trkpt>
      <trkpt lat="48.68682" lon="2.4665">
        <ele>89</ele>
        <time>2013-07-30T10:46:55Z</time>
      </trkpt>
      <trkpt lat="48.68678" lon="2.46647">
        <ele>89</ele>
        <time>2013-07-30T10:47:02Z</time>
      </trkpt>
      <trkpt lat="48.68675" lon="2.46653">
        <ele>89</ele>
        <time>2013-07-30T10:47:08Z</time>
      </trkpt>
      <trkpt lat="48.68672" lon="2.46659">
        <ele>89</ele>
        <time>2013-07-30T10:47:12Z</time>
      </trkpt>
      <trkpt lat="48.68667" lon="2.46662">
        <ele>89</ele>
        <time>2013-07-30T10:47:16Z</time>
      </trkpt>
      <trkpt lat="48.68663" lon="2.46666">
        <ele>89</ele>
        <time>2013-07-30T10:47:21Z</time>
      </trkpt>
      <trkpt lat="48.68656" lon="2.46669">
        <ele>89</ele>
        <time>2013-07-30T10:47:31Z</time>
      </trkpt>
      <trkpt lat="48.6865" lon="2.46669">
        <ele>89</ele>
        <time>2013-07-30T10:47:35Z</time>
      </trkpt>
      <trkpt lat="48.68645" lon="2.46669">
        <ele>89</ele>
        <time>2013-07-30T10:47:39Z</time>
      </trkpt>
      <trkpt lat="48.6864" lon="2.46671">
        <ele>89</ele>
        <time>2013-07-30T10:47:43Z</time>
      </trkpt>
      <trkpt lat="48.68641" lon="2.46681">
        <ele>89</ele>
        <time>2013-07-30T10:47:52Z</time>
      </trkpt>
      <trkpt lat="48.68638" lon="2.46685">
        <ele>89</ele>
        <time>2013-07-30T10:47:55Z</time>
      </trkpt>
      <trkpt lat="48.68633" lon="2.46688">
        <ele>89</ele>
        <time>2013-07-30T10:47:59Z</time>
      </trkpt>
      <trkpt lat="48.68628" lon="2.46692">
        <ele>89</ele>
        <time>2013-07-30T10:48:04Z</time>
      </trkpt>
      <trkpt lat="48.68623" lon="2.46704">
        <ele>89</ele>
        <time>2013-07-30T10:48:12Z</time>
      </trkpt>
      <trkpt lat="48.68619" lon="2.4671">
        <ele>89</ele>
        <time>2013-07-30T10:48:17Z</time>
      </trkpt>
      <trkpt lat="48.68615" lon="2.46713">
        <ele>89</ele>
        <time>2013-07-30T10:48:21Z</time>
      </trkpt>
      <trkpt lat="48.68612" lon="2.46716">
        <ele>89</ele>
        <time>2013-07-30T10:48:30Z</time>
      </trkpt>
      <trkpt lat="48.68605" lon="2.46722">
        <ele>89</ele>
        <time>2013-07-30T10:48:47Z</time>
      </trkpt>
      <trkpt lat="48.68601" lon="2.46726">
        <ele>89</ele>
        <time>2013-07-30T10:48:49Z</time>
      </trkpt>
      <trkpt lat="48.68595" lon="2.46728">
        <ele>89</ele>
        <time>2013-07-30T10:48:53Z</time>
      </trkpt>
      <trkpt lat="48.6859" lon="2.4673">
        <ele>89</ele>
        <time>2013-07-30T10:48:56Z</time>
      </trkpt>
      <trkpt lat="48.68591" lon="2.46737">
        <ele>90</ele>
        <time>2013-07-30T10:49:04Z</time>
      </trkpt>
      <trkpt lat="48.68593" lon="2.46744">
        <ele>90</ele>
        <time>2013-07-30T10:49:10Z</time>
      </trkpt>
      <trkpt lat="48.68588" lon="2.46749">
        <ele>90</ele>
        <time>2013-07-30T10:49:15Z</time>
      </trkpt>
      <trkpt lat="48.68584" lon="2.46751">
        <ele>90</ele>
        <time>2013-07-30T10:49:22Z</time>
      </trkpt>
      <trkpt lat="48.6858" lon="2.46756">
        <ele>90</ele>
        <time>2013-07-30T10:49:27Z</time>
      </trkpt>
      <trkpt lat="48.68576" lon="2.46761">
        <ele>90</ele>
        <time>2013-07-30T10:49:32Z</time>
      </trkpt>
      <trkpt lat="48.68572" lon="2.46767">
        <ele>90</ele>
        <time>2013-07-30T10:49:36Z</time>
      </trkpt>
      <trkpt lat="48.68569" lon="2.46774">
        <ele>90</ele>
        <time>2013-07-30T10:49:41Z</time>
      </trkpt>
      <trkpt lat="48.68566" lon="2.4678">
        <ele>90</ele>
        <time>2013-07-30T10:49:48Z</time>
      </trkpt>
      <trkpt lat="48.68564" lon="2.46784">
        <ele>90</ele>
        <time>2013-07-30T10:49:54Z</time>
      </trkpt>
      <trkpt lat="48.68561" lon="2.46789">
        <ele>90</ele>
        <time>2013-07-30T10:50:03Z</time>
      </trkpt>
      <trkpt lat="48.68557" lon="2.46794">
        <ele>90</ele>
        <time>2013-07-30T10:50:07Z</time>
      </trkpt>
      <trkpt lat="48.68554" lon="2.468">
        <ele>90</ele>
        <time>2013-07-30T10:50:12Z</time>
      </trkpt>
      <trkpt lat="48.68551" lon="2.46806">
        <ele>90</ele>
        <time>2013-07-30T10:50:17Z</time>
      </trkpt>
      <trkpt lat="48.68546" lon="2.46809">
        <ele>90</ele>
        <time>2013-07-30T10:50:21Z</time>
      </trkpt>
      <trkpt lat="48.68542" lon="2.46812">
        <ele>90</ele>
        <time>2013-07-30T10:50:25Z</time>
      </trkpt>
      <trkpt lat="48.68538" lon="2.46817">
        <ele>90</ele>
        <time>2013-07-30T10:50:29Z</time>
      </trkpt>
      <trkpt lat="48.68535" lon="2.46825">
        <ele>90</ele>
        <time>2013-07-30T10:50:33Z</time>
      </trkpt>
      <trkpt lat="48.68532" lon="2.46831">
        <ele>90</ele>
        <time>2013-07-30T10:50:37Z</time>
      </trkpt>
      <trkpt lat="48.68528" lon="2.46837">
        <ele>90</ele>
        <time>2013-07-30T10:50:45Z</time>
      </trkpt>
      <trkpt lat="48.68523" lon="2.46839">
        <ele>90</ele>
        <time>2013-07-30T10:50:49Z</time>
      </trkpt>
      <trkpt lat="48.68517" lon="2.46839">
        <ele>90</ele>
        <time>2013-07-30T10:50:53Z</time>
      </trkpt>
      <trkpt lat="48.68514" lon="2.46845">
        <ele>90</ele>
        <time>2013-07-30T10:51:00Z</time>
      </trkpt>
      <trkpt lat="48.6851" lon="2.4685">
        <ele>90</ele>
        <time>2013-07-30T10:51:06Z</time>
      </trkpt>
      <trkpt lat="48.68507" lon="2.46855">
        <ele>90</ele>
        <time>2013-07-30T10:51:11Z</time>
      </trkpt>
      <trkpt lat="48.68502" lon="2.46861">
        <ele>90</ele>
        <time>2013-07-30T10:51:17Z</time>
      </trkpt>
      <trkpt lat="48.68499" lon="2.46867">
        <ele>89</ele>
        <time>2013-07-30T10:51:34Z</time>
      </trkpt>
      <trkpt lat="48.68495" lon="2.46871">
        <ele>89</ele>
        <time>2013-07-30T10:51:38Z</time>
      </trkpt>
      <trkpt lat="48.68491" lon="2.46875">
        <ele>89</ele>
        <time>2013-07-30T10:51:42Z</time>
      </trkpt>
      <trkpt lat="48.68487" lon="2.4688">
        <ele>89</ele>
        <time>2013-07-30T10:51:46Z</time>
      </trkpt>
      <trkpt lat="48.68485" lon="2.46888">
        <ele>89</ele>
        <time>2013-07-30T10:51:50Z</time>
      </trkpt>
      <trkpt lat="48.68482" lon="2.46894">
        <ele>89</ele>
        <time>2013-07-30T10:51:54Z</time>
      </trkpt>
      <trkpt lat="48.68478" lon="2.46898">
        <ele>89</ele>
        <time>2013-07-30T10:51:58Z</time>
      </trkpt>
      <trkpt lat="48.68474" lon="2.46904">
        <ele>89</ele>
        <time>2013-07-30T10:52:02Z</time>
      </trkpt>
      <trkpt lat="48.6847" lon="2.46908">
        <ele>89</ele>
        <time>2013-07-30T10:52:05Z</time>
      </trkpt>
      <trkpt lat="48.68466" lon="2.46913">
        <ele>89</ele>
        <time>2013-07-30T10:52:09Z</time>
      </trkpt>
      <trkpt lat="48.68461" lon="2.46916">
        <ele>89</ele>
        <time>2013-07-30T10:52:13Z</time>
      </trkpt>
      <trkpt lat="48.68457" lon="2.46921">
        <ele>88</ele>
        <time>2013-07-30T10:52:17Z</time>
      </trkpt>
      <trkpt lat="48.68453" lon="2.46925">
        <ele>88</ele>
        <time>2013-07-30T10:52:21Z</time>
      </trkpt>
      <trkpt lat="48.68449" lon="2.46929">
        <ele>88</ele>
        <time>2013-07-30T10:52:25Z</time>
      </trkpt>
      <trkpt lat="48.68444" lon="2.46931">
        <ele>88</ele>
        <time>2013-07-30T10:52:28Z</time>
      </trkpt>
      <trkpt lat="48.6844" lon="2.46936">
        <ele>88</ele>
        <time>2013-07-30T10:52:32Z</time>
      </trkpt>
      <trkpt lat="48.68437" lon="2.46939">
        <ele>88</ele>
        <time>2013-07-30T10:52:36Z</time>
      </trkpt>
      <trkpt lat="48.68431" lon="2.46941">
        <ele>88</ele>
        <time>2013-07-30T10:52:40Z</time>
      </trkpt>
      <trkpt lat="48.68427" lon="2.46945">
        <ele>88</ele>
        <time>2013-07-30T10:52:44Z</time>
      </trkpt>
      <trkpt lat="48.68424" lon="2.46949">
        <ele>88</ele>
        <time>2013-07-30T10:52:48Z</time>
      </trkpt>
      <trkpt lat="48.6842" lon="2.46954">
        <ele>88</ele>
        <time>2013-07-30T10:52:53Z</time>
      </trkpt>
      <trkpt lat="48.6842" lon="2.46962">
        <ele>88</ele>
        <time>2013-07-30T10:53:00Z</time>
      </trkpt>
      <trkpt lat="48.68416" lon="2.46968">
        <ele>88</ele>
        <time>2013-07-30T10:53:05Z</time>
      </trkpt>
      <trkpt lat="48.68412" lon="2.46973">
        <ele>87</ele>
        <time>2013-07-30T10:53:09Z</time>
      </trkpt>
      <trkpt lat="48.68409" lon="2.46978">
        <ele>87</ele>
        <time>2013-07-30T10:53:13Z</time>
      </trkpt>
      <trkpt lat="48.68405" lon="2.46983">
        <ele>87</ele>
        <time>2013-07-30T10:53:17Z</time>
      </trkpt>
      <trkpt lat="48.68402" lon="2.46989">
        <ele>87</ele>
        <time>2013-07-30T10:53:23Z</time>
      </trkpt>
      <trkpt lat="48.68398" lon="2.46994">
        <ele>87</ele>
        <time>2013-07-30T10:53:27Z</time>
      </trkpt>
      <trkpt lat="48.68394" lon="2.46999">
        <ele>87</ele>
        <time>2013-07-30T10:53:33Z</time>
      </trkpt>
      <trkpt lat="48.68388" lon="2.4701">
        <ele>87</ele>
        <time>2013-07-30T10:53:43Z</time>
      </trkpt>
      <trkpt lat="48.68384" lon="2.47014">
        <ele>87</ele>
        <time>2013-07-30T10:53:46Z</time>
      </trkpt>
      <trkpt lat="48.6838" lon="2.47017">
        <ele>87</ele>
        <time>2013-07-30T10:53:49Z</time>
      </trkpt>
      <trkpt lat="48.68375" lon="2.47022">
        <ele>87</ele>
        <time>2013-07-30T10:53:53Z</time>
      </trkpt>
      <trkpt lat="48.68372" lon="2.47027">
        <ele>87</ele>
        <time>2013-07-30T10:53:58Z</time>
      </trkpt>
      <trkpt lat="48.68369" lon="2.47033">
        <ele>87</ele>
        <time>2013-07-30T10:54:04Z</time>
      </trkpt>
      <trkpt lat="48.68365" lon="2.47039">
        <ele>87</ele>
        <time>2013-07-30T10:54:08Z</time>
      </trkpt>
      <trkpt lat="48.68362" lon="2.47044">
        <ele>87</ele>
        <time>2013-07-30T10:54:12Z</time>
      </trkpt>
      <trkpt lat="48.68356" lon="2.47045">
        <ele>87</ele>
        <time>2013-07-30T10:54:15Z</time>
      </trkpt>
      <trkpt lat="48.68353" lon="2.4705">
        <ele>87</ele>
        <time>2013-07-30T10:54:20Z</time>
      </trkpt>
      <trkpt lat="48.68348" lon="2.47053">
        <ele>87</ele>
        <time>2013-07-30T10:54:24Z</time>
      </trkpt>
      <trkpt lat="48.68344" lon="2.47058">
        <ele>87</ele>
        <time>2013-07-30T10:54:28Z</time>
      </trkpt>
      <trkpt lat="48.6834" lon="2.47063">
        <ele>87</ele>
        <time>2013-07-30T10:54:32Z</time>
      </trkpt>
      <trkpt lat="48.68335" lon="2.47067">
        <ele>87</ele>
        <time>2013-07-30T10:54:36Z</time>
      </trkpt>
      <trkpt lat="48.68331" lon="2.4707">
        <ele>86</ele>
        <time>2013-07-30T10:54:41Z</time>
      </trkpt>
      <trkpt lat="48.68327" lon="2.47076">
        <ele>86</ele>
        <time>2013-07-30T10:54:45Z</time>
      </trkpt>
      <trkpt lat="48.68325" lon="2.47083">
        <ele>86</ele>
        <time>2013-07-30T10:54:49Z</time>
      </trkpt>
      <trkpt lat="48.68322" lon="2.4709">
        <ele>86</ele>
        <time>2013-07-30T10:54:54Z</time>
      </trkpt>
      <trkpt lat="48.68318" lon="2.47096">
        <ele>86</ele>
        <time>2013-07-30T10:54:58Z</time>
      </trkpt>
      <trkpt lat="48.68315" lon="2.47102">
        <ele>86</ele>
        <time>2013-07-30T10:55:02Z</time>
      </trkpt>
      <trkpt lat="48.68311" lon="2.47107">
        <ele>86</ele>
        <time>2013-07-30T10:55:07Z</time>
      </trkpt>
      <trkpt lat="48.68307" lon="2.47112">
        <ele>86</ele>
        <time>2013-07-30T10:55:12Z</time>
      </trkpt>
      <trkpt lat="48.68304" lon="2.47117">
        <ele>86</ele>
        <time>2013-07-30T10:55:17Z</time>
      </trkpt>
      <trkpt lat="48.683" lon="2.47118">
        <ele>86</ele>
        <time>2013-07-30T10:55:22Z</time>
      </trkpt>
      <trkpt lat="48.68296" lon="2.47122">
        <ele>86</ele>
        <time>2013-07-30T10:55:26Z</time>
      </trkpt>
      <trkpt lat="48.68292" lon="2.47127">
        <ele>86</ele>
        <time>2013-07-30T10:55:30Z</time>
      </trkpt>
      <trkpt lat="48.68288" lon="2.47131">
        <ele>86</ele>
        <time>2013-07-30T10:55:33Z</time>
      </trkpt>
      <trkpt lat="48.68284" lon="2.47137">
        <ele>86</ele>
        <time>2013-07-30T10:55:37Z</time>
      </trkpt>
      <trkpt lat="48.68279" lon="2.4714">
        <ele>86</ele>
        <time>2013-07-30T10:55:41Z</time>
      </trkpt>
      <trkpt lat="48.68275" lon="2.47144">
        <ele>86</ele>
        <time>2013-07-30T10:55:45Z</time>
      </trkpt>
      <trkpt lat="48.68274" lon="2.47147">
        <ele>86</ele>
        <time>2013-07-30T10:55:51Z</time>
      </trkpt>
      <trkpt lat="48.68273" lon="2.47152">
        <ele>86</ele>
        <time>2013-07-30T10:56:25Z</time>
      </trkpt>
      <trkpt lat="48.68269" lon="2.47158">
        <ele>86</ele>
        <time>2013-07-30T10:56:35Z</time>
      </trkpt>
      <trkpt lat="48.68265" lon="2.47164">
        <ele>86</ele>
        <time>2013-07-30T10:56:39Z</time>
      </trkpt>
      <trkpt lat="48.68261" lon="2.47168">
        <ele>86</ele>
        <time>2013-07-30T10:56:43Z</time>
      </trkpt>
      <trkpt lat="48.68257" lon="2.47171">
        <ele>86</ele>
        <time>2013-07-30T10:56:47Z</time>
      </trkpt>
      <trkpt lat="48.68253" lon="2.47175">
        <ele>86</ele>
        <time>2013-07-30T10:56:52Z</time>
      </trkpt>
      <trkpt lat="48.68248" lon="2.47178">
        <ele>86</ele>
        <time>2013-07-30T10:56:57Z</time>
      </trkpt>
      <trkpt lat="48.68245" lon="2.47184">
        <ele>86</ele>
        <time>2013-07-30T10:57:02Z</time>
      </trkpt>
      <trkpt lat="48.68242" lon="2.47189">
        <ele>86</ele>
        <time>2013-07-30T10:57:07Z</time>
      </trkpt>
      <trkpt lat="48.68238" lon="2.47195">
        <ele>86</ele>
        <time>2013-07-30T10:57:12Z</time>
      </trkpt>
      <trkpt lat="48.68234" lon="2.472">
        <ele>86</ele>
        <time>2013-07-30T10:57:17Z</time>
      </trkpt>
      <trkpt lat="48.6823" lon="2.47206">
        <ele>86</ele>
        <time>2013-07-30T10:57:21Z</time>
      </trkpt>
      <trkpt lat="48.68226" lon="2.47211">
        <ele>86</ele>
        <time>2013-07-30T10:57:23Z</time>
      </trkpt>
      <trkpt lat="48.68222" lon="2.47215">
        <ele>86</ele>
        <time>2013-07-30T10:57:25Z</time>
      </trkpt>
      <trkpt lat="48.68221" lon="2.47222">
        <ele>85</ele>
        <time>2013-07-30T10:57:30Z</time>
      </trkpt>
      <trkpt lat="48.68217" lon="2.47227">
        <ele>85</ele>
        <time>2013-07-30T10:57:35Z</time>
      </trkpt>
      <trkpt lat="48.68214" lon="2.47232">
        <ele>85</ele>
        <time>2013-07-30T10:57:40Z</time>
      </trkpt>
      <trkpt lat="48.6821" lon="2.47237">
        <ele>85</ele>
        <time>2013-07-30T10:57:45Z</time>
      </trkpt>
      <trkpt lat="48.68207" lon="2.47243">
        <ele>86</ele>
        <time>2013-07-30T10:57:49Z</time>
      </trkpt>
      <trkpt lat="48.68203" lon="2.47247">
        <ele>86</ele>
        <time>2013-07-30T10:57:54Z</time>
      </trkpt>
      <trkpt lat="48.68198" lon="2.47251">
        <ele>85</ele>
        <time>2013-07-30T10:58:00Z</time>
      </trkpt>
      <trkpt lat="48.68195" lon="2.47256">
        <ele>85</ele>
        <time>2013-07-30T10:58:05Z</time>
      </trkpt>
      <trkpt lat="48.68192" lon="2.47263">
        <ele>85</ele>
        <time>2013-07-30T10:58:10Z</time>
      </trkpt>
      <trkpt lat="48.68188" lon="2.47267">
        <ele>86</ele>
        <time>2013-07-30T10:58:13Z</time>
      </trkpt>
      <trkpt lat="48.68184" lon="2.47269">
        <ele>86</ele>
        <time>2013-07-30T10:58:15Z</time>
      </trkpt>
      <trkpt lat="48.68179" lon="2.4727">
        <ele>86</ele>
        <time>2013-07-30T10:58:19Z</time>
      </trkpt>
      <trkpt lat="48.68176" lon="2.47276">
        <ele>86</ele>
        <time>2013-07-30T10:58:27Z</time>
      </trkpt>
      <trkpt lat="48.68173" lon="2.47284">
        <ele>86</ele>
        <time>2013-07-30T10:58:33Z</time>
      </trkpt>
      <trkpt lat="48.68171" lon="2.4729">
        <ele>86</ele>
        <time>2013-07-30T10:58:36Z</time>
      </trkpt>
      <trkpt lat="48.68167" lon="2.47296">
        <ele>86</ele>
        <time>2013-07-30T10:58:40Z</time>
      </trkpt>
      <trkpt lat="48.68162" lon="2.47301">
        <ele>87</ele>
        <time>2013-07-30T10:58:44Z</time>
      </trkpt>
      <trkpt lat="48.68159" lon="2.47306">
        <ele>87</ele>
        <time>2013-07-30T10:58:48Z</time>
      </trkpt>
      <trkpt lat="48.68153" lon="2.47309">
        <ele>87</ele>
        <time>2013-07-30T10:58:54Z</time>
      </trkpt>
      <trkpt lat="48.68148" lon="2.47312">
        <ele>87</ele>
        <time>2013-07-30T10:58:58Z</time>
      </trkpt>
      <trkpt lat="48.68144" lon="2.47316">
        <ele>87</ele>
        <time>2013-07-30T10:59:03Z</time>
      </trkpt>
      <trkpt lat="48.68141" lon="2.47323">
        <ele>87</ele>
        <time>2013-07-30T10:59:07Z</time>
      </trkpt>
      <trkpt lat="48.68137" lon="2.47328">
        <ele>87</ele>
        <time>2013-07-30T10:59:11Z</time>
      </trkpt>
      <trkpt lat="48.68134" lon="2.47333">
        <ele>87</ele>
        <time>2013-07-30T10:59:15Z</time>
      </trkpt>
      <trkpt lat="48.68132" lon="2.4734">
        <ele>87</ele>
        <time>2013-07-30T10:59:22Z</time>
      </trkpt>
      <trkpt lat="48.68129" lon="2.47346">
        <ele>87</ele>
        <time>2013-07-30T10:59:27Z</time>
      </trkpt>
      <trkpt lat="48.68125" lon="2.47351">
        <ele>87</ele>
        <time>2013-07-30T10:59:32Z</time>
      </trkpt>
      <trkpt lat="48.68121" lon="2.47356">
        <ele>87</ele>
        <time>2013-07-30T10:59:37Z</time>
      </trkpt>
      <trkpt lat="48.68117" lon="2.47361">
        <ele>87</ele>
        <time>2013-07-30T10:59:41Z</time>
      </trkpt>
      <trkpt lat="48.68113" lon="2.47367">
        <ele>87</ele>
        <time>2013-07-30T10:59:45Z</time>
      </trkpt>
      <trkpt lat="48.68109" lon="2.47373">
        <ele>87</ele>
        <time>2013-07-30T10:59:49Z</time>
      </trkpt>
      <trkpt lat="48.68105" lon="2.47377">
        <ele>87</ele>
        <time>2013-07-30T10:59:53Z</time>
      </trkpt>
      <trkpt lat="48.68102" lon="2.47382">
        <ele>87</ele>
        <time>2013-07-30T10:59:58Z</time>
      </trkpt>
      <trkpt lat="48.68098" lon="2.47386">
        <ele>87</ele>
        <time>2013-07-30T11:00:01Z</time>
      </trkpt>
      <trkpt lat="48.68094" lon="2.47389">
        <ele>87</ele>
        <time>2013-07-30T11:00:04Z</time>
      </trkpt>
      <trkpt lat="48.68089" lon="2.47395">
        <ele>87</ele>
        <time>2013-07-30T11:00:09Z</time>
      </trkpt>
      <trkpt lat="48.68085" lon="2.47399">
        <ele>87</ele>
        <time>2013-07-30T11:00:13Z</time>
      </trkpt>
      <trkpt lat="48.68082" lon="2.47405">
        <ele>87</ele>
        <time>2013-07-30T11:00:20Z</time>
      </trkpt>
      <trkpt lat="48.6808" lon="2.47412">
        <ele>87</ele>
        <time>2013-07-30T11:00:27Z</time>
      </trkpt>
      <trkpt lat="48.68076" lon="2.47415">
        <ele>87</ele>
        <time>2013-07-30T11:00:32Z</time>
      </trkpt>
      <trkpt lat="48.68071" lon="2.4742">
        <ele>87</ele>
        <time>2013-07-30T11:00:37Z</time>
      </trkpt>
      <trkpt lat="48.68066" lon="2.47424">
        <ele>87</ele>
        <time>2013-07-30T11:00:40Z</time>
      </trkpt>
      <trkpt lat="48.68063" lon="2.47429">
        <ele>87</ele>
        <time>2013-07-30T11:00:44Z</time>
      </trkpt>
      <trkpt lat="48.68059" lon="2.47434">
        <ele>87</ele>
        <time>2013-07-30T11:00:48Z</time>
      </trkpt>
      <trkpt lat="48.68055" lon="2.47437">
        <ele>87</ele>
        <time>2013-07-30T11:00:51Z</time>
      </trkpt>
      <trkpt lat="48.68051" lon="2.47443">
        <ele>87</ele>
        <time>2013-07-30T11:00:55Z</time>
      </trkpt>
      <trkpt lat="48.68048" lon="2.47449">
        <ele>87</ele>
        <time>2013-07-30T11:01:01Z</time>
      </trkpt>
      <trkpt lat="48.68045" lon="2.47455">
        <ele>87</ele>
        <time>2013-07-30T11:01:06Z</time>
      </trkpt>
      <trkpt lat="48.68041" lon="2.4746">
        <ele>86</ele>
        <time>2013-07-30T11:01:11Z</time>
      </trkpt>
      <trkpt lat="48.68038" lon="2.47466">
        <ele>86</ele>
        <time>2013-07-30T11:01:17Z</time>
      </trkpt>
      <trkpt lat="48.68034" lon="2.47471">
        <ele>86</ele>
        <time>2013-07-30T11:01:21Z</time>
      </trkpt>
      <trkpt lat="48.6803" lon="2.47476">
        <ele>86</ele>
        <time>2013-07-30T11:01:25Z</time>
      </trkpt>
      <trkpt lat="48.68027" lon="2.4748">
        <ele>86</ele>
        <time>2013-07-30T11:01:29Z</time>
      </trkpt>
      <trkpt lat="48.68022" lon="2.47483">
        <ele>86</ele>
        <time>2013-07-30T11:01:33Z</time>
      </trkpt>
      <trkpt lat="48.68018" lon="2.47485">
        <ele>86</ele>
        <time>2013-07-30T11:01:37Z</time>
      </trkpt>
      <trkpt lat="48.68014" lon="2.47489">
        <ele>85</ele>
        <time>2013-07-30T11:01:41Z</time>
      </trkpt>
      <trkpt lat="48.6801" lon="2.47494">
        <ele>85</ele>
        <time>2013-07-30T11:01:44Z</time>
      </trkpt>
      <trkpt lat="48.68007" lon="2.47498">
        <ele>85</ele>
        <time>2013-07-30T11:01:48Z</time>
      </trkpt>
      <trkpt lat="48.68004" lon="2.47504">
        <ele>84</ele>
        <time>2013-07-30T11:01:55Z</time>
      </trkpt>
      <trkpt lat="48.68" lon="2.47511">
        <ele>84</ele>
        <time>2013-07-30T11:01:59Z</time>
      </trkpt>
      <trkpt lat="48.67996" lon="2.47515">
        <ele>84</ele>
        <time>2013-07-30T11:02:02Z</time>
      </trkpt>
      <trkpt lat="48.67992" lon="2.47519">
        <ele>84</ele>
        <time>2013-07-30T11:02:06Z</time>
      </trkpt>
      <trkpt lat="48.67988" lon="2.47521">
        <ele>84</ele>
        <time>2013-07-30T11:02:11Z</time>
      </trkpt>
      <trkpt lat="48.67984" lon="2.47528">
        <ele>84</ele>
        <time>2013-07-30T11:02:16Z</time>
      </trkpt>
      <trkpt lat="48.67981" lon="2.47534">
        <ele>84</ele>
        <time>2013-07-30T11:02:21Z</time>
      </trkpt>
      <trkpt lat="48.67979" lon="2.47536">
        <ele>84</ele>
        <time>2013-07-30T11:02:28Z</time>
      </trkpt>
      <trkpt lat="48.67975" lon="2.4754">
        <ele>84</ele>
        <time>2013-07-30T11:02:40Z</time>
      </trkpt>
      <trkpt lat="48.67972" lon="2.47545">
        <ele>84</ele>
        <time>2013-07-30T11:02:44Z</time>
      </trkpt>
      <trkpt lat="48.67968" lon="2.47549">
        <ele>84</ele>
        <time>2013-07-30T11:02:48Z</time>
      </trkpt>
      <trkpt lat="48.67963" lon="2.47551">
        <ele>84</ele>
        <time>2013-07-30T11:02:53Z</time>
      </trkpt>
      <trkpt lat="48.6796" lon="2.47557">
        <ele>84</ele>
        <time>2013-07-30T11:02:58Z</time>
      </trkpt>
      <trkpt lat="48.67955" lon="2.47562">
        <ele>84</ele>
        <time>2013-07-30T11:03:02Z</time>
      </trkpt>
      <trkpt lat="48.67952" lon="2.47566">
        <ele>84</ele>
        <time>2013-07-30T11:03:06Z</time>
      </trkpt>
      <trkpt lat="48.67947" lon="2.47571">
        <ele>84</ele>
        <time>2013-07-30T11:03:11Z</time>
      </trkpt>
      <trkpt lat="48.67942" lon="2.47577">
        <ele>84</ele>
        <time>2013-07-30T11:03:14Z</time>
      </trkpt>
      <trkpt lat="48.6794" lon="2.47585">
        <ele>84</ele>
        <time>2013-07-30T11:03:23Z</time>
      </trkpt>
      <trkpt lat="48.67937" lon="2.4759">
        <ele>84</ele>
        <time>2013-07-30T11:03:29Z</time>
      </trkpt>
      <trkpt lat="48.67934" lon="2.47596">
        <ele>84</ele>
        <time>2013-07-30T11:03:32Z</time>
      </trkpt>
      <trkpt lat="48.67932" lon="2.47602">
        <ele>84</ele>
        <time>2013-07-30T11:03:40Z</time>
      </trkpt>
      <trkpt lat="48.67928" lon="2.47609">
        <ele>84</ele>
        <time>2013-07-30T11:03:45Z</time>
      </trkpt>
      <trkpt lat="48.67922" lon="2.47615">
        <ele>84</ele>
        <time>2013-07-30T11:03:48Z</time>
      </trkpt>
      <trkpt lat="48.67919" lon="2.4762">
        <ele>84</ele>
        <time>2013-07-30T11:03:51Z</time>
      </trkpt>
      <trkpt lat="48.67915" lon="2.47625">
        <ele>84</ele>
        <time>2013-07-30T11:03:57Z</time>
      </trkpt>
      <trkpt lat="48.6791" lon="2.47628">
        <ele>84</ele>
        <time>2013-07-30T11:04:08Z</time>
      </trkpt>
      <trkpt lat="48.67906" lon="2.4763">
        <ele>84</ele>
        <time>2013-07-30T11:04:12Z</time>
      </trkpt>
      <trkpt lat="48.67902" lon="2.47634">
        <ele>84</ele>
        <time>2013-07-30T11:04:17Z</time>
      </trkpt>
      <trkpt lat="48.67898" lon="2.47639">
        <ele>84</ele>
        <time>2013-07-30T11:04:21Z</time>
      </trkpt>
      <trkpt lat="48.67894" lon="2.47644">
        <ele>84</ele>
        <time>2013-07-30T11:04:24Z</time>
      </trkpt>
      <trkpt lat="48.6789" lon="2.47649">
        <ele>84</ele>
        <time>2013-07-30T11:04:28Z</time>
      </trkpt>
      <trkpt lat="48.67885" lon="2.47653">
        <ele>84</ele>
        <time>2013-07-30T11:04:32Z</time>
      </trkpt>
      <trkpt lat="48.67883" lon="2.47662">
        <ele>84</ele>
        <time>2013-07-30T11:04:58Z</time>
      </trkpt>
      <trkpt lat="48.67879" lon="2.47666">
        <ele>84</ele>
        <time>2013-07-30T11:05:04Z</time>
      </trkpt>
      <trkpt lat="48.67873" lon="2.47669">
        <ele>84</ele>
        <time>2013-07-30T11:05:07Z</time>
      </trkpt>
      <trkpt lat="48.67869" lon="2.47674">
        <ele>84</ele>
        <time>2013-07-30T11:05:11Z</time>
      </trkpt>
      <trkpt lat="48.67866" lon="2.4768">
        <ele>84</ele>
        <time>2013-07-30T11:05:15Z</time>
      </trkpt>
      <trkpt lat="48.67862" lon="2.47685">
        <ele>84</ele>
        <time>2013-07-30T11:05:21Z</time>
      </trkpt>
      <trkpt lat="48.6786" lon="2.47691">
        <ele>84</ele>
        <time>2013-07-30T11:05:28Z</time>
      </trkpt>
      <trkpt lat="48.67855" lon="2.47695">
        <ele>83</ele>
        <time>2013-07-30T11:05:35Z</time>
      </trkpt>
      <trkpt lat="48.67852" lon="2.477">
        <ele>83</ele>
        <time>2013-07-30T11:05:43Z</time>
      </trkpt>
      <trkpt lat="48.67847" lon="2.47703">
        <ele>83</ele>
        <time>2013-07-30T11:05:47Z</time>
      </trkpt>
      <trkpt lat="48.67843" lon="2.47708">
        <ele>83</ele>
        <time>2013-07-30T11:05:51Z</time>
      </trkpt>
      <trkpt lat="48.67836" lon="2.47724">
        <ele>83</ele>
        <time>2013-07-30T11:06:11Z</time>
      </trkpt>
      <trkpt lat="48.67832" lon="2.47729">
        <ele>82</ele>
        <time>2013-07-30T11:06:14Z</time>
      </trkpt>
      <trkpt lat="48.67827" lon="2.47734">
        <ele>82</ele>
        <time>2013-07-30T11:06:18Z</time>
      </trkpt>
      <trkpt lat="48.67823" lon="2.47737">
        <ele>82</ele>
        <time>2013-07-30T11:06:21Z</time>
      </trkpt>
      <trkpt lat="48.67819" lon="2.47742">
        <ele>82</ele>
        <time>2013-07-30T11:06:26Z</time>
      </trkpt>
      <trkpt lat="48.67814" lon="2.47748">
        <ele>82</ele>
        <time>2013-07-30T11:06:29Z</time>
      </trkpt>
      <trkpt lat="48.6781" lon="2.47752">
        <ele>84</ele>
        <time>2013-07-30T11:06:36Z</time>
      </trkpt>
      <trkpt lat="48.67806" lon="2.47758">
        <ele>84</ele>
        <time>2013-07-30T11:06:49Z</time>
      </trkpt>
      <trkpt lat="48.67803" lon="2.47762">
        <ele>84</ele>
        <time>2013-07-30T11:06:52Z</time>
      </trkpt>
      <trkpt lat="48.67797" lon="2.47769">
        <ele>84</ele>
        <time>2013-07-30T11:06:55Z</time>
      </trkpt>
      <trkpt lat="48.67794" lon="2.47775">
        <ele>85</ele>
        <time>2013-07-30T11:07:01Z</time>
      </trkpt>
      <trkpt lat="48.6779" lon="2.47781">
        <ele>85</ele>
        <time>2013-07-30T11:07:04Z</time>
      </trkpt>
      <trkpt lat="48.67785" lon="2.47787">
        <ele>85</ele>
        <time>2013-07-30T11:07:09Z</time>
      </trkpt>
      <trkpt lat="48.67782" lon="2.47791">
        <ele>85</ele>
        <time>2013-07-30T11:07:12Z</time>
      </trkpt>
      <trkpt lat="48.67777" lon="2.47796">
        <ele>85</ele>
        <time>2013-07-30T11:07:15Z</time>
      </trkpt>
      <trkpt lat="48.67771" lon="2.478">
        <ele>85</ele>
        <time>2013-07-30T11:07:24Z</time>
      </trkpt>
      <trkpt lat="48.67765" lon="2.47803">
        <ele>85</ele>
        <time>2013-07-30T11:07:27Z</time>
      </trkpt>
      <trkpt lat="48.6776" lon="2.47806">
        <ele>86</ele>
        <time>2013-07-30T11:07:30Z</time>
      </trkpt>
      <trkpt lat="48.67755" lon="2.47811">
        <ele>86</ele>
        <time>2013-07-30T11:07:35Z</time>
      </trkpt>
      <trkpt lat="48.6776" lon="2.47816">
        <ele>86</ele>
        <time>2013-07-30T11:07:40Z</time>
      </trkpt>
      <trkpt lat="48.67755" lon="2.47821">
        <ele>86</ele>
        <time>2013-07-30T11:07:46Z</time>
      </trkpt>
      <trkpt lat="48.67751" lon="2.47824">
        <ele>86</ele>
        <time>2013-07-30T11:07:50Z</time>
      </trkpt>
      <trkpt lat="48.67746" lon="2.4783">
        <ele>87</ele>
        <time>2013-07-30T11:07:54Z</time>
      </trkpt>
      <trkpt lat="48.67742" lon="2.47835">
        <ele>88</ele>
        <time>2013-07-30T11:07:58Z</time>
      </trkpt>
      <trkpt lat="48.67737" lon="2.47837">
        <ele>88</ele>
        <time>2013-07-30T11:08:01Z</time>
      </trkpt>
      <trkpt lat="48.67733" lon="2.47842">
        <ele>88</ele>
        <time>2013-07-30T11:08:04Z</time>
      </trkpt>
      <trkpt lat="48.6773" lon="2.47849">
        <ele>88</ele>
        <time>2013-07-30T11:08:09Z</time>
      </trkpt>
      <trkpt lat="48.67728" lon="2.47855">
        <ele>88</ele>
        <time>2013-07-30T11:08:15Z</time>
      </trkpt>
      <trkpt lat="48.67716" lon="2.47857">
        <ele>88</ele>
        <time>2013-07-30T11:08:23Z</time>
      </trkpt>
      <trkpt lat="48.6771" lon="2.47857">
        <ele>88</ele>
        <time>2013-07-30T11:08:25Z</time>
      </trkpt>
      <trkpt lat="48.67712" lon="2.47863">
        <ele>89</ele>
        <time>2013-07-30T11:08:31Z</time>
      </trkpt>
      <trkpt lat="48.67712" lon="2.4787">
        <ele>89</ele>
        <time>2013-07-30T11:08:37Z</time>
      </trkpt>
      <trkpt lat="48.67709" lon="2.47874">
        <ele>89</ele>
        <time>2013-07-30T11:08:40Z</time>
      </trkpt>
      <trkpt lat="48.67704" lon="2.4788">
        <ele>89</ele>
        <time>2013-07-30T11:08:43Z</time>
      </trkpt>
      <trkpt lat="48.677" lon="2.47885">
        <ele>89</ele>
        <time>2013-07-30T11:08:47Z</time>
      </trkpt>
      <trkpt lat="48.67695" lon="2.4789">
        <ele>89</ele>
        <time>2013-07-30T11:08:50Z</time>
      </trkpt>
      <trkpt lat="48.6769" lon="2.47895">
        <ele>89</ele>
        <time>2013-07-30T11:08:52Z</time>
      </trkpt>
      <trkpt lat="48.67686" lon="2.47899">
        <ele>89</ele>
        <time>2013-07-30T11:08:55Z</time>
      </trkpt>
      <trkpt lat="48.67682" lon="2.47904">
        <ele>89</ele>
        <time>2013-07-30T11:08:59Z</time>
      </trkpt>
      <trkpt lat="48.67682" lon="2.47908">
        <ele>89</ele>
        <time>2013-07-30T11:09:06Z</time>
      </trkpt>
      <trkpt lat="48.67678" lon="2.47912">
        <ele>89</ele>
        <time>2013-07-30T11:09:10Z</time>
      </trkpt>
      <trkpt lat="48.67674" lon="2.47917">
        <ele>89</ele>
        <time>2013-07-30T11:09:13Z</time>
      </trkpt>
      <trkpt lat="48.67671" lon="2.47921">
        <ele>89</ele>
        <time>2013-07-30T11:09:17Z</time>
      </trkpt>
      <trkpt lat="48.67668" lon="2.47931">
        <ele>89</ele>
        <time>2013-07-30T11:09:28Z</time>
      </trkpt>
      <trkpt lat="48.67665" lon="2.47936">
        <ele>90</ele>
        <time>2013-07-30T11:09:30Z</time>
      </trkpt>
      <trkpt lat="48.67663" lon="2.47943">
        <ele>90</ele>
        <time>2013-07-30T11:09:35Z</time>
      </trkpt>
      <trkpt lat="48.67659" lon="2.47946">
        <ele>90</ele>
        <time>2013-07-30T11:09:39Z</time>
      </trkpt>
      <trkpt lat="48.67654" lon="2.47951">
        <ele>90</ele>
        <time>2013-07-30T11:09:43Z</time>
      </trkpt>
      <trkpt lat="48.67651" lon="2.47956">
        <ele>90</ele>
        <time>2013-07-30T11:09:48Z</time>
      </trkpt>
      <trkpt lat="48.67648" lon="2.47964">
        <ele>90</ele>
        <time>2013-07-30T11:09:55Z</time>
      </trkpt>
      <trkpt lat="48.67644" lon="2.47969">
        <ele>90</ele>
        <time>2013-07-30T11:09:59Z</time>
      </trkpt>
      <trkpt lat="48.6764" lon="2.47972">
        <ele>90</ele>
        <time>2013-07-30T11:10:03Z</time>
      </trkpt>
      <trkpt lat="48.67636" lon="2.47977">
        <ele>90</ele>
        <time>2013-07-30T11:10:08Z</time>
      </trkpt>
      <trkpt lat="48.67632" lon="2.47982">
        <ele>90</ele>
        <time>2013-07-30T11:10:12Z</time>
      </trkpt>
      <trkpt lat="48.67628" lon="2.47986">
        <ele>90</ele>
        <time>2013-07-30T11:10:16Z</time>
      </trkpt>
      <trkpt lat="48.67626" lon="2.47992">
        <ele>90</ele>
        <time>2013-07-30T11:10:21Z</time>
      </trkpt>
      <trkpt lat="48.67623" lon="2.48">
        <ele>91</ele>
        <time>2013-07-30T11:10:25Z</time>
      </trkpt>
      <trkpt lat="48.67619" lon="2.48006">
        <ele>90</ele>
        <time>2013-07-30T11:10:30Z</time>
      </trkpt>
      <trkpt lat="48.67615" lon="2.48009">
        <ele>90</ele>
        <time>2013-07-30T11:10:33Z</time>
      </trkpt>
      <trkpt lat="48.6761" lon="2.48015">
        <ele>90</ele>
        <time>2013-07-30T11:10:36Z</time>
      </trkpt>
      <trkpt lat="48.67605" lon="2.48018">
        <ele>91</ele>
        <time>2013-07-30T11:10:39Z</time>
      </trkpt>
      <trkpt lat="48.676" lon="2.4802">
        <ele>91</ele>
        <time>2013-07-30T11:10:47Z</time>
      </trkpt>
      <trkpt lat="48.67596" lon="2.48025">
        <ele>91</ele>
        <time>2013-07-30T11:10:51Z</time>
      </trkpt>
      <trkpt lat="48.67597" lon="2.48029">
        <ele>90</ele>
        <time>2013-07-30T11:10:59Z</time>
      </trkpt>
      <trkpt lat="48.67594" lon="2.48035">
        <ele>90</ele>
        <time>2013-07-30T11:11:02Z</time>
      </trkpt>
      <trkpt lat="48.67588" lon="2.48038">
        <ele>90</ele>
        <time>2013-07-30T11:11:05Z</time>
      </trkpt>
      <trkpt lat="48.67583" lon="2.48042">
        <ele>90</ele>
        <time>2013-07-30T11:11:08Z</time>
      </trkpt>
      <trkpt lat="48.67579" lon="2.48046">
        <ele>90</ele>
        <time>2013-07-30T11:11:11Z</time>
      </trkpt>
      <trkpt lat="48.67575" lon="2.48049">
        <ele>90</ele>
        <time>2013-07-30T11:11:15Z</time>
      </trkpt>
      <trkpt lat="48.6757" lon="2.48055">
        <ele>90</ele>
        <time>2013-07-30T11:11:18Z</time>
      </trkpt>
      <trkpt lat="48.67567" lon="2.4806">
        <ele>90</ele>
        <time>2013-07-30T11:11:23Z</time>
      </trkpt>
      <trkpt lat="48.67564" lon="2.48066">
        <ele>90</ele>
        <time>2013-07-30T11:11:30Z</time>
      </trkpt>
      <trkpt lat="48.6756" lon="2.48071">
        <ele>90</ele>
        <time>2013-07-30T11:11:34Z</time>
      </trkpt>
      <trkpt lat="48.67556" lon="2.48074">
        <ele>90</ele>
        <time>2013-07-30T11:11:38Z</time>
      </trkpt>
      <trkpt lat="48.67553" lon="2.4808">
        <ele>90</ele>
        <time>2013-07-30T11:11:44Z</time>
      </trkpt>
      <trkpt lat="48.6755" lon="2.48085">
        <ele>89</ele>
        <time>2013-07-30T11:11:48Z</time>
      </trkpt>
      <trkpt lat="48.67546" lon="2.4809">
        <ele>89</ele>
        <time>2013-07-30T11:11:52Z</time>
      </trkpt>
      <trkpt lat="48.67541" lon="2.48095">
        <ele>89</ele>
        <time>2013-07-30T11:11:55Z</time>
      </trkpt>
      <trkpt lat="48.67537" lon="2.48099">
        <ele>89</ele>
        <time>2013-07-30T11:11:59Z</time>
      </trkpt>
      <trkpt lat="48.67533" lon="2.48102">
        <ele>89</ele>
        <time>2013-07-30T11:12:04Z</time>
      </trkpt>
      <trkpt lat="48.6753" lon="2.48108">
        <ele>89</ele>
        <time>2013-07-30T11:12:12Z</time>
      </trkpt>
      <trkpt lat="48.67527" lon="2.48114">
        <ele>89</ele>
        <time>2013-07-30T11:12:16Z</time>
      </trkpt>
      <trkpt lat="48.67523" lon="2.48119">
        <ele>89</ele>
        <time>2013-07-30T11:12:21Z</time>
      </trkpt>
      <trkpt lat="48.67521" lon="2.48125">
        <ele>89</ele>
        <time>2013-07-30T11:12:25Z</time>
      </trkpt>
      <trkpt lat="48.67517" lon="2.4813">
        <ele>89</ele>
        <time>2013-07-30T11:12:30Z</time>
      </trkpt>
      <trkpt lat="48.67513" lon="2.48135">
        <ele>89</ele>
        <time>2013-07-30T11:12:35Z</time>
      </trkpt>
      <trkpt lat="48.67509" lon="2.4814">
        <ele>89</ele>
        <time>2013-07-30T11:12:41Z</time>
      </trkpt>
      <trkpt lat="48.67505" lon="2.48144">
        <ele>89</ele>
        <time>2013-07-30T11:12:45Z</time>
      </trkpt>
      <trkpt lat="48.67501" lon="2.48148">
        <ele>89</ele>
        <time>2013-07-30T11:12:49Z</time>
      </trkpt>
      <trkpt lat="48.67496" lon="2.48153">
        <ele>89</ele>
        <time>2013-07-30T11:12:53Z</time>
      </trkpt>
      <trkpt lat="48.67493" lon="2.48159">
        <ele>89</ele>
        <time>2013-07-30T11:12:58Z</time>
      </trkpt>
      <trkpt lat="48.67492" lon="2.48166">
        <ele>89</ele>
        <time>2013-07-30T11:13:01Z</time>
      </trkpt>
      <trkpt lat="48.67486" lon="2.48177">
        <ele>89</ele>
        <time>2013-07-30T11:13:09Z</time>
      </trkpt>
      <trkpt lat="48.67481" lon="2.48182">
        <ele>89</ele>
        <time>2013-07-30T11:13:13Z</time>
      </trkpt>
      <trkpt lat="48.67477" lon="2.48186">
        <ele>89</ele>
        <time>2013-07-30T11:13:17Z</time>
      </trkpt>
      <trkpt lat="48.67472" lon="2.48187">
        <ele>89</ele>
        <time>2013-07-30T11:13:21Z</time>
      </trkpt>
      <trkpt lat="48.67468" lon="2.48192">
        <ele>89</ele>
        <time>2013-07-30T11:13:27Z</time>
      </trkpt>
      <trkpt lat="48.67464" lon="2.48196">
        <ele>89</ele>
        <time>2013-07-30T11:13:31Z</time>
      </trkpt>
      <trkpt lat="48.6746" lon="2.482">
        <ele>89</ele>
        <time>2013-07-30T11:13:35Z</time>
      </trkpt>
      <trkpt lat="48.67457" lon="2.48206">
        <ele>89</ele>
        <time>2013-07-30T11:13:40Z</time>
      </trkpt>
      <trkpt lat="48.67453" lon="2.48212">
        <ele>89</ele>
        <time>2013-07-30T11:13:44Z</time>
      </trkpt>
      <trkpt lat="48.67448" lon="2.48217">
        <ele>89</ele>
        <time>2013-07-30T11:13:51Z</time>
      </trkpt>
      <trkpt lat="48.67444" lon="2.48221">
        <ele>89</ele>
        <time>2013-07-30T11:13:54Z</time>
      </trkpt>
      <trkpt lat="48.67442" lon="2.48228">
        <ele>89</ele>
        <time>2013-07-30T11:13:58Z</time>
      </trkpt>
      <trkpt lat="48.67438" lon="2.48233">
        <ele>89</ele>
        <time>2013-07-30T11:14:03Z</time>
      </trkpt>
      <trkpt lat="48.67434" lon="2.48237">
        <ele>90</ele>
        <time>2013-07-30T11:14:08Z</time>
      </trkpt>
      <trkpt lat="48.67429" lon="2.48242">
        <ele>90</ele>
        <time>2013-07-30T11:14:12Z</time>
      </trkpt>
      <trkpt lat="48.67426" lon="2.48246">
        <ele>90</ele>
        <time>2013-07-30T11:14:15Z</time>
      </trkpt>
      <trkpt lat="48.67422" lon="2.4825">
        <ele>90</ele>
        <time>2013-07-30T11:14:18Z</time>
      </trkpt>
      <trkpt lat="48.67421" lon="2.48257">
        <ele>90</ele>
        <time>2013-07-30T11:14:25Z</time>
      </trkpt>
      <trkpt lat="48.67418" lon="2.48263">
        <ele>90</ele>
        <time>2013-07-30T11:14:28Z</time>
      </trkpt>
      <trkpt lat="48.67413" lon="2.48269">
        <ele>90</ele>
        <time>2013-07-30T11:14:31Z</time>
      </trkpt>
      <trkpt lat="48.6741" lon="2.48274">
        <ele>90</ele>
        <time>2013-07-30T11:14:35Z</time>
      </trkpt>
      <trkpt lat="48.67404" lon="2.48277">
        <ele>90</ele>
        <time>2013-07-30T11:14:39Z</time>
      </trkpt>
      <trkpt lat="48.67399" lon="2.48286">
        <ele>90</ele>
        <time>2013-07-30T11:14:51Z</time>
      </trkpt>
      <trkpt lat="48.67395" lon="2.48291">
        <ele>90</ele>
        <time>2013-07-30T11:14:59Z</time>
      </trkpt>
      <trkpt lat="48.6739" lon="2.48294">
        <ele>89</ele>
        <time>2013-07-30T11:15:03Z</time>
      </trkpt>
      <trkpt lat="48.67386" lon="2.483">
        <ele>89</ele>
        <time>2013-07-30T11:15:07Z</time>
      </trkpt>
      <trkpt lat="48.67382" lon="2.48305">
        <ele>89</ele>
        <time>2013-07-30T11:15:12Z</time>
      </trkpt>
      <trkpt lat="48.6738" lon="2.48312">
        <ele>89</ele>
        <time>2013-07-30T11:15:19Z</time>
      </trkpt>
      <trkpt lat="48.67378" lon="2.48318">
        <ele>89</ele>
        <time>2013-07-30T11:15:25Z</time>
      </trkpt>
      <trkpt lat="48.67374" lon="2.48322">
        <ele>90</ele>
        <time>2013-07-30T11:15:29Z</time>
      </trkpt>
      <trkpt lat="48.67369" lon="2.48327">
        <ele>90</ele>
        <time>2013-07-30T11:15:32Z</time>
      </trkpt>
      <trkpt lat="48.67364" lon="2.48331">
        <ele>90</ele>
        <time>2013-07-30T11:15:36Z</time>
      </trkpt>
      <trkpt lat="48.6736" lon="2.48335">
        <ele>90</ele>
        <time>2013-07-30T11:15:38Z</time>
      </trkpt>
      <trkpt lat="48.67356" lon="2.48339">
        <ele>90</ele>
        <time>2013-07-30T11:15:40Z</time>
      </trkpt>
      <trkpt lat="48.67352" lon="2.48343">
        <ele>90</ele>
        <time>2013-07-30T11:15:42Z</time>
      </trkpt>
      <trkpt lat="48.67348" lon="2.48348">
        <ele>90</ele>
        <time>2013-07-30T11:15:46Z</time>
      </trkpt>
      <trkpt lat="48.67346" lon="2.4835">
        <ele>90</ele>
        <time>2013-07-30T11:15:52Z</time>
      </trkpt>
      <trkpt lat="48.67343" lon="2.48356">
        <ele>90</ele>
        <time>2013-07-30T11:15:58Z</time>
      </trkpt>
      <trkpt lat="48.67339" lon="2.4836">
        <ele>90</ele>
        <time>2013-07-30T11:16:02Z</time>
      </trkpt>
      <trkpt lat="48.67335" lon="2.48364">
        <ele>90</ele>
        <time>2013-07-30T11:16:04Z</time>
      </trkpt>
      <trkpt lat="48.67331" lon="2.48369">
        <ele>90</ele>
        <time>2013-07-30T11:16:08Z</time>
      </trkpt>
      <trkpt lat="48.67328" lon="2.48376">
        <ele>90</ele>
        <time>2013-07-30T11:16:13Z</time>
      </trkpt>
      <trkpt lat="48.67324" lon="2.4838">
        <ele>90</ele>
        <time>2013-07-30T11:16:17Z</time>
      </trkpt>
      <trkpt lat="48.67315" lon="2.48395">
        <ele>90</ele>
        <time>2013-07-30T11:16:38Z</time>
      </trkpt>
      <trkpt lat="48.67312" lon="2.484">
        <ele>90</ele>
        <time>2013-07-30T11:16:41Z</time>
      </trkpt>
      <trkpt lat="48.67308" lon="2.48405">
        <ele>90</ele>
        <time>2013-07-30T11:16:47Z</time>
      </trkpt>
      <trkpt lat="48.67305" lon="2.48412">
        <ele>90</ele>
        <time>2013-07-30T11:16:52Z</time>
      </trkpt>
      <trkpt lat="48.67301" lon="2.48416">
        <ele>90</ele>
        <time>2013-07-30T11:16:56Z</time>
      </trkpt>
      <trkpt lat="48.67299" lon="2.48423">
        <ele>90</ele>
        <time>2013-07-30T11:17:02Z</time>
      </trkpt>
      <trkpt lat="48.67298" lon="2.4843">
        <ele>90</ele>
        <time>2013-07-30T11:17:05Z</time>
      </trkpt>
      <trkpt lat="48.67293" lon="2.48433">
        <ele>90</ele>
        <time>2013-07-30T11:17:08Z</time>
      </trkpt>
      <trkpt lat="48.67288" lon="2.48435">
        <ele>90</ele>
        <time>2013-07-30T11:17:11Z</time>
      </trkpt>
      <trkpt lat="48.67283" lon="2.48436">
        <ele>90</ele>
        <time>2013-07-30T11:17:14Z</time>
      </trkpt>
      <trkpt lat="48.67279" lon="2.48439">
        <ele>90</ele>
        <time>2013-07-30T11:17:22Z</time>
      </trkpt>
      <trkpt lat="48.67275" lon="2.48443">
        <ele>90</ele>
        <time>2013-07-30T11:17:24Z</time>
      </trkpt>
      <trkpt lat="48.6727" lon="2.48447">
        <ele>90</ele>
        <time>2013-07-30T11:17:27Z</time>
      </trkpt>
      <trkpt lat="48.67268" lon="2.48454">
        <ele>90</ele>
        <time>2013-07-30T11:17:34Z</time>
      </trkpt>
      <trkpt lat="48.67264" lon="2.48459">
        <ele>90</ele>
        <time>2013-07-30T11:17:36Z</time>
      </trkpt>
      <trkpt lat="48.6726" lon="2.48463">
        <ele>90</ele>
        <time>2013-07-30T11:17:39Z</time>
      </trkpt>
      <trkpt lat="48.67259" lon="2.48467">
        <ele>90</ele>
        <time>2013-07-30T11:17:46Z</time>
      </trkpt>
      <trkpt lat="48.67254" lon="2.48473">
        <ele>90</ele>
        <time>2013-07-30T11:17:54Z</time>
      </trkpt>
      <trkpt lat="48.6725" lon="2.48476">
        <ele>89</ele>
        <time>2013-07-30T11:17:56Z</time>
      </trkpt>
      <trkpt lat="48.67244" lon="2.48482">
        <ele>89</ele>
        <time>2013-07-30T11:17:58Z</time>
      </trkpt>
      <trkpt lat="48.6724" lon="2.48487">
        <ele>89</ele>
        <time>2013-07-30T11:18:00Z</time>
      </trkpt>
      <trkpt lat="48.67236" lon="2.48492">
        <ele>89</ele>
        <time>2013-07-30T11:18:04Z</time>
      </trkpt>
      <trkpt lat="48.67233" lon="2.48498">
        <ele>89</ele>
        <time>2013-07-30T11:18:09Z</time>
      </trkpt>
      <trkpt lat="48.67229" lon="2.48502">
        <ele>89</ele>
        <time>2013-07-30T11:18:14Z</time>
      </trkpt>
      <trkpt lat="48.67226" lon="2.48508">
        <ele>89</ele>
        <time>2013-07-30T11:18:22Z</time>
      </trkpt>
      <trkpt lat="48.67222" lon="2.48513">
        <ele>89</ele>
        <time>2013-07-30T11:18:26Z</time>
      </trkpt>
      <trkpt lat="48.67217" lon="2.48518">
        <ele>88</ele>
        <time>2013-07-30T11:18:29Z</time>
      </trkpt>
      <trkpt lat="48.67208" lon="2.48526">
        <ele>88</ele>
        <time>2013-07-30T11:18:55Z</time>
      </trkpt>
      <trkpt lat="48.67203" lon="2.48531">
        <ele>88</ele>
        <time>2013-07-30T11:18:57Z</time>
      </trkpt>
      <trkpt lat="48.67199" lon="2.48538">
        <ele>88</ele>
        <time>2013-07-30T11:19:00Z</time>
      </trkpt>
      <trkpt lat="48.67197" lon="2.48544">
        <ele>88</ele>
        <time>2013-07-30T11:19:05Z</time>
      </trkpt>
      <trkpt lat="48.67194" lon="2.48551">
        <ele>88</ele>
        <time>2013-07-30T11:19:09Z</time>
      </trkpt>
      <trkpt lat="48.67191" lon="2.48556">
        <ele>88</ele>
        <time>2013-07-30T11:19:12Z</time>
      </trkpt>
      <trkpt lat="48.67188" lon="2.48562">
        <ele>87</ele>
        <time>2013-07-30T11:19:17Z</time>
      </trkpt>
      <trkpt lat="48.67184" lon="2.48565">
        <ele>87</ele>
        <time>2013-07-30T11:19:20Z</time>
      </trkpt>
      <trkpt lat="48.67178" lon="2.48569">
        <ele>87</ele>
        <time>2013-07-30T11:19:33Z</time>
      </trkpt>
      <trkpt lat="48.67173" lon="2.48575">
        <ele>87</ele>
        <time>2013-07-30T11:19:37Z</time>
      </trkpt>
      <trkpt lat="48.67169" lon="2.4858">
        <ele>86</ele>
        <time>2013-07-30T11:19:40Z</time>
      </trkpt>
      <trkpt lat="48.67166" lon="2.48585">
        <ele>86</ele>
        <time>2013-07-30T11:19:43Z</time>
      </trkpt>
      <trkpt lat="48.67162" lon="2.4859">
        <ele>87</ele>
        <time>2013-07-30T11:19:48Z</time>
      </trkpt>
      <trkpt lat="48.67157" lon="2.48593">
        <ele>87</ele>
        <time>2013-07-30T11:19:56Z</time>
      </trkpt>
      <trkpt lat="48.67152" lon="2.48597">
        <ele>87</ele>
        <time>2013-07-30T11:20:00Z</time>
      </trkpt>
      <trkpt lat="48.6715" lon="2.48604">
        <ele>88</ele>
        <time>2013-07-30T11:20:08Z</time>
      </trkpt>
      <trkpt lat="48.67146" lon="2.48606">
        <ele>88</ele>
        <time>2013-07-30T11:20:12Z</time>
      </trkpt>
      <trkpt lat="48.67147" lon="2.48609">
        <ele>88</ele>
        <time>2013-07-30T11:20:25Z</time>
      </trkpt>
      <trkpt lat="48.67142" lon="2.48613">
        <ele>88</ele>
        <time>2013-07-30T11:20:32Z</time>
      </trkpt>
      <trkpt lat="48.67138" lon="2.48618">
        <ele>88</ele>
        <time>2013-07-30T11:20:35Z</time>
      </trkpt>
      <trkpt lat="48.67136" lon="2.48622">
        <ele>88</ele>
        <time>2013-07-30T11:20:46Z</time>
      </trkpt>
      <trkpt lat="48.67131" lon="2.48627">
        <ele>88</ele>
        <time>2013-07-30T11:20:49Z</time>
      </trkpt>
      <trkpt lat="48.67128" lon="2.48632">
        <ele>88</ele>
        <time>2013-07-30T11:20:53Z</time>
      </trkpt>
      <trkpt lat="48.67126" lon="2.48638">
        <ele>88</ele>
        <time>2013-07-30T11:21:02Z</time>
      </trkpt>
      <trkpt lat="48.6712" lon="2.48643">
        <ele>88</ele>
        <time>2013-07-30T11:21:06Z</time>
      </trkpt>
      <trkpt lat="48.67116" lon="2.48647">
        <ele>88</ele>
        <time>2013-07-30T11:21:11Z</time>
      </trkpt>
      <trkpt lat="48.67112" lon="2.4865">
        <ele>88</ele>
        <time>2013-07-30T11:21:14Z</time>
      </trkpt>
      <trkpt lat="48.67107" lon="2.48654">
        <ele>88</ele>
        <time>2013-07-30T11:21:17Z</time>
      </trkpt>
      <trkpt lat="48.67102" lon="2.48658">
        <ele>88</ele>
        <time>2013-07-30T11:21:21Z</time>
      </trkpt>
      <trkpt lat="48.67098" lon="2.48663">
        <ele>88</ele>
        <time>2013-07-30T11:21:24Z</time>
      </trkpt>
      <trkpt lat="48.67094" lon="2.48668">
        <ele>88</ele>
        <time>2013-07-30T11:21:31Z</time>
      </trkpt>
      <trkpt lat="48.67094" lon="2.48675">
        <ele>89</ele>
        <time>2013-07-30T11:21:36Z</time>
      </trkpt>
      <trkpt lat="48.67091" lon="2.48681">
        <ele>89</ele>
        <time>2013-07-30T11:21:40Z</time>
      </trkpt>
      <trkpt lat="48.67085" lon="2.48687">
        <ele>89</ele>
        <time>2013-07-30T11:21:44Z</time>
      </trkpt>
      <trkpt lat="48.67081" lon="2.4869">
        <ele>89</ele>
        <time>2013-07-30T11:21:47Z</time>
      </trkpt>
      <trkpt lat="48.67076" lon="2.48693">
        <ele>89</ele>
        <time>2013-07-30T11:21:52Z</time>
      </trkpt>
      <trkpt lat="48.67074" lon="2.487">
        <ele>90</ele>
        <time>2013-07-30T11:22:02Z</time>
      </trkpt>
      <trkpt lat="48.67071" lon="2.48706">
        <ele>90</ele>
        <time>2013-07-30T11:22:05Z</time>
      </trkpt>
      <trkpt lat="48.67066" lon="2.48709">
        <ele>90</ele>
        <time>2013-07-30T11:22:08Z</time>
      </trkpt>
      <trkpt lat="48.67064" lon="2.48715">
        <ele>90</ele>
        <time>2013-07-30T11:22:13Z</time>
      </trkpt>
      <trkpt lat="48.67061" lon="2.4872">
        <ele>90</ele>
        <time>2013-07-30T11:22:18Z</time>
      </trkpt>
      <trkpt lat="48.67058" lon="2.48727">
        <ele>90</ele>
        <time>2013-07-30T11:22:23Z</time>
      </trkpt>
      <trkpt lat="48.67054" lon="2.48731">
        <ele>90</ele>
        <time>2013-07-30T11:22:31Z</time>
      </trkpt>
      <trkpt lat="48.67048" lon="2.48734">
        <ele>90</ele>
        <time>2013-07-30T11:22:35Z</time>
      </trkpt>
      <trkpt lat="48.67045" lon="2.48738">
        <ele>90</ele>
        <time>2013-07-30T11:22:38Z</time>
      </trkpt>
      <trkpt lat="48.67042" lon="2.48744">
        <ele>91</ele>
        <time>2013-07-30T11:22:42Z</time>
      </trkpt>
      <trkpt lat="48.67045" lon="2.48743">
        <ele>90</ele>
        <time>2013-07-30T11:23:08Z</time>
      </trkpt>
      <trkpt lat="48.67049" lon="2.48737">
        <ele>90</ele>
        <time>2013-07-30T11:23:11Z</time>
      </trkpt>
      <trkpt lat="48.67054" lon="2.48731">
        <ele>90</ele>
        <time>2013-07-30T11:23:25Z</time>
      </trkpt>
      <trkpt lat="48.67059" lon="2.48726">
        <ele>90</ele>
        <time>2013-07-30T11:23:29Z</time>
      </trkpt>
      <trkpt lat="48.67063" lon="2.48721">
        <ele>90</ele>
        <time>2013-07-30T11:23:32Z</time>
      </trkpt>
      <trkpt lat="48.67067" lon="2.48716">
        <ele>90</ele>
        <time>2013-07-30T11:23:37Z</time>
      </trkpt>
      <trkpt lat="48.67065" lon="2.48709">
        <ele>90</ele>
        <time>2013-07-30T11:23:42Z</time>
      </trkpt>
      <trkpt lat="48.6706" lon="2.48709">
        <ele>90</ele>
        <time>2013-07-30T11:23:49Z</time>
      </trkpt>
      <trkpt lat="48.67055" lon="2.48705">
        <ele>90</ele>
        <time>2013-07-30T11:23:54Z</time>
      </trkpt>
      <trkpt lat="48.67051" lon="2.48702">
        <ele>90</ele>
        <time>2013-07-30T11:23:57Z</time>
      </trkpt>
      <trkpt lat="48.67045" lon="2.48702">
        <ele>90</ele>
        <time>2013-07-30T11:24:01Z</time>
      </trkpt>
      <trkpt lat="48.6704" lon="2.487">
        <ele>90</ele>
        <time>2013-07-30T11:24:06Z</time>
      </trkpt>
      <trkpt lat="48.67036" lon="2.48696">
        <ele>90</ele>
        <time>2013-07-30T11:24:11Z</time>
      </trkpt>
      <trkpt lat="48.67031" lon="2.48693">
        <ele>90</ele>
        <time>2013-07-30T11:24:16Z</time>
      </trkpt>
      <trkpt lat="48.67025" lon="2.48692">
        <ele>90</ele>
        <time>2013-07-30T11:24:19Z</time>
      </trkpt>
      <trkpt lat="48.67021" lon="2.48691">
        <ele>90</ele>
        <time>2013-07-30T11:24:26Z</time>
      </trkpt>
      <trkpt lat="48.67017" lon="2.48688">
        <ele>91</ele>
        <time>2013-07-30T11:24:34Z</time>
      </trkpt>
      <trkpt lat="48.67013" lon="2.48684">
        <ele>91</ele>
        <time>2013-07-30T11:24:40Z</time>
      </trkpt>
      <trkpt lat="48.67008" lon="2.48686">
        <ele>91</ele>
        <time>2013-07-30T11:24:46Z</time>
      </trkpt>
      <trkpt lat="48.67004" lon="2.48681">
        <ele>91</ele>
        <time>2013-07-30T11:24:54Z</time>
      </trkpt>
      <trkpt lat="48.66999" lon="2.48682">
        <ele>91</ele>
        <time>2013-07-30T11:25:00Z</time>
      </trkpt>
      <trkpt lat="48.66994" lon="2.48686">
        <ele>91</ele>
        <time>2013-07-30T11:25:04Z</time>
      </trkpt>
      <trkpt lat="48.6699" lon="2.4869">
        <ele>91</ele>
        <time>2013-07-30T11:25:09Z</time>
      </trkpt>
      <trkpt lat="48.66986" lon="2.48695">
        <ele>91</ele>
        <time>2013-07-30T11:25:14Z</time>
      </trkpt>
      <trkpt lat="48.6698" lon="2.48697">
        <ele>91</ele>
        <time>2013-07-30T11:25:18Z</time>
      </trkpt>
      <trkpt lat="48.66975" lon="2.48699">
        <ele>91</ele>
        <time>2013-07-30T11:25:21Z</time>
      </trkpt>
      <trkpt lat="48.66969" lon="2.48699">
        <ele>91</ele>
        <time>2013-07-30T11:25:24Z</time>
      </trkpt>
      <trkpt lat="48.66964" lon="2.48698">
        <ele>91</ele>
        <time>2013-07-30T11:25:27Z</time>
      </trkpt>
      <trkpt lat="48.66959" lon="2.48696">
        <ele>91</ele>
        <time>2013-07-30T11:25:31Z</time>
      </trkpt>
      <trkpt lat="48.66954" lon="2.48696">
        <ele>91</ele>
        <time>2013-07-30T11:25:35Z</time>
      </trkpt>
      <trkpt lat="48.66949" lon="2.48696">
        <ele>91</ele>
        <time>2013-07-30T11:25:39Z</time>
      </trkpt>
      <trkpt lat="48.66947" lon="2.4869">
        <ele>91</ele>
        <time>2013-07-30T11:25:45Z</time>
      </trkpt>
      <trkpt lat="48.66945" lon="2.48683">
        <ele>91</ele>
        <time>2013-07-30T11:25:50Z</time>
      </trkpt>
      <trkpt lat="48.66944" lon="2.48674">
        <ele>91</ele>
        <time>2013-07-30T11:25:54Z</time>
      </trkpt>
      <trkpt lat="48.66942" lon="2.48666">
        <ele>90</ele>
        <time>2013-07-30T11:25:57Z</time>
      </trkpt>
      <trkpt lat="48.66931" lon="2.48666">
        <ele>90</ele>
        <time>2013-07-30T11:26:07Z</time>
      </trkpt>
      <trkpt lat="48.66928" lon="2.4867">
        <ele>90</ele>
        <time>2013-07-30T11:26:10Z</time>
      </trkpt>
      <trkpt lat="48.66924" lon="2.48674">
        <ele>90</ele>
        <time>2013-07-30T11:26:13Z</time>
      </trkpt>
      <trkpt lat="48.66921" lon="2.4868">
        <ele>90</ele>
        <time>2013-07-30T11:26:16Z</time>
      </trkpt>
      <trkpt lat="48.66915" lon="2.4868">
        <ele>90</ele>
        <time>2013-07-30T11:26:23Z</time>
      </trkpt>
      <trkpt lat="48.66911" lon="2.48679">
        <ele>90</ele>
        <time>2013-07-30T11:26:32Z</time>
      </trkpt>
      <trkpt lat="48.66906" lon="2.4868">
        <ele>90</ele>
        <time>2013-07-30T11:26:36Z</time>
      </trkpt>
      <trkpt lat="48.66894" lon="2.48679">
        <ele>90</ele>
        <time>2013-07-30T11:26:40Z</time>
      </trkpt>
      <trkpt lat="48.66885" lon="2.48678">
        <ele>90</ele>
        <time>2013-07-30T11:26:43Z</time>
      </trkpt>
      <trkpt lat="48.66875" lon="2.48686">
        <ele>90</ele>
        <time>2013-07-30T11:26:52Z</time>
      </trkpt>
      <trkpt lat="48.6687" lon="2.48697">
        <ele>90</ele>
        <time>2013-07-30T11:27:01Z</time>
      </trkpt>
      <trkpt lat="48.66859" lon="2.48695">
        <ele>90</ele>
        <time>2013-07-30T11:27:06Z</time>
      </trkpt>
      <trkpt lat="48.66853" lon="2.48699">
        <ele>90</ele>
        <time>2013-07-30T11:27:26Z</time>
      </trkpt>
      <trkpt lat="48.66851" lon="2.487">
        <ele>90</ele>
        <time>2013-07-30T11:27:37Z</time>
      </trkpt>
      <trkpt lat="48.66848" lon="2.48706">
        <ele>90</ele>
        <time>2013-07-30T11:27:45Z</time>
      </trkpt>
      <trkpt lat="48.66846" lon="2.48715">
        <ele>90</ele>
        <time>2013-07-30T11:27:52Z</time>
      </trkpt>
      <trkpt lat="48.66847" lon="2.48723">
        <ele>90</ele>
        <time>2013-07-30T11:27:58Z</time>
      </trkpt>
      <trkpt lat="48.66846" lon="2.4873">
        <ele>91</ele>
        <time>2013-07-30T11:28:02Z</time>
      </trkpt>
      <trkpt lat="48.66845" lon="2.48737">
        <ele>91</ele>
        <time>2013-07-30T11:28:05Z</time>
      </trkpt>
      <trkpt lat="48.66844" lon="2.4875">
        <ele>91</ele>
        <time>2013-07-30T11:28:14Z</time>
      </trkpt>
      <trkpt lat="48.6684" lon="2.48744">
        <ele>91</ele>
        <time>2013-07-30T11:28:20Z</time>
      </trkpt>
      <trkpt lat="48.66831" lon="2.48752">
        <ele>91</ele>
        <time>2013-07-30T11:28:31Z</time>
      </trkpt>
      <trkpt lat="48.66827" lon="2.48757">
        <ele>90</ele>
        <time>2013-07-30T11:28:35Z</time>
      </trkpt>
      <trkpt lat="48.66823" lon="2.48762">
        <ele>90</ele>
        <time>2013-07-30T11:28:46Z</time>
      </trkpt>
      <trkpt lat="48.66819" lon="2.48773">
        <ele>89</ele>
        <time>2013-07-30T11:29:01Z</time>
      </trkpt>
      <trkpt lat="48.66815" lon="2.48777">
        <ele>89</ele>
        <time>2013-07-30T11:29:03Z</time>
      </trkpt>
      <trkpt lat="48.6681" lon="2.48778">
        <ele>89</ele>
        <time>2013-07-30T11:29:08Z</time>
      </trkpt>
      <trkpt lat="48.66807" lon="2.48784">
        <ele>89</ele>
        <time>2013-07-30T11:29:15Z</time>
      </trkpt>
      <trkpt lat="48.66806" lon="2.48792">
        <ele>88</ele>
        <time>2013-07-30T11:29:21Z</time>
      </trkpt>
      <trkpt lat="48.66807" lon="2.48801">
        <ele>88</ele>
        <time>2013-07-30T11:29:26Z</time>
      </trkpt>
      <trkpt lat="48.6681" lon="2.48807">
        <ele>88</ele>
        <time>2013-07-30T11:29:32Z</time>
      </trkpt>
      <trkpt lat="48.66814" lon="2.48812">
        <ele>88</ele>
        <time>2013-07-30T11:29:37Z</time>
      </trkpt>
      <trkpt lat="48.66815" lon="2.48826">
        <ele>88</ele>
        <time>2013-07-30T11:29:49Z</time>
      </trkpt>
      <trkpt lat="48.66813" lon="2.48833">
        <ele>88</ele>
        <time>2013-07-30T11:29:53Z</time>
      </trkpt>
      <trkpt lat="48.66812" lon="2.48841">
        <ele>88</ele>
        <time>2013-07-30T11:29:58Z</time>
      </trkpt>
      <trkpt lat="48.66815" lon="2.4885">
        <ele>88</ele>
        <time>2013-07-30T11:30:01Z</time>
      </trkpt>
      <trkpt lat="48.66816" lon="2.48858">
        <ele>88</ele>
        <time>2013-07-30T11:30:03Z</time>
      </trkpt>
      <trkpt lat="48.66817" lon="2.48868">
        <ele>88</ele>
        <time>2013-07-30T11:30:06Z</time>
      </trkpt>
      <trkpt lat="48.66816" lon="2.48876">
        <ele>88</ele>
        <time>2013-07-30T11:30:10Z</time>
      </trkpt>
      <trkpt lat="48.66812" lon="2.48882">
        <ele>88</ele>
        <time>2013-07-30T11:30:15Z</time>
      </trkpt>
      <trkpt lat="48.66808" lon="2.48886">
        <ele>88</ele>
        <time>2013-07-30T11:30:19Z</time>
      </trkpt>
      <trkpt lat="48.66804" lon="2.48889">
        <ele>88</ele>
        <time>2013-07-30T11:30:22Z</time>
      </trkpt>
      <trkpt lat="48.668" lon="2.4889">
        <ele>88</ele>
        <time>2013-07-30T11:30:26Z</time>
      </trkpt>
      <trkpt lat="48.66795" lon="2.4889">
        <ele>88</ele>
        <time>2013-07-30T11:30:29Z</time>
      </trkpt>
      <trkpt lat="48.6679" lon="2.4889">
        <ele>87</ele>
        <time>2013-07-30T11:30:32Z</time>
      </trkpt>
      <trkpt lat="48.66785" lon="2.4889">
        <ele>87</ele>
        <time>2013-07-30T11:30:35Z</time>
      </trkpt>
      <trkpt lat="48.6678" lon="2.4889">
        <ele>87</ele>
        <time>2013-07-30T11:30:38Z</time>
      </trkpt>
      <trkpt lat="48.66774" lon="2.48892">
        <ele>87</ele>
        <time>2013-07-30T11:30:41Z</time>
      </trkpt>
      <trkpt lat="48.66765" lon="2.48892">
        <ele>87</ele>
        <time>2013-07-30T11:30:49Z</time>
      </trkpt>
      <trkpt lat="48.66763" lon="2.48895">
        <ele>87</ele>
        <time>2013-07-30T11:30:56Z</time>
      </trkpt>
      <trkpt lat="48.66758" lon="2.48896">
        <ele>87</ele>
        <time>2013-07-30T11:31:03Z</time>
      </trkpt>
      <trkpt lat="48.66754" lon="2.48896">
        <ele>87</ele>
        <time>2013-07-30T11:31:08Z</time>
      </trkpt>
      <trkpt lat="48.66749" lon="2.48893">
        <ele>87</ele>
        <time>2013-07-30T11:31:14Z</time>
      </trkpt>
      <trkpt lat="48.66745" lon="2.48894">
        <ele>87</ele>
        <time>2013-07-30T11:31:18Z</time>
      </trkpt>
      <trkpt lat="48.6674" lon="2.48897">
        <ele>87</ele>
        <time>2013-07-30T11:31:22Z</time>
      </trkpt>
      <trkpt lat="48.66736" lon="2.48901">
        <ele>87</ele>
        <time>2013-07-30T11:31:26Z</time>
      </trkpt>
      <trkpt lat="48.66731" lon="2.48906">
        <ele>87</ele>
        <time>2013-07-30T11:31:30Z</time>
      </trkpt>
      <trkpt lat="48.66727" lon="2.48907">
        <ele>88</ele>
        <time>2013-07-30T11:31:33Z</time>
      </trkpt>
      <trkpt lat="48.66722" lon="2.48904">
        <ele>88</ele>
        <time>2013-07-30T11:31:36Z</time>
      </trkpt>
      <trkpt lat="48.66718" lon="2.489">
        <ele>88</ele>
        <time>2013-07-30T11:31:39Z</time>
      </trkpt>
      <trkpt lat="48.66711" lon="2.48894">
        <ele>88</ele>
        <time>2013-07-30T11:31:43Z</time>
      </trkpt>
      <trkpt lat="48.66706" lon="2.48898">
        <ele>88</ele>
        <time>2013-07-30T11:32:07Z</time>
      </trkpt>
      <trkpt lat="48.66703" lon="2.48898">
        <ele>88</ele>
        <time>2013-07-30T11:32:35Z</time>
      </trkpt>
      <trkpt lat="48.667" lon="2.489">
        <ele>88</ele>
        <time>2013-07-30T11:32:56Z</time>
      </trkpt>
      <trkpt lat="48.66695" lon="2.48903">
        <ele>88</ele>
        <time>2013-07-30T11:33:00Z</time>
      </trkpt>
      <trkpt lat="48.66692" lon="2.48906">
        <ele>88</ele>
        <time>2013-07-30T11:33:08Z</time>
      </trkpt>
      <trkpt lat="48.6669" lon="2.48912">
        <ele>88</ele>
        <time>2013-07-30T11:33:22Z</time>
      </trkpt>
      <trkpt lat="48.66684" lon="2.48916">
        <ele>88</ele>
        <time>2013-07-30T11:33:25Z</time>
      </trkpt>
      <trkpt lat="48.66679" lon="2.48919">
        <ele>89</ele>
        <time>2013-07-30T11:33:27Z</time>
      </trkpt>
      <trkpt lat="48.66675" lon="2.48924">
        <ele>89</ele>
        <time>2013-07-30T11:33:29Z</time>
      </trkpt>
      <trkpt lat="48.66671" lon="2.4893">
        <ele>89</ele>
        <time>2013-07-30T11:33:32Z</time>
      </trkpt>
      <trkpt lat="48.66667" lon="2.48934">
        <ele>89</ele>
        <time>2013-07-30T11:33:35Z</time>
      </trkpt>
      <trkpt lat="48.66664" lon="2.48939">
        <ele>90</ele>
        <time>2013-07-30T11:33:38Z</time>
      </trkpt>
      <trkpt lat="48.6666" lon="2.48944">
        <ele>90</ele>
        <time>2013-07-30T11:33:42Z</time>
      </trkpt>
      <trkpt lat="48.66657" lon="2.48949">
        <ele>90</ele>
        <time>2013-07-30T11:33:47Z</time>
      </trkpt>
      <trkpt lat="48.66654" lon="2.48956">
        <ele>90</ele>
        <time>2013-07-30T11:33:51Z</time>
      </trkpt>
      <trkpt lat="48.66653" lon="2.48964">
        <ele>90</ele>
        <time>2013-07-30T11:33:57Z</time>
      </trkpt>
      <trkpt lat="48.66652" lon="2.48972">
        <ele>90</ele>
        <time>2013-07-30T11:34:03Z</time>
      </trkpt>
      <trkpt lat="48.66649" lon="2.48977">
        <ele>90</ele>
        <time>2013-07-30T11:34:07Z</time>
      </trkpt>
      <trkpt lat="48.66646" lon="2.48983">
        <ele>90</ele>
        <time>2013-07-30T11:34:10Z</time>
      </trkpt>
      <trkpt lat="48.66641" lon="2.48988">
        <ele>90</ele>
        <time>2013-07-30T11:34:14Z</time>
      </trkpt>
      <trkpt lat="48.66635" lon="2.48991">
        <ele>90</ele>
        <time>2013-07-30T11:34:16Z</time>
      </trkpt>
      <trkpt lat="48.66631" lon="2.48995">
        <ele>90</ele>
        <time>2013-07-30T11:34:19Z</time>
      </trkpt>
      <trkpt lat="48.66626" lon="2.48998">
        <ele>91</ele>
        <time>2013-07-30T11:34:23Z</time>
      </trkpt>
      <trkpt lat="48.66621" lon="2.48997">
        <ele>91</ele>
        <time>2013-07-30T11:34:29Z</time>
      </trkpt>
      <trkpt lat="48.66615" lon="2.48996">
        <ele>91</ele>
        <time>2013-07-30T11:34:33Z</time>
      </trkpt>
      <trkpt lat="48.6661" lon="2.48998">
        <ele>91</ele>
        <time>2013-07-30T11:34:37Z</time>
      </trkpt>
      <trkpt lat="48.66605" lon="2.48997">
        <ele>91</ele>
        <time>2013-07-30T11:34:41Z</time>
      </trkpt>
      <trkpt lat="48.666" lon="2.48998">
        <ele>91</ele>
        <time>2013-07-30T11:34:46Z</time>
      </trkpt>
      <trkpt lat="48.66595" lon="2.48999">
        <ele>91</ele>
        <time>2013-07-30T11:34:50Z</time>
      </trkpt>
      <trkpt lat="48.6659" lon="2.49001">
        <ele>92</ele>
        <time>2013-07-30T11:34:55Z</time>
      </trkpt>
      <trkpt lat="48.66585" lon="2.49002">
        <ele>92</ele>
        <time>2013-07-30T11:35:00Z</time>
      </trkpt>
      <trkpt lat="48.66579" lon="2.49002">
        <ele>92</ele>
        <time>2013-07-30T11:35:04Z</time>
      </trkpt>
      <trkpt lat="48.66572" lon="2.49003">
        <ele>92</ele>
        <time>2013-07-30T11:35:08Z</time>
      </trkpt>
      <trkpt lat="48.66567" lon="2.49002">
        <ele>92</ele>
        <time>2013-07-30T11:35:13Z</time>
      </trkpt>
      <trkpt lat="48.66563" lon="2.49002">
        <ele>91</ele>
        <time>2013-07-30T11:35:17Z</time>
      </trkpt>
      <trkpt lat="48.66557" lon="2.49005">
        <ele>91</ele>
        <time>2013-07-30T11:35:22Z</time>
      </trkpt>
      <trkpt lat="48.66553" lon="2.49007">
        <ele>91</ele>
        <time>2013-07-30T11:35:27Z</time>
      </trkpt>
      <trkpt lat="48.66548" lon="2.49012">
        <ele>91</ele>
        <time>2013-07-30T11:35:32Z</time>
      </trkpt>
      <trkpt lat="48.66544" lon="2.49018">
        <ele>91</ele>
        <time>2013-07-30T11:35:36Z</time>
      </trkpt>
      <trkpt lat="48.6654" lon="2.49024">
        <ele>91</ele>
        <time>2013-07-30T11:35:40Z</time>
      </trkpt>
      <trkpt lat="48.66535" lon="2.49028">
        <ele>91</ele>
        <time>2013-07-30T11:35:43Z</time>
      </trkpt>
      <trkpt lat="48.6653" lon="2.49031">
        <ele>91</ele>
        <time>2013-07-30T11:35:46Z</time>
      </trkpt>
      <trkpt lat="48.66526" lon="2.49035">
        <ele>91</ele>
        <time>2013-07-30T11:35:50Z</time>
      </trkpt>
      <trkpt lat="48.66521" lon="2.49039">
        <ele>91</ele>
        <time>2013-07-30T11:35:55Z</time>
      </trkpt>
      <trkpt lat="48.66518" lon="2.49042">
        <ele>91</ele>
        <time>2013-07-30T11:36:03Z</time>
      </trkpt>
      <trkpt lat="48.66514" lon="2.49044">
        <ele>91</ele>
        <time>2013-07-30T11:36:14Z</time>
      </trkpt>
      <trkpt lat="48.66508" lon="2.49045">
        <ele>91</ele>
        <time>2013-07-30T11:36:18Z</time>
      </trkpt>
      <trkpt lat="48.66504" lon="2.4904">
        <ele>91</ele>
        <time>2013-07-30T11:36:21Z</time>
      </trkpt>
      <trkpt lat="48.66499" lon="2.49039">
        <ele>90</ele>
        <time>2013-07-30T11:36:24Z</time>
      </trkpt>
      <trkpt lat="48.66494" lon="2.49041">
        <ele>91</ele>
        <time>2013-07-30T11:36:28Z</time>
      </trkpt>
      <trkpt lat="48.66489" lon="2.49042">
        <ele>90</ele>
        <time>2013-07-30T11:36:31Z</time>
      </trkpt>
      <trkpt lat="48.66483" lon="2.49042">
        <ele>90</ele>
        <time>2013-07-30T11:36:35Z</time>
      </trkpt>
      <trkpt lat="48.66477" lon="2.49041">
        <ele>90</ele>
        <time>2013-07-30T11:36:38Z</time>
      </trkpt>
      <trkpt lat="48.66471" lon="2.49042">
        <ele>90</ele>
        <time>2013-07-30T11:36:41Z</time>
      </trkpt>
      <trkpt lat="48.66467" lon="2.49044">
        <ele>90</ele>
        <time>2013-07-30T11:36:44Z</time>
      </trkpt>
      <trkpt lat="48.66463" lon="2.4905">
        <ele>90</ele>
        <time>2013-07-30T11:36:49Z</time>
      </trkpt>
      <trkpt lat="48.6646" lon="2.49055">
        <ele>90</ele>
        <time>2013-07-30T11:36:54Z</time>
      </trkpt>
      <trkpt lat="48.66457" lon="2.49064">
        <ele>90</ele>
        <time>2013-07-30T11:36:58Z</time>
      </trkpt>
      <trkpt lat="48.66454" lon="2.49069">
        <ele>90</ele>
        <time>2013-07-30T11:37:02Z</time>
      </trkpt>
      <trkpt lat="48.66452" lon="2.49075">
        <ele>90</ele>
        <time>2013-07-30T11:37:17Z</time>
      </trkpt>
      <trkpt lat="48.66448" lon="2.4908">
        <ele>90</ele>
        <time>2013-07-30T11:37:21Z</time>
      </trkpt>
      <trkpt lat="48.66443" lon="2.49085">
        <ele>90</ele>
        <time>2013-07-30T11:37:25Z</time>
      </trkpt>
      <trkpt lat="48.66437" lon="2.49086">
        <ele>90</ele>
        <time>2013-07-30T11:37:27Z</time>
      </trkpt>
      <trkpt lat="48.66431" lon="2.4909">
        <ele>90</ele>
        <time>2013-07-30T11:37:33Z</time>
      </trkpt>
      <trkpt lat="48.66426" lon="2.49093">
        <ele>90</ele>
        <time>2013-07-30T11:37:37Z</time>
      </trkpt>
      <trkpt lat="48.66422" lon="2.49097">
        <ele>90</ele>
        <time>2013-07-30T11:37:39Z</time>
      </trkpt>
      <trkpt lat="48.66418" lon="2.49102">
        <ele>90</ele>
        <time>2013-07-30T11:37:42Z</time>
      </trkpt>
      <trkpt lat="48.66414" lon="2.49107">
        <ele>89</ele>
        <time>2013-07-30T11:37:45Z</time>
      </trkpt>
      <trkpt lat="48.66409" lon="2.49111">
        <ele>89</ele>
        <time>2013-07-30T11:37:48Z</time>
      </trkpt>
      <trkpt lat="48.66403" lon="2.49113">
        <ele>89</ele>
        <time>2013-07-30T11:37:51Z</time>
      </trkpt>
      <trkpt lat="48.664" lon="2.49115">
        <ele>88</ele>
        <time>2013-07-30T11:37:59Z</time>
      </trkpt>
      <trkpt lat="48.66396" lon="2.49121">
        <ele>88</ele>
        <time>2013-07-30T11:38:05Z</time>
      </trkpt>
      <trkpt lat="48.66394" lon="2.49128">
        <ele>88</ele>
        <time>2013-07-30T11:38:09Z</time>
      </trkpt>
      <trkpt lat="48.66391" lon="2.49135">
        <ele>88</ele>
        <time>2013-07-30T11:38:13Z</time>
      </trkpt>
      <trkpt lat="48.66388" lon="2.49141">
        <ele>88</ele>
        <time>2013-07-30T11:38:17Z</time>
      </trkpt>
      <trkpt lat="48.66385" lon="2.49147">
        <ele>88</ele>
        <time>2013-07-30T11:38:21Z</time>
      </trkpt>
      <trkpt lat="48.66381" lon="2.49154">
        <ele>88</ele>
        <time>2013-07-30T11:38:30Z</time>
      </trkpt>
      <trkpt lat="48.66377" lon="2.4916">
        <ele>88</ele>
        <time>2013-07-30T11:38:36Z</time>
      </trkpt>
      <trkpt lat="48.66373" lon="2.49164">
        <ele>88</ele>
        <time>2013-07-30T11:38:41Z</time>
      </trkpt>
      <trkpt lat="48.66367" lon="2.49163">
        <ele>88</ele>
        <time>2013-07-30T11:38:47Z</time>
      </trkpt>
      <trkpt lat="48.6636" lon="2.49168">
        <ele>88</ele>
        <time>2013-07-30T11:38:50Z</time>
      </trkpt>
      <trkpt lat="48.66355" lon="2.49172">
        <ele>88</ele>
        <time>2013-07-30T11:38:53Z</time>
      </trkpt>
      <trkpt lat="48.66349" lon="2.49177">
        <ele>88</ele>
        <time>2013-07-30T11:39:03Z</time>
      </trkpt>
      <trkpt lat="48.66343" lon="2.49178">
        <ele>88</ele>
        <time>2013-07-30T11:39:17Z</time>
      </trkpt>
      <trkpt lat="48.66338" lon="2.49181">
        <ele>88</ele>
        <time>2013-07-30T11:39:20Z</time>
      </trkpt>
      <trkpt lat="48.66333" lon="2.49187">
        <ele>88</ele>
        <time>2013-07-30T11:39:23Z</time>
      </trkpt>
      <trkpt lat="48.66329" lon="2.49191">
        <ele>88</ele>
        <time>2013-07-30T11:39:26Z</time>
      </trkpt>
      <trkpt lat="48.66324" lon="2.49195">
        <ele>88</ele>
        <time>2013-07-30T11:39:32Z</time>
      </trkpt>
      <trkpt lat="48.66319" lon="2.49198">
        <ele>88</ele>
        <time>2013-07-30T11:39:38Z</time>
      </trkpt>
      <trkpt lat="48.66314" lon="2.492">
        <ele>88</ele>
        <time>2013-07-30T11:39:42Z</time>
      </trkpt>
      <trkpt lat="48.66313" lon="2.49208">
        <ele>88</ele>
        <time>2013-07-30T11:39:48Z</time>
      </trkpt>
      <trkpt lat="48.66308" lon="2.4921">
        <ele>88</ele>
        <time>2013-07-30T11:39:53Z</time>
      </trkpt>
      <trkpt lat="48.66296" lon="2.4921">
        <ele>88</ele>
        <time>2013-07-30T11:40:01Z</time>
      </trkpt>
      <trkpt lat="48.66292" lon="2.49216">
        <ele>88</ele>
        <time>2013-07-30T11:40:07Z</time>
      </trkpt>
      <trkpt lat="48.66287" lon="2.49219">
        <ele>88</ele>
        <time>2013-07-30T11:40:10Z</time>
      </trkpt>
      <trkpt lat="48.66282" lon="2.49217">
        <ele>88</ele>
        <time>2013-07-30T11:40:15Z</time>
      </trkpt>
      <trkpt lat="48.66277" lon="2.49211">
        <ele>88</ele>
        <time>2013-07-30T11:40:18Z</time>
      </trkpt>
      <trkpt lat="48.66273" lon="2.49207">
        <ele>88</ele>
        <time>2013-07-30T11:40:21Z</time>
      </trkpt>
      <trkpt lat="48.66271" lon="2.49201">
        <ele>88</ele>
        <time>2013-07-30T11:40:25Z</time>
      </trkpt>
      <trkpt lat="48.66267" lon="2.49196">
        <ele>88</ele>
        <time>2013-07-30T11:40:28Z</time>
      </trkpt>
      <trkpt lat="48.66262" lon="2.49193">
        <ele>88</ele>
        <time>2013-07-30T11:40:31Z</time>
      </trkpt>
      <trkpt lat="48.66258" lon="2.49194">
        <ele>88</ele>
        <time>2013-07-30T11:40:38Z</time>
      </trkpt>
      <trkpt lat="48.66251" lon="2.49195">
        <ele>88</ele>
        <time>2013-07-30T11:40:43Z</time>
      </trkpt>
      <trkpt lat="48.66247" lon="2.49197">
        <ele>89</ele>
        <time>2013-07-30T11:40:47Z</time>
      </trkpt>
      <trkpt lat="48.66242" lon="2.49194">
        <ele>89</ele>
        <time>2013-07-30T11:40:53Z</time>
      </trkpt>
      <trkpt lat="48.66237" lon="2.49193">
        <ele>89</ele>
        <time>2013-07-30T11:40:57Z</time>
      </trkpt>
      <trkpt lat="48.66232" lon="2.49193">
        <ele>89</ele>
        <time>2013-07-30T11:41:00Z</time>
      </trkpt>
      <trkpt lat="48.66227" lon="2.49192">
        <ele>89</ele>
        <time>2013-07-30T11:41:03Z</time>
      </trkpt>
      <trkpt lat="48.66223" lon="2.4919">
        <ele>89</ele>
        <time>2013-07-30T11:41:07Z</time>
      </trkpt>
      <trkpt lat="48.66216" lon="2.49188">
        <ele>89</ele>
        <time>2013-07-30T11:41:10Z</time>
      </trkpt>
      <trkpt lat="48.66212" lon="2.49186">
        <ele>89</ele>
        <time>2013-07-30T11:41:13Z</time>
      </trkpt>
      <trkpt lat="48.66207" lon="2.49184">
        <ele>89</ele>
        <time>2013-07-30T11:41:20Z</time>
      </trkpt>
      <trkpt lat="48.66201" lon="2.49184">
        <ele>89</ele>
        <time>2013-07-30T11:41:27Z</time>
      </trkpt>
      <trkpt lat="48.66196" lon="2.49187">
        <ele>89</ele>
        <time>2013-07-30T11:41:30Z</time>
      </trkpt>
      <trkpt lat="48.66191" lon="2.49192">
        <ele>89</ele>
        <time>2013-07-30T11:41:35Z</time>
      </trkpt>
      <trkpt lat="48.66186" lon="2.49193">
        <ele>89</ele>
        <time>2013-07-30T11:41:40Z</time>
      </trkpt>
      <trkpt lat="48.66181" lon="2.49196">
        <ele>89</ele>
        <time>2013-07-30T11:41:43Z</time>
      </trkpt>
      <trkpt lat="48.66176" lon="2.49198">
        <ele>90</ele>
        <time>2013-07-30T11:41:46Z</time>
      </trkpt>
      <trkpt lat="48.66174" lon="2.49204">
        <ele>90</ele>
        <time>2013-07-30T11:41:51Z</time>
      </trkpt>
      <trkpt lat="48.66169" lon="2.4921">
        <ele>90</ele>
        <time>2013-07-30T11:41:56Z</time>
      </trkpt>
      <trkpt lat="48.66163" lon="2.49211">
        <ele>90</ele>
        <time>2013-07-30T11:41:59Z</time>
      </trkpt>
      <trkpt lat="48.66159" lon="2.49215">
        <ele>90</ele>
        <time>2013-07-30T11:42:02Z</time>
      </trkpt>
      <trkpt lat="48.66152" lon="2.4922">
        <ele>90</ele>
        <time>2013-07-30T11:42:14Z</time>
      </trkpt>
      <trkpt lat="48.66147" lon="2.49223">
        <ele>90</ele>
        <time>2013-07-30T11:42:19Z</time>
      </trkpt>
      <trkpt lat="48.66142" lon="2.49224">
        <ele>90</ele>
        <time>2013-07-30T11:42:25Z</time>
      </trkpt>
      <trkpt lat="48.66136" lon="2.49227">
        <ele>90</ele>
        <time>2013-07-30T11:42:30Z</time>
      </trkpt>
      <trkpt lat="48.66133" lon="2.49233">
        <ele>90</ele>
        <time>2013-07-30T11:42:37Z</time>
      </trkpt>
      <trkpt lat="48.66128" lon="2.49233">
        <ele>90</ele>
        <time>2013-07-30T11:42:40Z</time>
      </trkpt>
      <trkpt lat="48.66122" lon="2.49235">
        <ele>90</ele>
        <time>2013-07-30T11:42:43Z</time>
      </trkpt>
      <trkpt lat="48.66116" lon="2.49238">
        <ele>90</ele>
        <time>2013-07-30T11:42:46Z</time>
      </trkpt>
      <trkpt lat="48.66111" lon="2.49239">
        <ele>90</ele>
        <time>2013-07-30T11:42:48Z</time>
      </trkpt>
      <trkpt lat="48.66105" lon="2.49241">
        <ele>89</ele>
        <time>2013-07-30T11:42:51Z</time>
      </trkpt>
      <trkpt lat="48.661" lon="2.49242">
        <ele>89</ele>
        <time>2013-07-30T11:42:54Z</time>
      </trkpt>
      <trkpt lat="48.66095" lon="2.4924">
        <ele>89</ele>
        <time>2013-07-30T11:42:58Z</time>
      </trkpt>
      <trkpt lat="48.66091" lon="2.49241">
        <ele>89</ele>
        <time>2013-07-30T11:43:06Z</time>
      </trkpt>
      <trkpt lat="48.66085" lon="2.49241">
        <ele>89</ele>
        <time>2013-07-30T11:43:11Z</time>
      </trkpt>
      <trkpt lat="48.66081" lon="2.49242">
        <ele>89</ele>
        <time>2013-07-30T11:43:14Z</time>
      </trkpt>
      <trkpt lat="48.66077" lon="2.49245">
        <ele>89</ele>
        <time>2013-07-30T11:43:17Z</time>
      </trkpt>
      <trkpt lat="48.66072" lon="2.49251">
        <ele>88</ele>
        <time>2013-07-30T11:43:21Z</time>
      </trkpt>
      <trkpt lat="48.6607" lon="2.49257">
        <ele>88</ele>
        <time>2013-07-30T11:43:24Z</time>
      </trkpt>
      <trkpt lat="48.66066" lon="2.49262">
        <ele>88</ele>
        <time>2013-07-30T11:43:29Z</time>
      </trkpt>
      <trkpt lat="48.66061" lon="2.49266">
        <ele>88</ele>
        <time>2013-07-30T11:43:33Z</time>
      </trkpt>
      <trkpt lat="48.66057" lon="2.49269">
        <ele>88</ele>
        <time>2013-07-30T11:43:52Z</time>
      </trkpt>
      <trkpt lat="48.6605" lon="2.49268">
        <ele>88</ele>
        <time>2013-07-30T11:43:56Z</time>
      </trkpt>
      <trkpt lat="48.66045" lon="2.49267">
        <ele>88</ele>
        <time>2013-07-30T11:43:59Z</time>
      </trkpt>
      <trkpt lat="48.66041" lon="2.49264">
        <ele>88</ele>
        <time>2013-07-30T11:44:03Z</time>
      </trkpt>
      <trkpt lat="48.66036" lon="2.4926">
        <ele>88</ele>
        <time>2013-07-30T11:44:07Z</time>
      </trkpt>
      <trkpt lat="48.66031" lon="2.49258">
        <ele>88</ele>
        <time>2013-07-30T11:44:12Z</time>
      </trkpt>
      <trkpt lat="48.66025" lon="2.49258">
        <ele>88</ele>
        <time>2013-07-30T11:44:15Z</time>
      </trkpt>
      <trkpt lat="48.6602" lon="2.49258">
        <ele>88</ele>
        <time>2013-07-30T11:44:18Z</time>
      </trkpt>
      <trkpt lat="48.66012" lon="2.4926">
        <ele>88</ele>
        <time>2013-07-30T11:44:28Z</time>
      </trkpt>
      <trkpt lat="48.66007" lon="2.49261">
        <ele>88</ele>
        <time>2013-07-30T11:44:30Z</time>
      </trkpt>
      <trkpt lat="48.66002" lon="2.49262">
        <ele>88</ele>
        <time>2013-07-30T11:44:32Z</time>
      </trkpt>
      <trkpt lat="48.65997" lon="2.49264">
        <ele>88</ele>
        <time>2013-07-30T11:44:36Z</time>
      </trkpt>
      <trkpt lat="48.65992" lon="2.49267">
        <ele>88</ele>
        <time>2013-07-30T11:44:41Z</time>
      </trkpt>
      <trkpt lat="48.65987" lon="2.49267">
        <ele>88</ele>
        <time>2013-07-30T11:44:44Z</time>
      </trkpt>
      <trkpt lat="48.65982" lon="2.49265">
        <ele>88</ele>
        <time>2013-07-30T11:44:49Z</time>
      </trkpt>
      <trkpt lat="48.65977" lon="2.49263">
        <ele>87</ele>
        <time>2013-07-30T11:44:54Z</time>
      </trkpt>
      <trkpt lat="48.65973" lon="2.49261">
        <ele>87</ele>
        <time>2013-07-30T11:44:58Z</time>
      </trkpt>
      <trkpt lat="48.65968" lon="2.49258">
        <ele>87</ele>
        <time>2013-07-30T11:45:04Z</time>
      </trkpt>
      <trkpt lat="48.65963" lon="2.49255">
        <ele>87</ele>
        <time>2013-07-30T11:45:10Z</time>
      </trkpt>
      <trkpt lat="48.65959" lon="2.49252">
        <ele>87</ele>
        <time>2013-07-30T11:45:14Z</time>
      </trkpt>
      <trkpt lat="48.65955" lon="2.49248">
        <ele>88</ele>
        <time>2013-07-30T11:45:18Z</time>
      </trkpt>
      <trkpt lat="48.6595" lon="2.49246">
        <ele>88</ele>
        <time>2013-07-30T11:45:21Z</time>
      </trkpt>
      <trkpt lat="48.65944" lon="2.49245">
        <ele>88</ele>
        <time>2013-07-30T11:45:24Z</time>
      </trkpt>
      <trkpt lat="48.6594" lon="2.49244">
        <ele>87</ele>
        <time>2013-07-30T11:45:27Z</time>
      </trkpt>
      <trkpt lat="48.65937" lon="2.49239">
        <ele>87</ele>
        <time>2013-07-30T11:45:37Z</time>
      </trkpt>
      <trkpt lat="48.65934" lon="2.49234">
        <ele>87</ele>
        <time>2013-07-30T11:45:43Z</time>
      </trkpt>
      <trkpt lat="48.65929" lon="2.49231">
        <ele>87</ele>
        <time>2013-07-30T11:45:47Z</time>
      </trkpt>
      <trkpt lat="48.65924" lon="2.49227">
        <ele>87</ele>
        <time>2013-07-30T11:45:51Z</time>
      </trkpt>
      <trkpt lat="48.65919" lon="2.49227">
        <ele>87</ele>
        <time>2013-07-30T11:45:56Z</time>
      </trkpt>
      <trkpt lat="48.65914" lon="2.49225">
        <ele>87</ele>
        <time>2013-07-30T11:46:04Z</time>
      </trkpt>
      <trkpt lat="48.65909" lon="2.49224">
        <ele>87</ele>
        <time>2013-07-30T11:46:11Z</time>
      </trkpt>
      <trkpt lat="48.65904" lon="2.49226">
        <ele>87</ele>
        <time>2013-07-30T11:46:16Z</time>
      </trkpt>
      <trkpt lat="48.659" lon="2.4923">
        <ele>87</ele>
        <time>2013-07-30T11:46:22Z</time>
      </trkpt>
      <trkpt lat="48.65894" lon="2.49231">
        <ele>87</ele>
        <time>2013-07-30T11:46:54Z</time>
      </trkpt>
      <trkpt lat="48.65888" lon="2.49235">
        <ele>87</ele>
        <time>2013-07-30T11:46:58Z</time>
      </trkpt>
      <trkpt lat="48.65884" lon="2.49236">
        <ele>87</ele>
        <time>2013-07-30T11:47:18Z</time>
      </trkpt>
      <trkpt lat="48.65879" lon="2.49237">
        <ele>87</ele>
        <time>2013-07-30T11:47:24Z</time>
      </trkpt>
      <trkpt lat="48.65874" lon="2.4924">
        <ele>87</ele>
        <time>2013-07-30T11:47:27Z</time>
      </trkpt>
      <trkpt lat="48.65869" lon="2.49238">
        <ele>87</ele>
        <time>2013-07-30T11:47:30Z</time>
      </trkpt>
      <trkpt lat="48.65864" lon="2.49237">
        <ele>87</ele>
        <time>2013-07-30T11:47:32Z</time>
      </trkpt>
      <trkpt lat="48.65859" lon="2.49237">
        <ele>87</ele>
        <time>2013-07-30T11:47:37Z</time>
      </trkpt>
      <trkpt lat="48.65853" lon="2.49236">
        <ele>87</ele>
        <time>2013-07-30T11:47:41Z</time>
      </trkpt>
      <trkpt lat="48.65848" lon="2.49237">
        <ele>87</ele>
        <time>2013-07-30T11:47:45Z</time>
      </trkpt>
      <trkpt lat="48.65844" lon="2.49242">
        <ele>87</ele>
        <time>2013-07-30T11:47:48Z</time>
      </trkpt>
      <trkpt lat="48.65839" lon="2.49245">
        <ele>87</ele>
        <time>2013-07-30T11:47:53Z</time>
      </trkpt>
      <trkpt lat="48.65834" lon="2.49244">
        <ele>87</ele>
        <time>2013-07-30T11:47:59Z</time>
      </trkpt>
      <trkpt lat="48.65829" lon="2.49243">
        <ele>87</ele>
        <time>2013-07-30T11:48:03Z</time>
      </trkpt>
      <trkpt lat="48.65825" lon="2.49239">
        <ele>87</ele>
        <time>2013-07-30T11:48:08Z</time>
      </trkpt>
      <trkpt lat="48.65823" lon="2.49244">
        <ele>87</ele>
        <time>2013-07-30T11:48:16Z</time>
      </trkpt>
      <trkpt lat="48.65822" lon="2.49247">
        <ele>87</ele>
        <time>2013-07-30T11:48:22Z</time>
      </trkpt>
      <trkpt lat="48.65817" lon="2.49249">
        <ele>87</ele>
        <time>2013-07-30T11:48:29Z</time>
      </trkpt>
      <trkpt lat="48.65813" lon="2.49246">
        <ele>87</ele>
        <time>2013-07-30T11:48:36Z</time>
      </trkpt>
      <trkpt lat="48.65809" lon="2.49247">
        <ele>87</ele>
        <time>2013-07-30T11:48:45Z</time>
      </trkpt>
      <trkpt lat="48.65804" lon="2.49244">
        <ele>88</ele>
        <time>2013-07-30T11:48:50Z</time>
      </trkpt>
      <trkpt lat="48.65798" lon="2.49245">
        <ele>88</ele>
        <time>2013-07-30T11:48:53Z</time>
      </trkpt>
      <trkpt lat="48.65791" lon="2.49248">
        <ele>88</ele>
        <time>2013-07-30T11:48:56Z</time>
      </trkpt>
      <trkpt lat="48.65786" lon="2.49249">
        <ele>88</ele>
        <time>2013-07-30T11:49:00Z</time>
      </trkpt>
      <trkpt lat="48.6578" lon="2.49251">
        <ele>88</ele>
        <time>2013-07-30T11:49:13Z</time>
      </trkpt>
      <trkpt lat="48.65775" lon="2.49253">
        <ele>88</ele>
        <time>2013-07-30T11:49:18Z</time>
      </trkpt>
      <trkpt lat="48.6577" lon="2.49254">
        <ele>88</ele>
        <time>2013-07-30T11:49:22Z</time>
      </trkpt>
      <trkpt lat="48.65765" lon="2.49254">
        <ele>88</ele>
        <time>2013-07-30T11:49:25Z</time>
      </trkpt>
      <trkpt lat="48.65759" lon="2.49256">
        <ele>88</ele>
        <time>2013-07-30T11:49:29Z</time>
      </trkpt>
      <trkpt lat="48.65755" lon="2.49257">
        <ele>88</ele>
        <time>2013-07-30T11:49:32Z</time>
      </trkpt>
      <trkpt lat="48.6575" lon="2.49257">
        <ele>88</ele>
        <time>2013-07-30T11:49:38Z</time>
      </trkpt>
      <trkpt lat="48.65745" lon="2.49258">
        <ele>87</ele>
        <time>2013-07-30T11:49:44Z</time>
      </trkpt>
      <trkpt lat="48.6574" lon="2.49257">
        <ele>87</ele>
        <time>2013-07-30T11:49:50Z</time>
      </trkpt>
      <trkpt lat="48.65735" lon="2.49257">
        <ele>87</ele>
        <time>2013-07-30T11:49:53Z</time>
      </trkpt>
      <trkpt lat="48.6573" lon="2.49257">
        <ele>87</ele>
        <time>2013-07-30T11:49:58Z</time>
      </trkpt>
      <trkpt lat="48.65725" lon="2.49256">
        <ele>87</ele>
        <time>2013-07-30T11:50:02Z</time>
      </trkpt>
      <trkpt lat="48.65719" lon="2.49252">
        <ele>87</ele>
        <time>2013-07-30T11:50:05Z</time>
      </trkpt>
      <trkpt lat="48.65714" lon="2.4925">
        <ele>87</ele>
        <time>2013-07-30T11:50:08Z</time>
      </trkpt>
      <trkpt lat="48.65709" lon="2.49246">
        <ele>87</ele>
        <time>2013-07-30T11:50:21Z</time>
      </trkpt>
      <trkpt lat="48.65711" lon="2.49242">
        <ele>87</ele>
        <time>2013-07-30T11:50:33Z</time>
      </trkpt>
      <trkpt lat="48.65702" lon="2.49239">
        <ele>87</ele>
        <time>2013-07-30T11:57:53Z</time>
      </trkpt>
      <trkpt lat="48.65706" lon="2.49238">
        <ele>87</ele>
        <time>2013-07-30T12:02:17Z</time>
      </trkpt>
      <trkpt lat="48.65708" lon="2.49235">
        <ele>87</ele>
        <time>2013-07-30T12:02:48Z</time>
      </trkpt>
      <trkpt lat="48.65711" lon="2.49227">
        <ele>87</ele>
        <time>2013-07-30T12:03:40Z</time>
      </trkpt>
      <trkpt lat="48.65712" lon="2.4922">
        <ele>87</ele>
        <time>2013-07-30T12:03:45Z</time>
      </trkpt>
      <trkpt lat="48.65715" lon="2.49215">
        <ele>87</ele>
        <time>2013-07-30T12:03:55Z</time>
      </trkpt>
      <trkpt lat="48.65719" lon="2.49219">
        <ele>87</ele>
        <time>2013-07-30T12:04:07Z</time>
      </trkpt>
      <trkpt lat="48.65717" lon="2.49226">
        <ele>87</ele>
        <time>2013-07-30T12:05:07Z</time>
      </trkpt>
      <trkpt lat="48.65713" lon="2.49229">
        <ele>87</ele>
        <time>2013-07-30T12:06:06Z</time>
      </trkpt>
      <trkpt lat="48.65714" lon="2.49236">
        <ele>87</ele>
        <time>2013-07-30T12:06:59Z</time>
      </trkpt>
      <trkpt lat="48.65706" lon="2.49233">
        <ele>87</ele>
        <time>2013-07-30T12:07:21Z</time>
      </trkpt>
      <trkpt lat="48.6571" lon="2.49229">
        <ele>87</ele>
        <time>2013-07-30T12:07:24Z</time>
      </trkpt>
      <trkpt lat="48.65709" lon="2.49234">
        <ele>87</ele>
        <time>2013-07-30T12:07:51Z</time>
      </trkpt>
      <trkpt lat="48.65713" lon="2.49236">
        <ele>87</ele>
        <time>2013-07-30T12:08:04Z</time>
      </trkpt>
      <trkpt lat="48.65715" lon="2.49243">
        <ele>87</ele>
        <time>2013-07-30T12:09:25Z</time>
      </trkpt>
      <trkpt lat="48.65714" lon="2.49248">
        <ele>87</ele>
        <time>2013-07-30T12:10:27Z</time>
      </trkpt>
      <trkpt lat="48.6571" lon="2.49243">
        <ele>87</ele>
        <time>2013-07-30T12:12:52Z</time>
      </trkpt>
      <trkpt lat="48.65709" lon="2.49244">
        <ele>87</ele>
        <time>2013-07-30T12:14:05Z</time>
      </trkpt>
      <trkpt lat="48.65704" lon="2.49243">
        <ele>87</ele>
        <time>2013-07-30T12:14:11Z</time>
      </trkpt>
      <trkpt lat="48.65695" lon="2.49237">
        <ele>87</ele>
        <time>2013-07-30T12:14:19Z</time>
      </trkpt>
      <trkpt lat="48.6569" lon="2.49231">
        <ele>87</ele>
        <time>2013-07-30T12:14:22Z</time>
      </trkpt>
      <trkpt lat="48.65685" lon="2.49228">
        <ele>87</ele>
        <time>2013-07-30T12:14:25Z</time>
      </trkpt>
      <trkpt lat="48.6568" lon="2.49229">
        <ele>87</ele>
        <time>2013-07-30T12:14:30Z</time>
      </trkpt>
      <trkpt lat="48.65676" lon="2.49234">
        <ele>87</ele>
        <time>2013-07-30T12:14:34Z</time>
      </trkpt>
      <trkpt lat="48.6567" lon="2.49234">
        <ele>87</ele>
        <time>2013-07-30T12:14:55Z</time>
      </trkpt>
      <trkpt lat="48.65665" lon="2.49234">
        <ele>86</ele>
        <time>2013-07-30T12:14:58Z</time>
      </trkpt>
      <trkpt lat="48.65661" lon="2.49232">
        <ele>86</ele>
        <time>2013-07-30T12:15:06Z</time>
      </trkpt>
      <trkpt lat="48.65656" lon="2.49239">
        <ele>86</ele>
        <time>2013-07-30T12:15:09Z</time>
      </trkpt>
      <trkpt lat="48.65651" lon="2.49236">
        <ele>86</ele>
        <time>2013-07-30T12:15:14Z</time>
      </trkpt>
      <trkpt lat="48.65649" lon="2.49232">
        <ele>86</ele>
        <time>2013-07-30T12:15:32Z</time>
      </trkpt>
      <trkpt lat="48.65644" lon="2.49234">
        <ele>86</ele>
        <time>2013-07-30T12:15:38Z</time>
      </trkpt>
      <trkpt lat="48.65639" lon="2.49237">
        <ele>86</ele>
        <time>2013-07-30T12:15:43Z</time>
      </trkpt>
      <trkpt lat="48.65634" lon="2.49238">
        <ele>86</ele>
        <time>2013-07-30T12:15:49Z</time>
      </trkpt>
      <trkpt lat="48.65629" lon="2.4924">
        <ele>86</ele>
        <time>2013-07-30T12:15:53Z</time>
      </trkpt>
      <trkpt lat="48.65625" lon="2.49241">
        <ele>86</ele>
        <time>2013-07-30T12:15:58Z</time>
      </trkpt>
      <trkpt lat="48.65619" lon="2.49243">
        <ele>86</ele>
        <time>2013-07-30T12:16:03Z</time>
      </trkpt>
      <trkpt lat="48.65614" lon="2.49241">
        <ele>86</ele>
        <time>2013-07-30T12:16:07Z</time>
      </trkpt>
      <trkpt lat="48.6561" lon="2.49236">
        <ele>87</ele>
        <time>2013-07-30T12:16:11Z</time>
      </trkpt>
      <trkpt lat="48.65606" lon="2.49232">
        <ele>87</ele>
        <time>2013-07-30T12:16:15Z</time>
      </trkpt>
      <trkpt lat="48.65601" lon="2.49229">
        <ele>87</ele>
        <time>2013-07-30T12:16:20Z</time>
      </trkpt>
      <trkpt lat="48.65595" lon="2.49228">
        <ele>87</ele>
        <time>2013-07-30T12:16:24Z</time>
      </trkpt>
      <trkpt lat="48.65591" lon="2.49223">
        <ele>87</ele>
        <time>2013-07-30T12:16:29Z</time>
      </trkpt>
      <trkpt lat="48.65586" lon="2.4922">
        <ele>87</ele>
        <time>2013-07-30T12:16:35Z</time>
      </trkpt>
      <trkpt lat="48.65584" lon="2.49213">
        <ele>87</ele>
        <time>2013-07-30T12:16:40Z</time>
      </trkpt>
      <trkpt lat="48.65581" lon="2.49207">
        <ele>87</ele>
        <time>2013-07-30T12:16:46Z</time>
      </trkpt>
      <trkpt lat="48.65577" lon="2.49204">
        <ele>87</ele>
        <time>2013-07-30T12:16:52Z</time>
      </trkpt>
      <trkpt lat="48.65573" lon="2.49204">
        <ele>87</ele>
        <time>2013-07-30T12:16:58Z</time>
      </trkpt>
      <trkpt lat="48.65567" lon="2.49195">
        <ele>87</ele>
        <time>2013-07-30T12:17:06Z</time>
      </trkpt>
      <trkpt lat="48.65562" lon="2.49195">
        <ele>87</ele>
        <time>2013-07-30T12:17:20Z</time>
      </trkpt>
      <trkpt lat="48.65557" lon="2.49194">
        <ele>87</ele>
        <time>2013-07-30T12:17:25Z</time>
      </trkpt>
      <trkpt lat="48.65552" lon="2.49193">
        <ele>87</ele>
        <time>2013-07-30T12:17:29Z</time>
      </trkpt>
      <trkpt lat="48.65547" lon="2.49189">
        <ele>87</ele>
        <time>2013-07-30T12:17:33Z</time>
      </trkpt>
      <trkpt lat="48.65543" lon="2.49185">
        <ele>87</ele>
        <time>2013-07-30T12:17:38Z</time>
      </trkpt>
      <trkpt lat="48.6554" lon="2.4918">
        <ele>87</ele>
        <time>2013-07-30T12:17:47Z</time>
      </trkpt>
      <trkpt lat="48.65534" lon="2.49184">
        <ele>87</ele>
        <time>2013-07-30T12:17:53Z</time>
      </trkpt>
      <trkpt lat="48.65531" lon="2.49189">
        <ele>87</ele>
        <time>2013-07-30T12:17:57Z</time>
      </trkpt>
      <trkpt lat="48.65526" lon="2.49185">
        <ele>87</ele>
        <time>2013-07-30T12:18:04Z</time>
      </trkpt>
      <trkpt lat="48.65522" lon="2.4918">
        <ele>87</ele>
        <time>2013-07-30T12:18:08Z</time>
      </trkpt>
      <trkpt lat="48.65517" lon="2.49176">
        <ele>87</ele>
        <time>2013-07-30T12:18:12Z</time>
      </trkpt>
      <trkpt lat="48.65515" lon="2.4917">
        <ele>87</ele>
        <time>2013-07-30T12:18:15Z</time>
      </trkpt>
      <trkpt lat="48.65514" lon="2.49162">
        <ele>87</ele>
        <time>2013-07-30T12:18:19Z</time>
      </trkpt>
      <trkpt lat="48.6551" lon="2.49157">
        <ele>87</ele>
        <time>2013-07-30T12:18:24Z</time>
      </trkpt>
      <trkpt lat="48.65506" lon="2.49153">
        <ele>87</ele>
        <time>2013-07-30T12:18:27Z</time>
      </trkpt>
      <trkpt lat="48.65502" lon="2.49148">
        <ele>87</ele>
        <time>2013-07-30T12:18:30Z</time>
      </trkpt>
      <trkpt lat="48.655" lon="2.49142">
        <ele>86</ele>
        <time>2013-07-30T12:18:34Z</time>
      </trkpt>
      <trkpt lat="48.65496" lon="2.49136">
        <ele>86</ele>
        <time>2013-07-30T12:18:39Z</time>
      </trkpt>
      <trkpt lat="48.65493" lon="2.49131">
        <ele>86</ele>
        <time>2013-07-30T12:18:43Z</time>
      </trkpt>
      <trkpt lat="48.6549" lon="2.49126">
        <ele>86</ele>
        <time>2013-07-30T12:18:49Z</time>
      </trkpt>
      <trkpt lat="48.65485" lon="2.49124">
        <ele>86</ele>
        <time>2013-07-30T12:18:54Z</time>
      </trkpt>
      <trkpt lat="48.6548" lon="2.49124">
        <ele>86</ele>
        <time>2013-07-30T12:18:57Z</time>
      </trkpt>
      <trkpt lat="48.65476" lon="2.49122">
        <ele>86</ele>
        <time>2013-07-30T12:19:00Z</time>
      </trkpt>
      <trkpt lat="48.65471" lon="2.4912">
        <ele>86</ele>
        <time>2013-07-30T12:19:03Z</time>
      </trkpt>
      <trkpt lat="48.65467" lon="2.4912">
        <ele>86</ele>
        <time>2013-07-30T12:19:07Z</time>
      </trkpt>
      <trkpt lat="48.65463" lon="2.49116">
        <ele>86</ele>
        <time>2013-07-30T12:19:13Z</time>
      </trkpt>
      <trkpt lat="48.65458" lon="2.49114">
        <ele>86</ele>
        <time>2013-07-30T12:19:17Z</time>
      </trkpt>
      <trkpt lat="48.65454" lon="2.4911">
        <ele>86</ele>
        <time>2013-07-30T12:19:22Z</time>
      </trkpt>
      <trkpt lat="48.65449" lon="2.49107">
        <ele>86</ele>
        <time>2013-07-30T12:19:26Z</time>
      </trkpt>
      <trkpt lat="48.65445" lon="2.49103">
        <ele>86</ele>
        <time>2013-07-30T12:19:30Z</time>
      </trkpt>
      <trkpt lat="48.6544" lon="2.491">
        <ele>86</ele>
        <time>2013-07-30T12:19:34Z</time>
      </trkpt>
      <trkpt lat="48.65435" lon="2.49098">
        <ele>86</ele>
        <time>2013-07-30T12:19:38Z</time>
      </trkpt>
      <trkpt lat="48.65431" lon="2.49091">
        <ele>86</ele>
        <time>2013-07-30T12:19:58Z</time>
      </trkpt>
      <trkpt lat="48.65427" lon="2.49087">
        <ele>86</ele>
        <time>2013-07-30T12:20:02Z</time>
      </trkpt>
      <trkpt lat="48.65422" lon="2.49082">
        <ele>86</ele>
        <time>2013-07-30T12:20:06Z</time>
      </trkpt>
      <trkpt lat="48.65422" lon="2.49074">
        <ele>86</ele>
        <time>2013-07-30T12:20:11Z</time>
      </trkpt>
      <trkpt lat="48.65431" lon="2.49067">
        <ele>87</ele>
        <time>2013-07-30T12:20:21Z</time>
      </trkpt>
      <trkpt lat="48.65434" lon="2.4908">
        <ele>86</ele>
        <time>2013-07-30T12:20:33Z</time>
      </trkpt>
      <trkpt lat="48.6543" lon="2.49083">
        <ele>86</ele>
        <time>2013-07-30T12:20:36Z</time>
      </trkpt>
      <trkpt lat="48.65425" lon="2.49083">
        <ele>86</ele>
        <time>2013-07-30T12:20:41Z</time>
      </trkpt>
      <trkpt lat="48.65419" lon="2.49083">
        <ele>86</ele>
        <time>2013-07-30T12:20:43Z</time>
      </trkpt>
      <trkpt lat="48.65414" lon="2.49083">
        <ele>86</ele>
        <time>2013-07-30T12:20:45Z</time>
      </trkpt>
      <trkpt lat="48.65408" lon="2.49085">
        <ele>86</ele>
        <time>2013-07-30T12:20:47Z</time>
      </trkpt>
      <trkpt lat="48.65403" lon="2.49084">
        <ele>86</ele>
        <time>2013-07-30T12:20:49Z</time>
      </trkpt>
      <trkpt lat="48.65399" lon="2.49081">
        <ele>87</ele>
        <time>2013-07-30T12:20:52Z</time>
      </trkpt>
      <trkpt lat="48.65389" lon="2.49088">
        <ele>86</ele>
        <time>2013-07-30T12:20:55Z</time>
      </trkpt>
      <trkpt lat="48.65383" lon="2.49094">
        <ele>87</ele>
        <time>2013-07-30T12:20:57Z</time>
      </trkpt>
      <trkpt lat="48.65379" lon="2.49095">
        <ele>87</ele>
        <time>2013-07-30T12:21:01Z</time>
      </trkpt>
      <trkpt lat="48.65375" lon="2.49091">
        <ele>87</ele>
        <time>2013-07-30T12:21:06Z</time>
      </trkpt>
      <trkpt lat="48.6537" lon="2.4909">
        <ele>87</ele>
        <time>2013-07-30T12:21:15Z</time>
      </trkpt>
      <trkpt lat="48.65365" lon="2.49087">
        <ele>87</ele>
        <time>2013-07-30T12:21:21Z</time>
      </trkpt>
      <trkpt lat="48.65363" lon="2.4908">
        <ele>87</ele>
        <time>2013-07-30T12:21:25Z</time>
      </trkpt>
      <trkpt lat="48.65359" lon="2.49077">
        <ele>87</ele>
        <time>2013-07-30T12:21:31Z</time>
      </trkpt>
      <trkpt lat="48.65354" lon="2.49078">
        <ele>87</ele>
        <time>2013-07-30T12:21:34Z</time>
      </trkpt>
      <trkpt lat="48.65349" lon="2.49077">
        <ele>88</ele>
        <time>2013-07-30T12:21:37Z</time>
      </trkpt>
      <trkpt lat="48.65346" lon="2.49077">
        <ele>88</ele>
        <time>2013-07-30T12:21:45Z</time>
      </trkpt>
      <trkpt lat="48.65343" lon="2.49071">
        <ele>88</ele>
        <time>2013-07-30T12:22:00Z</time>
      </trkpt>
      <trkpt lat="48.65337" lon="2.49072">
        <ele>88</ele>
        <time>2013-07-30T12:22:02Z</time>
      </trkpt>
      <trkpt lat="48.65332" lon="2.49072">
        <ele>87</ele>
        <time>2013-07-30T12:22:04Z</time>
      </trkpt>
      <trkpt lat="48.65327" lon="2.4907">
        <ele>87</ele>
        <time>2013-07-30T12:22:07Z</time>
      </trkpt>
      <trkpt lat="48.65322" lon="2.49069">
        <ele>87</ele>
        <time>2013-07-30T12:22:11Z</time>
      </trkpt>
      <trkpt lat="48.65315" lon="2.4907">
        <ele>87</ele>
        <time>2013-07-30T12:22:14Z</time>
      </trkpt>
      <trkpt lat="48.65311" lon="2.4907">
        <ele>87</ele>
        <time>2013-07-30T12:22:17Z</time>
      </trkpt>
      <trkpt lat="48.65306" lon="2.49066">
        <ele>87</ele>
        <time>2013-07-30T12:22:23Z</time>
      </trkpt>
      <trkpt lat="48.65301" lon="2.49067">
        <ele>87</ele>
        <time>2013-07-30T12:22:28Z</time>
      </trkpt>
      <trkpt lat="48.65296" lon="2.4907">
        <ele>87</ele>
        <time>2013-07-30T12:22:34Z</time>
      </trkpt>
      <trkpt lat="48.65292" lon="2.49071">
        <ele>86</ele>
        <time>2013-07-30T12:22:37Z</time>
      </trkpt>
      <trkpt lat="48.65287" lon="2.49069">
        <ele>86</ele>
        <time>2013-07-30T12:22:41Z</time>
      </trkpt>
      <trkpt lat="48.65286" lon="2.49061">
        <ele>86</ele>
        <time>2013-07-30T12:22:46Z</time>
      </trkpt>
      <trkpt lat="48.65281" lon="2.49059">
        <ele>86</ele>
        <time>2013-07-30T12:23:07Z</time>
      </trkpt>
      <trkpt lat="48.65275" lon="2.49057">
        <ele>86</ele>
        <time>2013-07-30T12:23:12Z</time>
      </trkpt>
      <trkpt lat="48.65271" lon="2.49053">
        <ele>86</ele>
        <time>2013-07-30T12:23:18Z</time>
      </trkpt>
      <trkpt lat="48.65268" lon="2.49048">
        <ele>86</ele>
        <time>2013-07-30T12:23:23Z</time>
      </trkpt>
      <trkpt lat="48.65263" lon="2.49048">
        <ele>86</ele>
        <time>2013-07-30T12:23:32Z</time>
      </trkpt>
      <trkpt lat="48.65258" lon="2.49047">
        <ele>86</ele>
        <time>2013-07-30T12:23:36Z</time>
      </trkpt>
      <trkpt lat="48.65252" lon="2.49048">
        <ele>86</ele>
        <time>2013-07-30T12:23:40Z</time>
      </trkpt>
      <trkpt lat="48.65247" lon="2.4905">
        <ele>86</ele>
        <time>2013-07-30T12:23:43Z</time>
      </trkpt>
      <trkpt lat="48.65243" lon="2.4905">
        <ele>86</ele>
        <time>2013-07-30T12:23:46Z</time>
      </trkpt>
      <trkpt lat="48.65238" lon="2.49048">
        <ele>86</ele>
        <time>2013-07-30T12:23:50Z</time>
      </trkpt>
      <trkpt lat="48.65233" lon="2.49047">
        <ele>86</ele>
        <time>2013-07-30T12:23:54Z</time>
      </trkpt>
      <trkpt lat="48.65227" lon="2.49047">
        <ele>86</ele>
        <time>2013-07-30T12:23:58Z</time>
      </trkpt>
      <trkpt lat="48.65222" lon="2.49047">
        <ele>86</ele>
        <time>2013-07-30T12:24:02Z</time>
      </trkpt>
      <trkpt lat="48.65216" lon="2.49047">
        <ele>86</ele>
        <time>2013-07-30T12:24:06Z</time>
      </trkpt>
      <trkpt lat="48.65211" lon="2.49046">
        <ele>86</ele>
        <time>2013-07-30T12:24:10Z</time>
      </trkpt>
      <trkpt lat="48.65206" lon="2.49045">
        <ele>86</ele>
        <time>2013-07-30T12:24:14Z</time>
      </trkpt>
      <trkpt lat="48.65202" lon="2.49043">
        <ele>86</ele>
        <time>2013-07-30T12:24:20Z</time>
      </trkpt>
      <trkpt lat="48.65197" lon="2.49042">
        <ele>86</ele>
        <time>2013-07-30T12:24:26Z</time>
      </trkpt>
      <trkpt lat="48.65192" lon="2.49041">
        <ele>86</ele>
        <time>2013-07-30T12:24:31Z</time>
      </trkpt>
      <trkpt lat="48.65188" lon="2.49037">
        <ele>86</ele>
        <time>2013-07-30T12:24:38Z</time>
      </trkpt>
      <trkpt lat="48.65182" lon="2.49036">
        <ele>86</ele>
        <time>2013-07-30T12:24:43Z</time>
      </trkpt>
      <trkpt lat="48.65177" lon="2.49036">
        <ele>86</ele>
        <time>2013-07-30T12:24:46Z</time>
      </trkpt>
      <trkpt lat="48.65172" lon="2.49036">
        <ele>86</ele>
        <time>2013-07-30T12:24:49Z</time>
      </trkpt>
      <trkpt lat="48.65167" lon="2.49035">
        <ele>86</ele>
        <time>2013-07-30T12:24:53Z</time>
      </trkpt>
      <trkpt lat="48.65161" lon="2.49034">
        <ele>86</ele>
        <time>2013-07-30T12:24:57Z</time>
      </trkpt>
      <trkpt lat="48.65157" lon="2.49036">
        <ele>86</ele>
        <time>2013-07-30T12:25:01Z</time>
      </trkpt>
      <trkpt lat="48.65152" lon="2.49038">
        <ele>86</ele>
        <time>2013-07-30T12:25:04Z</time>
      </trkpt>
      <trkpt lat="48.65148" lon="2.49041">
        <ele>86</ele>
        <time>2013-07-30T12:25:09Z</time>
      </trkpt>
      <trkpt lat="48.65143" lon="2.49039">
        <ele>86</ele>
        <time>2013-07-30T12:25:16Z</time>
      </trkpt>
      <trkpt lat="48.65138" lon="2.49041">
        <ele>86</ele>
        <time>2013-07-30T12:25:24Z</time>
      </trkpt>
      <trkpt lat="48.65133" lon="2.49044">
        <ele>86</ele>
        <time>2013-07-30T12:25:28Z</time>
      </trkpt>
      <trkpt lat="48.65127" lon="2.49042">
        <ele>86</ele>
        <time>2013-07-30T12:25:32Z</time>
      </trkpt>
      <trkpt lat="48.65121" lon="2.49041">
        <ele>85</ele>
        <time>2013-07-30T12:25:36Z</time>
      </trkpt>
      <trkpt lat="48.65117" lon="2.4904">
        <ele>85</ele>
        <time>2013-07-30T12:25:40Z</time>
      </trkpt>
      <trkpt lat="48.65112" lon="2.4904">
        <ele>85</ele>
        <time>2013-07-30T12:25:44Z</time>
      </trkpt>
      <trkpt lat="48.65106" lon="2.49041">
        <ele>85</ele>
        <time>2013-07-30T12:25:48Z</time>
      </trkpt>
      <trkpt lat="48.651" lon="2.49046">
        <ele>85</ele>
        <time>2013-07-30T12:26:04Z</time>
      </trkpt>
      <trkpt lat="48.65095" lon="2.49047">
        <ele>85</ele>
        <time>2013-07-30T12:26:08Z</time>
      </trkpt>
      <trkpt lat="48.65091" lon="2.49049">
        <ele>85</ele>
        <time>2013-07-30T12:26:11Z</time>
      </trkpt>
      <trkpt lat="48.65086" lon="2.4905">
        <ele>85</ele>
        <time>2013-07-30T12:26:15Z</time>
      </trkpt>
      <trkpt lat="48.65083" lon="2.49051">
        <ele>85</ele>
        <time>2013-07-30T12:26:21Z</time>
      </trkpt>
      <trkpt lat="48.65079" lon="2.49051">
        <ele>85</ele>
        <time>2013-07-30T12:26:29Z</time>
      </trkpt>
      <trkpt lat="48.65073" lon="2.4905">
        <ele>85</ele>
        <time>2013-07-30T12:26:33Z</time>
      </trkpt>
      <trkpt lat="48.65069" lon="2.4905">
        <ele>85</ele>
        <time>2013-07-30T12:26:36Z</time>
      </trkpt>
      <trkpt lat="48.65063" lon="2.49052">
        <ele>85</ele>
        <time>2013-07-30T12:26:39Z</time>
      </trkpt>
      <trkpt lat="48.65058" lon="2.49054">
        <ele>85</ele>
        <time>2013-07-30T12:26:42Z</time>
      </trkpt>
      <trkpt lat="48.65053" lon="2.49057">
        <ele>85</ele>
        <time>2013-07-30T12:26:45Z</time>
      </trkpt>
      <trkpt lat="48.65048" lon="2.49058">
        <ele>85</ele>
        <time>2013-07-30T12:26:48Z</time>
      </trkpt>
      <trkpt lat="48.65042" lon="2.49061">
        <ele>85</ele>
        <time>2013-07-30T12:26:59Z</time>
      </trkpt>
      <trkpt lat="48.65039" lon="2.49064">
        <ele>85</ele>
        <time>2013-07-30T12:27:06Z</time>
      </trkpt>
      <trkpt lat="48.65039" lon="2.49067">
        <ele>85</ele>
        <time>2013-07-30T12:27:12Z</time>
      </trkpt>
      <trkpt lat="48.65036" lon="2.49068">
        <ele>86</ele>
        <time>2013-07-30T12:27:19Z</time>
      </trkpt>
      <trkpt lat="48.6503" lon="2.49067">
        <ele>86</ele>
        <time>2013-07-30T12:27:26Z</time>
      </trkpt>
      <trkpt lat="48.65026" lon="2.49067">
        <ele>86</ele>
        <time>2013-07-30T12:27:32Z</time>
      </trkpt>
      <trkpt lat="48.65023" lon="2.49068">
        <ele>86</ele>
        <time>2013-07-30T12:27:55Z</time>
      </trkpt>
      <trkpt lat="48.65021" lon="2.49074">
        <ele>86</ele>
        <time>2013-07-30T12:28:07Z</time>
      </trkpt>
      <trkpt lat="48.65019" lon="2.49081">
        <ele>86</ele>
        <time>2013-07-30T12:28:12Z</time>
      </trkpt>
      <trkpt lat="48.65017" lon="2.49087">
        <ele>85</ele>
        <time>2013-07-30T12:28:16Z</time>
      </trkpt>
      <trkpt lat="48.65015" lon="2.49094">
        <ele>85</ele>
        <time>2013-07-30T12:28:23Z</time>
      </trkpt>
      <trkpt lat="48.65011" lon="2.49099">
        <ele>85</ele>
        <time>2013-07-30T12:28:27Z</time>
      </trkpt>
      <trkpt lat="48.65008" lon="2.49106">
        <ele>84</ele>
        <time>2013-07-30T12:28:31Z</time>
      </trkpt>
      <trkpt lat="48.65004" lon="2.49112">
        <ele>84</ele>
        <time>2013-07-30T12:28:36Z</time>
      </trkpt>
      <trkpt lat="48.65001" lon="2.49118">
        <ele>84</ele>
        <time>2013-07-30T12:28:41Z</time>
      </trkpt>
      <trkpt lat="48.64998" lon="2.49123">
        <ele>86</ele>
        <time>2013-07-30T12:28:45Z</time>
      </trkpt>
      <trkpt lat="48.64995" lon="2.49129">
        <ele>86</ele>
        <time>2013-07-30T12:28:49Z</time>
      </trkpt>
      <trkpt lat="48.64992" lon="2.49135">
        <ele>85</ele>
        <time>2013-07-30T12:28:53Z</time>
      </trkpt>
      <trkpt lat="48.6499" lon="2.49141">
        <ele>85</ele>
        <time>2013-07-30T12:28:57Z</time>
      </trkpt>
      <trkpt lat="48.64987" lon="2.49147">
        <ele>85</ele>
        <time>2013-07-30T12:29:01Z</time>
      </trkpt>
      <trkpt lat="48.64984" lon="2.49153">
        <ele>84</ele>
        <time>2013-07-30T12:29:05Z</time>
      </trkpt>
      <trkpt lat="48.64981" lon="2.49159">
        <ele>84</ele>
        <time>2013-07-30T12:29:10Z</time>
      </trkpt>
      <trkpt lat="48.64978" lon="2.49166">
        <ele>85</ele>
        <time>2013-07-30T12:29:15Z</time>
      </trkpt>
      <trkpt lat="48.64975" lon="2.49172">
        <ele>83</ele>
        <time>2013-07-30T12:29:19Z</time>
      </trkpt>
      <trkpt lat="48.64972" lon="2.49179">
        <ele>83</ele>
        <time>2013-07-30T12:29:24Z</time>
      </trkpt>
      <trkpt lat="48.64969" lon="2.49185">
        <ele>83</ele>
        <time>2013-07-30T12:29:28Z</time>
      </trkpt>
      <trkpt lat="48.64966" lon="2.49191">
        <ele>83</ele>
        <time>2013-07-30T12:29:33Z</time>
      </trkpt>
      <trkpt lat="48.64964" lon="2.49197">
        <ele>83</ele>
        <time>2013-07-30T12:29:37Z</time>
      </trkpt>
      <trkpt lat="48.64961" lon="2.49203">
        <ele>83</ele>
        <time>2013-07-30T12:29:41Z</time>
      </trkpt>
      <trkpt lat="48.64958" lon="2.4921">
        <ele>84</ele>
        <time>2013-07-30T12:29:46Z</time>
      </trkpt>
      <trkpt lat="48.64955" lon="2.49216">
        <ele>84</ele>
        <time>2013-07-30T12:29:50Z</time>
      </trkpt>
      <trkpt lat="48.64952" lon="2.49222">
        <ele>84</ele>
        <time>2013-07-30T12:29:55Z</time>
      </trkpt>
      <trkpt lat="48.64949" lon="2.49228">
        <ele>84</ele>
        <time>2013-07-30T12:30:02Z</time>
      </trkpt>
      <trkpt lat="48.64945" lon="2.49234">
        <ele>84</ele>
        <time>2013-07-30T12:30:07Z</time>
      </trkpt>
      <trkpt lat="48.64942" lon="2.4924">
        <ele>84</ele>
        <time>2013-07-30T12:30:11Z</time>
      </trkpt>
      <trkpt lat="48.64939" lon="2.49247">
        <ele>85</ele>
        <time>2013-07-30T12:30:16Z</time>
      </trkpt>
      <trkpt lat="48.64936" lon="2.49252">
        <ele>84</ele>
        <time>2013-07-30T12:30:20Z</time>
      </trkpt>
      <trkpt lat="48.64933" lon="2.49258">
        <ele>84</ele>
        <time>2013-07-30T12:30:25Z</time>
      </trkpt>
      <trkpt lat="48.6493" lon="2.49265">
        <ele>84</ele>
        <time>2013-07-30T12:30:30Z</time>
      </trkpt>
      <trkpt lat="48.64928" lon="2.4927">
        <ele>84</ele>
        <time>2013-07-30T12:30:41Z</time>
      </trkpt>
      <trkpt lat="48.64918" lon="2.49281">
        <ele>84</ele>
        <time>2013-07-30T12:30:51Z</time>
      </trkpt>
      <trkpt lat="48.6484" lon="2.49425">
        <ele>88</ele>
        <time>2013-07-30T12:33:04Z</time>
      </trkpt>
      <trkpt lat="48.64838" lon="2.49433">
        <ele>88</ele>
        <time>2013-07-30T12:33:25Z</time>
      </trkpt>
      <trkpt lat="48.64834" lon="2.49438">
        <ele>88</ele>
        <time>2013-07-30T12:33:28Z</time>
      </trkpt>
      <trkpt lat="48.6483" lon="2.49443">
        <ele>89</ele>
        <time>2013-07-30T12:33:31Z</time>
      </trkpt>
      <trkpt lat="48.64827" lon="2.49449">
        <ele>89</ele>
        <time>2013-07-30T12:33:34Z</time>
      </trkpt>
      <trkpt lat="48.64827" lon="2.49457">
        <ele>89</ele>
        <time>2013-07-30T12:33:38Z</time>
      </trkpt>
      <trkpt lat="48.64823" lon="2.49465">
        <ele>89</ele>
        <time>2013-07-30T12:33:41Z</time>
      </trkpt>
      <trkpt lat="48.6482" lon="2.49471">
        <ele>89</ele>
        <time>2013-07-30T12:33:43Z</time>
      </trkpt>
      <trkpt lat="48.64816" lon="2.49478">
        <ele>89</ele>
        <time>2013-07-30T12:33:45Z</time>
      </trkpt>
      <trkpt lat="48.64814" lon="2.49485">
        <ele>89</ele>
        <time>2013-07-30T12:33:47Z</time>
      </trkpt>
      <trkpt lat="48.64811" lon="2.49491">
        <ele>89</ele>
        <time>2013-07-30T12:34:07Z</time>
      </trkpt>
      <trkpt lat="48.64806" lon="2.49491">
        <ele>89</ele>
        <time>2013-07-30T12:34:10Z</time>
      </trkpt>
      <trkpt lat="48.648" lon="2.49496">
        <ele>89</ele>
        <time>2013-07-30T12:34:13Z</time>
      </trkpt>
      <trkpt lat="48.64796" lon="2.49499">
        <ele>89</ele>
        <time>2013-07-30T12:34:18Z</time>
      </trkpt>
      <trkpt lat="48.64792" lon="2.49503">
        <ele>89</ele>
        <time>2013-07-30T12:34:24Z</time>
      </trkpt>
      <trkpt lat="48.64788" lon="2.49506">
        <ele>89</ele>
        <time>2013-07-30T12:34:28Z</time>
      </trkpt>
      <trkpt lat="48.64783" lon="2.49509">
        <ele>89</ele>
        <time>2013-07-30T12:34:31Z</time>
      </trkpt>
      <trkpt lat="48.64778" lon="2.49513">
        <ele>89</ele>
        <time>2013-07-30T12:34:34Z</time>
      </trkpt>
      <trkpt lat="48.64775" lon="2.49518">
        <ele>89</ele>
        <time>2013-07-30T12:34:37Z</time>
      </trkpt>
      <trkpt lat="48.64771" lon="2.49523">
        <ele>89</ele>
        <time>2013-07-30T12:34:46Z</time>
      </trkpt>
      <trkpt lat="48.64766" lon="2.49527">
        <ele>89</ele>
        <time>2013-07-30T12:34:49Z</time>
      </trkpt>
      <trkpt lat="48.64761" lon="2.4953">
        <ele>89</ele>
        <time>2013-07-30T12:34:53Z</time>
      </trkpt>
      <trkpt lat="48.64757" lon="2.49534">
        <ele>89</ele>
        <time>2013-07-30T12:34:59Z</time>
      </trkpt>
      <trkpt lat="48.64752" lon="2.49539">
        <ele>89</ele>
        <time>2013-07-30T12:35:09Z</time>
      </trkpt>
      <trkpt lat="48.64744" lon="2.49546">
        <ele>89</ele>
        <time>2013-07-30T12:35:18Z</time>
      </trkpt>
      <trkpt lat="48.6474" lon="2.49551">
        <ele>89</ele>
        <time>2013-07-30T12:35:21Z</time>
      </trkpt>
      <trkpt lat="48.64738" lon="2.49557">
        <ele>89</ele>
        <time>2013-07-30T12:35:33Z</time>
      </trkpt>
      <trkpt lat="48.64734" lon="2.49563">
        <ele>89</ele>
        <time>2013-07-30T12:35:38Z</time>
      </trkpt>
      <trkpt lat="48.64731" lon="2.49568">
        <ele>89</ele>
        <time>2013-07-30T12:35:42Z</time>
      </trkpt>
      <trkpt lat="48.64726" lon="2.49573">
        <ele>89</ele>
        <time>2013-07-30T12:35:46Z</time>
      </trkpt>
      <trkpt lat="48.64722" lon="2.49578">
        <ele>89</ele>
        <time>2013-07-30T12:35:51Z</time>
      </trkpt>
      <trkpt lat="48.64718" lon="2.49582">
        <ele>89</ele>
        <time>2013-07-30T12:35:55Z</time>
      </trkpt>
      <trkpt lat="48.64712" lon="2.49589">
        <ele>87</ele>
        <time>2013-07-30T12:36:05Z</time>
      </trkpt>
      <trkpt lat="48.64709" lon="2.49594">
        <ele>87</ele>
        <time>2013-07-30T12:36:11Z</time>
      </trkpt>
      <trkpt lat="48.64705" lon="2.49599">
        <ele>87</ele>
        <time>2013-07-30T12:36:16Z</time>
      </trkpt>
      <trkpt lat="48.64702" lon="2.49604">
        <ele>86</ele>
        <time>2013-07-30T12:36:21Z</time>
      </trkpt>
      <trkpt lat="48.64697" lon="2.4961">
        <ele>86</ele>
        <time>2013-07-30T12:36:26Z</time>
      </trkpt>
      <trkpt lat="48.64693" lon="2.49614">
        <ele>86</ele>
        <time>2013-07-30T12:36:29Z</time>
      </trkpt>
      <trkpt lat="48.64689" lon="2.49618">
        <ele>86</ele>
        <time>2013-07-30T12:36:33Z</time>
      </trkpt>
      <trkpt lat="48.64684" lon="2.49624">
        <ele>86</ele>
        <time>2013-07-30T12:36:37Z</time>
      </trkpt>
      <trkpt lat="48.64681" lon="2.49629">
        <ele>85</ele>
        <time>2013-07-30T12:36:40Z</time>
      </trkpt>
      <trkpt lat="48.64676" lon="2.49634">
        <ele>85</ele>
        <time>2013-07-30T12:36:43Z</time>
      </trkpt>
      <trkpt lat="48.64672" lon="2.49637">
        <ele>85</ele>
        <time>2013-07-30T12:36:47Z</time>
      </trkpt>
      <trkpt lat="48.64668" lon="2.49643">
        <ele>84</ele>
        <time>2013-07-30T12:36:51Z</time>
      </trkpt>
      <trkpt lat="48.64665" lon="2.49649">
        <ele>82</ele>
        <time>2013-07-30T12:36:55Z</time>
      </trkpt>
      <trkpt lat="48.64661" lon="2.49653">
        <ele>82</ele>
        <time>2013-07-30T12:36:59Z</time>
      </trkpt>
      <trkpt lat="48.64657" lon="2.49655">
        <ele>82</ele>
        <time>2013-07-30T12:37:03Z</time>
      </trkpt>
      <trkpt lat="48.64652" lon="2.49658">
        <ele>82</ele>
        <time>2013-07-30T12:37:07Z</time>
      </trkpt>
      <trkpt lat="48.64648" lon="2.49661">
        <ele>82</ele>
        <time>2013-07-30T12:37:11Z</time>
      </trkpt>
      <trkpt lat="48.64643" lon="2.49663">
        <ele>82</ele>
        <time>2013-07-30T12:37:17Z</time>
      </trkpt>
      <trkpt lat="48.6464" lon="2.49669">
        <ele>79</ele>
        <time>2013-07-30T12:37:23Z</time>
      </trkpt>
      <trkpt lat="48.64637" lon="2.49675">
        <ele>79</ele>
        <time>2013-07-30T12:37:28Z</time>
      </trkpt>
      <trkpt lat="48.64633" lon="2.49678">
        <ele>78</ele>
        <time>2013-07-30T12:37:32Z</time>
      </trkpt>
      <trkpt lat="48.64631" lon="2.49685">
        <ele>78</ele>
        <time>2013-07-30T12:37:36Z</time>
      </trkpt>
      <trkpt lat="48.64629" lon="2.49691">
        <ele>78</ele>
        <time>2013-07-30T12:37:57Z</time>
      </trkpt>
      <trkpt lat="48.64624" lon="2.49696">
        <ele>78</ele>
        <time>2013-07-30T12:38:01Z</time>
      </trkpt>
      <trkpt lat="48.64621" lon="2.49702">
        <ele>77</ele>
        <time>2013-07-30T12:38:06Z</time>
      </trkpt>
      <trkpt lat="48.64618" lon="2.49708">
        <ele>77</ele>
        <time>2013-07-30T12:38:11Z</time>
      </trkpt>
      <trkpt lat="48.64613" lon="2.49712">
        <ele>77</ele>
        <time>2013-07-30T12:38:15Z</time>
      </trkpt>
      <trkpt lat="48.64608" lon="2.49716">
        <ele>77</ele>
        <time>2013-07-30T12:38:19Z</time>
      </trkpt>
      <trkpt lat="48.64604" lon="2.49719">
        <ele>76</ele>
        <time>2013-07-30T12:38:24Z</time>
      </trkpt>
      <trkpt lat="48.646" lon="2.49724">
        <ele>76</ele>
        <time>2013-07-30T12:38:28Z</time>
      </trkpt>
      <trkpt lat="48.64597" lon="2.4973">
        <ele>76</ele>
        <time>2013-07-30T12:38:32Z</time>
      </trkpt>
      <trkpt lat="48.64593" lon="2.49735">
        <ele>75</ele>
        <time>2013-07-30T12:38:35Z</time>
      </trkpt>
      <trkpt lat="48.6459" lon="2.4974">
        <ele>75</ele>
        <time>2013-07-30T12:38:38Z</time>
      </trkpt>
      <trkpt lat="48.64586" lon="2.49744">
        <ele>74</ele>
        <time>2013-07-30T12:38:42Z</time>
      </trkpt>
      <trkpt lat="48.64582" lon="2.49748">
        <ele>73</ele>
        <time>2013-07-30T12:38:45Z</time>
      </trkpt>
      <trkpt lat="48.64578" lon="2.49751">
        <ele>72</ele>
        <time>2013-07-30T12:38:49Z</time>
      </trkpt>
      <trkpt lat="48.64573" lon="2.49754">
        <ele>72</ele>
        <time>2013-07-30T12:38:53Z</time>
      </trkpt>
      <trkpt lat="48.6457" lon="2.49759">
        <ele>72</ele>
        <time>2013-07-30T12:38:57Z</time>
      </trkpt>
      <trkpt lat="48.64566" lon="2.49765">
        <ele>71</ele>
        <time>2013-07-30T12:39:04Z</time>
      </trkpt>
      <trkpt lat="48.64562" lon="2.49768">
        <ele>71</ele>
        <time>2013-07-30T12:39:09Z</time>
      </trkpt>
      <trkpt lat="48.64557" lon="2.49771">
        <ele>71</ele>
        <time>2013-07-30T12:39:15Z</time>
      </trkpt>
      <trkpt lat="48.64552" lon="2.49775">
        <ele>71</ele>
        <time>2013-07-30T12:39:19Z</time>
      </trkpt>
      <trkpt lat="48.64548" lon="2.4978">
        <ele>71</ele>
        <time>2013-07-30T12:39:24Z</time>
      </trkpt>
      <trkpt lat="48.64545" lon="2.49787">
        <ele>71</ele>
        <time>2013-07-30T12:39:28Z</time>
      </trkpt>
      <trkpt lat="48.64543" lon="2.49794">
        <ele>71</ele>
        <time>2013-07-30T12:39:33Z</time>
      </trkpt>
      <trkpt lat="48.64541" lon="2.498">
        <ele>70</ele>
        <time>2013-07-30T12:39:38Z</time>
      </trkpt>
      <trkpt lat="48.64537" lon="2.49805">
        <ele>70</ele>
        <time>2013-07-30T12:39:42Z</time>
      </trkpt>
      <trkpt lat="48.64535" lon="2.49811">
        <ele>70</ele>
        <time>2013-07-30T12:39:47Z</time>
      </trkpt>
      <trkpt lat="48.64532" lon="2.49819">
        <ele>70</ele>
        <time>2013-07-30T12:39:52Z</time>
      </trkpt>
      <trkpt lat="48.6453" lon="2.49825">
        <ele>70</ele>
        <time>2013-07-30T12:39:56Z</time>
      </trkpt>
      <trkpt lat="48.64528" lon="2.49832">
        <ele>70</ele>
        <time>2013-07-30T12:40:03Z</time>
      </trkpt>
      <trkpt lat="48.64526" lon="2.49838">
        <ele>69</ele>
        <time>2013-07-30T12:40:08Z</time>
      </trkpt>
      <trkpt lat="48.64525" lon="2.49846">
        <ele>69</ele>
        <time>2013-07-30T12:40:13Z</time>
      </trkpt>
      <trkpt lat="48.64522" lon="2.49853">
        <ele>69</ele>
        <time>2013-07-30T12:40:17Z</time>
      </trkpt>
      <trkpt lat="48.6452" lon="2.4986">
        <ele>69</ele>
        <time>2013-07-30T12:40:23Z</time>
      </trkpt>
      <trkpt lat="48.64517" lon="2.49867">
        <ele>69</ele>
        <time>2013-07-30T12:40:28Z</time>
      </trkpt>
      <trkpt lat="48.64513" lon="2.49872">
        <ele>68</ele>
        <time>2013-07-30T12:40:34Z</time>
      </trkpt>
      <trkpt lat="48.6451" lon="2.49877">
        <ele>68</ele>
        <time>2013-07-30T12:40:39Z</time>
      </trkpt>
      <trkpt lat="48.64507" lon="2.49883">
        <ele>68</ele>
        <time>2013-07-30T12:40:43Z</time>
      </trkpt>
      <trkpt lat="48.64503" lon="2.49888">
        <ele>68</ele>
        <time>2013-07-30T12:40:47Z</time>
      </trkpt>
      <trkpt lat="48.645" lon="2.49893">
        <ele>66</ele>
        <time>2013-07-30T12:40:51Z</time>
      </trkpt>
      <trkpt lat="48.64497" lon="2.499">
        <ele>66</ele>
        <time>2013-07-30T12:40:57Z</time>
      </trkpt>
      <trkpt lat="48.64497" lon="2.49903">
        <ele>66</ele>
        <time>2013-07-30T12:41:03Z</time>
      </trkpt>
      <trkpt lat="48.64493" lon="2.49907">
        <ele>66</ele>
        <time>2013-07-30T12:41:13Z</time>
      </trkpt>
      <trkpt lat="48.64488" lon="2.49913">
        <ele>66</ele>
        <time>2013-07-30T12:41:34Z</time>
      </trkpt>
      <trkpt lat="48.64485" lon="2.49918">
        <ele>65</ele>
        <time>2013-07-30T12:41:38Z</time>
      </trkpt>
      <trkpt lat="48.64482" lon="2.49924">
        <ele>65</ele>
        <time>2013-07-30T12:41:44Z</time>
      </trkpt>
      <trkpt lat="48.64481" lon="2.49931">
        <ele>65</ele>
        <time>2013-07-30T12:41:50Z</time>
      </trkpt>
      <trkpt lat="48.64477" lon="2.49934">
        <ele>65</ele>
        <time>2013-07-30T12:41:55Z</time>
      </trkpt>
      <trkpt lat="48.64472" lon="2.49938">
        <ele>65</ele>
        <time>2013-07-30T12:42:00Z</time>
      </trkpt>
      <trkpt lat="48.64468" lon="2.49943">
        <ele>65</ele>
        <time>2013-07-30T12:42:05Z</time>
      </trkpt>
      <trkpt lat="48.64465" lon="2.49948">
        <ele>65</ele>
        <time>2013-07-30T12:42:11Z</time>
      </trkpt>
      <trkpt lat="48.64461" lon="2.49953">
        <ele>65</ele>
        <time>2013-07-30T12:42:15Z</time>
      </trkpt>
      <trkpt lat="48.64456" lon="2.49954">
        <ele>64</ele>
        <time>2013-07-30T12:42:19Z</time>
      </trkpt>
      <trkpt lat="48.64452" lon="2.49953">
        <ele>64</ele>
        <time>2013-07-30T12:42:28Z</time>
      </trkpt>
      <trkpt lat="48.64448" lon="2.49951">
        <ele>64</ele>
        <time>2013-07-30T12:42:39Z</time>
      </trkpt>
      <trkpt lat="48.64443" lon="2.49951">
        <ele>64</ele>
        <time>2013-07-30T12:43:10Z</time>
      </trkpt>
      <trkpt lat="48.64438" lon="2.49953">
        <ele>64</ele>
        <time>2013-07-30T12:43:13Z</time>
      </trkpt>
      <trkpt lat="48.64434" lon="2.49956">
        <ele>64</ele>
        <time>2013-07-30T12:43:17Z</time>
      </trkpt>
      <trkpt lat="48.6443" lon="2.49962">
        <ele>64</ele>
        <time>2013-07-30T12:43:20Z</time>
      </trkpt>
      <trkpt lat="48.64427" lon="2.49968">
        <ele>64</ele>
        <time>2013-07-30T12:43:25Z</time>
      </trkpt>
      <trkpt lat="48.64422" lon="2.49972">
        <ele>64</ele>
        <time>2013-07-30T12:43:28Z</time>
      </trkpt>
      <trkpt lat="48.64419" lon="2.49977">
        <ele>64</ele>
        <time>2013-07-30T12:43:31Z</time>
      </trkpt>
      <trkpt lat="48.64417" lon="2.49983">
        <ele>63</ele>
        <time>2013-07-30T12:43:38Z</time>
      </trkpt>
      <trkpt lat="48.64412" lon="2.49988">
        <ele>63</ele>
        <time>2013-07-30T12:43:43Z</time>
      </trkpt>
      <trkpt lat="48.64409" lon="2.49992">
        <ele>63</ele>
        <time>2013-07-30T12:43:46Z</time>
      </trkpt>
      <trkpt lat="48.64404" lon="2.49998">
        <ele>63</ele>
        <time>2013-07-30T12:43:50Z</time>
      </trkpt>
      <trkpt lat="48.64401" lon="2.50003">
        <ele>63</ele>
        <time>2013-07-30T12:43:53Z</time>
      </trkpt>
      <trkpt lat="48.64396" lon="2.50006">
        <ele>63</ele>
        <time>2013-07-30T12:43:56Z</time>
      </trkpt>
      <trkpt lat="48.64391" lon="2.50007">
        <ele>63</ele>
        <time>2013-07-30T12:43:59Z</time>
      </trkpt>
      <trkpt lat="48.64386" lon="2.50009">
        <ele>63</ele>
        <time>2013-07-30T12:44:03Z</time>
      </trkpt>
      <trkpt lat="48.64379" lon="2.50012">
        <ele>63</ele>
        <time>2013-07-30T12:44:07Z</time>
      </trkpt>
      <trkpt lat="48.64375" lon="2.50014">
        <ele>63</ele>
        <time>2013-07-30T12:44:10Z</time>
      </trkpt>
      <trkpt lat="48.6437" lon="2.50016">
        <ele>63</ele>
        <time>2013-07-30T12:44:16Z</time>
      </trkpt>
      <trkpt lat="48.64366" lon="2.50021">
        <ele>63</ele>
        <time>2013-07-30T12:44:22Z</time>
      </trkpt>
      <trkpt lat="48.64362" lon="2.50025">
        <ele>63</ele>
        <time>2013-07-30T12:44:27Z</time>
      </trkpt>
      <trkpt lat="48.64359" lon="2.50029">
        <ele>63</ele>
        <time>2013-07-30T12:44:32Z</time>
      </trkpt>
      <trkpt lat="48.64355" lon="2.50034">
        <ele>63</ele>
        <time>2013-07-30T12:44:36Z</time>
      </trkpt>
      <trkpt lat="48.6435" lon="2.50038">
        <ele>63</ele>
        <time>2013-07-30T12:44:40Z</time>
      </trkpt>
      <trkpt lat="48.64345" lon="2.50042">
        <ele>63</ele>
        <time>2013-07-30T12:44:45Z</time>
      </trkpt>
      <trkpt lat="48.64341" lon="2.50045">
        <ele>63</ele>
        <time>2013-07-30T12:44:49Z</time>
      </trkpt>
      <trkpt lat="48.64336" lon="2.50047">
        <ele>63</ele>
        <time>2013-07-30T12:44:56Z</time>
      </trkpt>
      <trkpt lat="48.64331" lon="2.5005">
        <ele>64</ele>
        <time>2013-07-30T12:45:00Z</time>
      </trkpt>
      <trkpt lat="48.64327" lon="2.50054">
        <ele>64</ele>
        <time>2013-07-30T12:45:03Z</time>
      </trkpt>
      <trkpt lat="48.64323" lon="2.5006">
        <ele>64</ele>
        <time>2013-07-30T12:45:07Z</time>
      </trkpt>
      <trkpt lat="48.64318" lon="2.50063">
        <ele>64</ele>
        <time>2013-07-30T12:45:13Z</time>
      </trkpt>
      <trkpt lat="48.64314" lon="2.50063">
        <ele>65</ele>
        <time>2013-07-30T12:45:19Z</time>
      </trkpt>
      <trkpt lat="48.64309" lon="2.50063">
        <ele>65</ele>
        <time>2013-07-30T12:45:26Z</time>
      </trkpt>
      <trkpt lat="48.64306" lon="2.50062">
        <ele>65</ele>
        <time>2013-07-30T12:45:32Z</time>
      </trkpt>
      <trkpt lat="48.643" lon="2.50062">
        <ele>65</ele>
        <time>2013-07-30T12:45:39Z</time>
      </trkpt>
      <trkpt lat="48.64295" lon="2.50064">
        <ele>65</ele>
        <time>2013-07-30T12:45:43Z</time>
      </trkpt>
      <trkpt lat="48.6429" lon="2.50068">
        <ele>65</ele>
        <time>2013-07-30T12:45:47Z</time>
      </trkpt>
      <trkpt lat="48.64285" lon="2.5007">
        <ele>65</ele>
        <time>2013-07-30T12:45:51Z</time>
      </trkpt>
      <trkpt lat="48.64279" lon="2.5007">
        <ele>65</ele>
        <time>2013-07-30T12:45:55Z</time>
      </trkpt>
      <trkpt lat="48.64274" lon="2.50073">
        <ele>65</ele>
        <time>2013-07-30T12:45:59Z</time>
      </trkpt>
      <trkpt lat="48.64269" lon="2.50073">
        <ele>66</ele>
        <time>2013-07-30T12:46:03Z</time>
      </trkpt>
      <trkpt lat="48.64264" lon="2.50073">
        <ele>66</ele>
        <time>2013-07-30T12:46:07Z</time>
      </trkpt>
      <trkpt lat="48.64259" lon="2.50072">
        <ele>66</ele>
        <time>2013-07-30T12:46:12Z</time>
      </trkpt>
      <trkpt lat="48.64253" lon="2.5007">
        <ele>66</ele>
        <time>2013-07-30T12:46:17Z</time>
      </trkpt>
      <trkpt lat="48.64249" lon="2.50071">
        <ele>68</ele>
        <time>2013-07-30T12:46:24Z</time>
      </trkpt>
      <trkpt lat="48.64244" lon="2.50072">
        <ele>68</ele>
        <time>2013-07-30T12:46:27Z</time>
      </trkpt>
      <trkpt lat="48.64239" lon="2.50071">
        <ele>69</ele>
        <time>2013-07-30T12:46:31Z</time>
      </trkpt>
      <trkpt lat="48.64234" lon="2.50071">
        <ele>69</ele>
        <time>2013-07-30T12:46:37Z</time>
      </trkpt>
      <trkpt lat="48.64229" lon="2.50074">
        <ele>69</ele>
        <time>2013-07-30T12:46:41Z</time>
      </trkpt>
      <trkpt lat="48.64226" lon="2.50079">
        <ele>69</ele>
        <time>2013-07-30T12:46:49Z</time>
      </trkpt>
      <trkpt lat="48.64222" lon="2.50074">
        <ele>70</ele>
        <time>2013-07-30T12:46:56Z</time>
      </trkpt>
      <trkpt lat="48.64217" lon="2.50077">
        <ele>70</ele>
        <time>2013-07-30T12:47:01Z</time>
      </trkpt>
      <trkpt lat="48.64213" lon="2.50082">
        <ele>70</ele>
        <time>2013-07-30T12:47:06Z</time>
      </trkpt>
      <trkpt lat="48.64211" lon="2.50088">
        <ele>71</ele>
        <time>2013-07-30T12:47:12Z</time>
      </trkpt>
      <trkpt lat="48.64207" lon="2.50093">
        <ele>71</ele>
        <time>2013-07-30T12:47:16Z</time>
      </trkpt>
      <trkpt lat="48.64202" lon="2.50096">
        <ele>72</ele>
        <time>2013-07-30T12:47:23Z</time>
      </trkpt>
      <trkpt lat="48.64199" lon="2.50103">
        <ele>72</ele>
        <time>2013-07-30T12:47:38Z</time>
      </trkpt>
      <trkpt lat="48.64196" lon="2.50111">
        <ele>72</ele>
        <time>2013-07-30T12:47:42Z</time>
      </trkpt>
      <trkpt lat="48.64192" lon="2.50119">
        <ele>72</ele>
        <time>2013-07-30T12:47:45Z</time>
      </trkpt>
      <trkpt lat="48.64188" lon="2.50127">
        <ele>72</ele>
        <time>2013-07-30T12:47:48Z</time>
      </trkpt>
      <trkpt lat="48.64185" lon="2.50134">
        <ele>72</ele>
        <time>2013-07-30T12:47:52Z</time>
      </trkpt>
      <trkpt lat="48.64183" lon="2.50141">
        <ele>72</ele>
        <time>2013-07-30T12:47:56Z</time>
      </trkpt>
      <trkpt lat="48.6418" lon="2.50149">
        <ele>73</ele>
        <time>2013-07-30T12:48:00Z</time>
      </trkpt>
      <trkpt lat="48.64177" lon="2.50155">
        <ele>73</ele>
        <time>2013-07-30T12:48:03Z</time>
      </trkpt>
      <trkpt lat="48.64174" lon="2.5016">
        <ele>73</ele>
        <time>2013-07-30T12:48:08Z</time>
      </trkpt>
      <trkpt lat="48.6417" lon="2.50164">
        <ele>74</ele>
        <time>2013-07-30T12:48:15Z</time>
      </trkpt>
      <trkpt lat="48.64167" lon="2.5017">
        <ele>74</ele>
        <time>2013-07-30T12:48:20Z</time>
      </trkpt>
      <trkpt lat="48.64164" lon="2.50177">
        <ele>74</ele>
        <time>2013-07-30T12:48:25Z</time>
      </trkpt>
      <trkpt lat="48.6416" lon="2.50181">
        <ele>74</ele>
        <time>2013-07-30T12:48:29Z</time>
      </trkpt>
      <trkpt lat="48.64157" lon="2.50187">
        <ele>75</ele>
        <time>2013-07-30T12:48:32Z</time>
      </trkpt>
      <trkpt lat="48.64153" lon="2.50192">
        <ele>75</ele>
        <time>2013-07-30T12:48:35Z</time>
      </trkpt>
      <trkpt lat="48.64151" lon="2.50205">
        <ele>75</ele>
        <time>2013-07-30T12:48:46Z</time>
      </trkpt>
      <trkpt lat="48.64152" lon="2.50219">
        <ele>75</ele>
        <time>2013-07-30T12:48:57Z</time>
      </trkpt>
      <trkpt lat="48.64148" lon="2.50223">
        <ele>75</ele>
        <time>2013-07-30T12:49:01Z</time>
      </trkpt>
      <trkpt lat="48.64145" lon="2.5023">
        <ele>75</ele>
        <time>2013-07-30T12:49:05Z</time>
      </trkpt>
      <trkpt lat="48.64147" lon="2.50233">
        <ele>75</ele>
        <time>2013-07-30T12:49:23Z</time>
      </trkpt>
      <trkpt lat="48.64146" lon="2.50242">
        <ele>75</ele>
        <time>2013-07-30T12:49:29Z</time>
      </trkpt>
      <trkpt lat="48.64144" lon="2.5025">
        <ele>75</ele>
        <time>2013-07-30T12:49:33Z</time>
      </trkpt>
      <trkpt lat="48.6414" lon="2.50256">
        <ele>75</ele>
        <time>2013-07-30T12:49:37Z</time>
      </trkpt>
      <trkpt lat="48.64141" lon="2.50264">
        <ele>75</ele>
        <time>2013-07-30T12:49:44Z</time>
      </trkpt>
      <trkpt lat="48.64141" lon="2.50272">
        <ele>75</ele>
        <time>2013-07-30T12:49:50Z</time>
      </trkpt>
      <trkpt lat="48.64137" lon="2.50276">
        <ele>76</ele>
        <time>2013-07-30T12:49:54Z</time>
      </trkpt>
      <trkpt lat="48.64134" lon="2.50281">
        <ele>76</ele>
        <time>2013-07-30T12:50:02Z</time>
      </trkpt>
      <trkpt lat="48.64132" lon="2.50289">
        <ele>76</ele>
        <time>2013-07-30T12:50:06Z</time>
      </trkpt>
      <trkpt lat="48.64132" lon="2.50297">
        <ele>76</ele>
        <time>2013-07-30T12:50:09Z</time>
      </trkpt>
      <trkpt lat="48.64132" lon="2.50304">
        <ele>76</ele>
        <time>2013-07-30T12:50:14Z</time>
      </trkpt>
      <trkpt lat="48.6412" lon="2.50325">
        <ele>76</ele>
        <time>2013-07-30T12:50:51Z</time>
      </trkpt>
      <trkpt lat="48.64131" lon="2.50316">
        <ele>76</ele>
        <time>2013-07-30T12:53:51Z</time>
      </trkpt>
      <trkpt lat="48.64112" lon="2.50351">
        <ele>78</ele>
        <time>2013-07-30T12:56:51Z</time>
      </trkpt>
      <trkpt lat="48.64065" lon="2.50428">
        <ele>81</ele>
        <time>2013-07-30T12:59:51Z</time>
      </trkpt>
      <trkpt lat="48.63914" lon="2.50615">
        <ele>83</ele>
        <time>2013-07-30T13:02:51Z</time>
      </trkpt>
      <trkpt lat="48.63921" lon="2.5065">
        <ele>83</ele>
        <time>2013-07-30T13:05:51Z</time>
      </trkpt>
      <trkpt lat="48.63957" lon="2.50757">
        <ele>83</ele>
        <time>2013-07-30T13:08:51Z</time>
      </trkpt>
      <trkpt lat="48.64013" lon="2.50889">
        <ele>83</ele>
        <time>2013-07-30T13:11:51Z</time>
      </trkpt>
      <trkpt lat="48.6399" lon="2.50897">
        <ele>83</ele>
        <time>2013-07-30T13:14:51Z</time>
      </trkpt>
      <trkpt lat="48.63923" lon="2.50915">
        <ele>83</ele>
        <time>2013-07-30T13:17:51Z</time>
      </trkpt>
      <trkpt lat="48.639" lon="2.5095">
        <ele>82</ele>
        <time>2013-07-30T13:20:51Z</time>
      </trkpt>
      <trkpt lat="48.63874" lon="2.50978">
        <ele>81</ele>
        <time>2013-07-30T13:23:51Z</time>
      </trkpt>
      <trkpt lat="48.63854" lon="2.51048">
        <ele>81</ele>
        <time>2013-07-30T13:26:51Z</time>
      </trkpt>
      <trkpt lat="48.63684" lon="2.5166">
        <ele>82</ele>
        <time>2013-07-30T13:28:51Z</time>
      </trkpt>
      <trkpt lat="48.63679" lon="2.51659">
        <ele>82</ele>
        <time>2013-07-30T13:29:03Z</time>
      </trkpt>
      <trkpt lat="48.63679" lon="2.51666">
        <ele>82</ele>
        <time>2013-07-30T13:29:16Z</time>
      </trkpt>
      <trkpt lat="48.63676" lon="2.51673">
        <ele>82</ele>
        <time>2013-07-30T13:29:18Z</time>
      </trkpt>
      <trkpt lat="48.63674" lon="2.51679">
        <ele>82</ele>
        <time>2013-07-30T13:29:22Z</time>
      </trkpt>
      <trkpt lat="48.63673" lon="2.51687">
        <ele>81</ele>
        <time>2013-07-30T13:29:27Z</time>
      </trkpt>
      <trkpt lat="48.6367" lon="2.51693">
        <ele>81</ele>
        <time>2013-07-30T13:29:31Z</time>
      </trkpt>
      <trkpt lat="48.63669" lon="2.51699">
        <ele>81</ele>
        <time>2013-07-30T13:29:36Z</time>
      </trkpt>
      <trkpt lat="48.63667" lon="2.51706">
        <ele>81</ele>
        <time>2013-07-30T13:29:40Z</time>
      </trkpt>
      <trkpt lat="48.63665" lon="2.51713">
        <ele>82</ele>
        <time>2013-07-30T13:29:46Z</time>
      </trkpt>
      <trkpt lat="48.63663" lon="2.51719">
        <ele>82</ele>
        <time>2013-07-30T13:29:49Z</time>
      </trkpt>
      <trkpt lat="48.63661" lon="2.51726">
        <ele>81</ele>
        <time>2013-07-30T13:29:54Z</time>
      </trkpt>
      <trkpt lat="48.63659" lon="2.51733">
        <ele>81</ele>
        <time>2013-07-30T13:29:59Z</time>
      </trkpt>
      <trkpt lat="48.63657" lon="2.51739">
        <ele>81</ele>
        <time>2013-07-30T13:30:04Z</time>
      </trkpt>
      <trkpt lat="48.63655" lon="2.51745">
        <ele>81</ele>
        <time>2013-07-30T13:30:09Z</time>
      </trkpt>
      <trkpt lat="48.63653" lon="2.51752">
        <ele>82</ele>
        <time>2013-07-30T13:30:14Z</time>
      </trkpt>
      <trkpt lat="48.6365" lon="2.51759">
        <ele>82</ele>
        <time>2013-07-30T13:30:18Z</time>
      </trkpt>
      <trkpt lat="48.63648" lon="2.51766">
        <ele>82</ele>
        <time>2013-07-30T13:30:23Z</time>
      </trkpt>
      <trkpt lat="48.63646" lon="2.51773">
        <ele>82</ele>
        <time>2013-07-30T13:30:28Z</time>
      </trkpt>
      <trkpt lat="48.63644" lon="2.5178">
        <ele>82</ele>
        <time>2013-07-30T13:30:33Z</time>
      </trkpt>
      <trkpt lat="48.63641" lon="2.51786">
        <ele>82</ele>
        <time>2013-07-30T13:30:38Z</time>
      </trkpt>
      <trkpt lat="48.63639" lon="2.51794">
        <ele>82</ele>
        <time>2013-07-30T13:30:41Z</time>
      </trkpt>
      <trkpt lat="48.63637" lon="2.51801">
        <ele>82</ele>
        <time>2013-07-30T13:30:48Z</time>
      </trkpt>
      <trkpt lat="48.63635" lon="2.51808">
        <ele>82</ele>
        <time>2013-07-30T13:30:52Z</time>
      </trkpt>
      <trkpt lat="48.63633" lon="2.51815">
        <ele>83</ele>
        <time>2013-07-30T13:30:57Z</time>
      </trkpt>
      <trkpt lat="48.63631" lon="2.51822">
        <ele>83</ele>
        <time>2013-07-30T13:31:02Z</time>
      </trkpt>
      <trkpt lat="48.63628" lon="2.51829">
        <ele>83</ele>
        <time>2013-07-30T13:31:06Z</time>
      </trkpt>
      <trkpt lat="48.63628" lon="2.51835">
        <ele>83</ele>
        <time>2013-07-30T13:31:15Z</time>
      </trkpt>
      <trkpt lat="48.63629" lon="2.51842">
        <ele>83</ele>
        <time>2013-07-30T13:31:52Z</time>
      </trkpt>
      <trkpt lat="48.63626" lon="2.51848">
        <ele>83</ele>
        <time>2013-07-30T13:31:56Z</time>
      </trkpt>
      <trkpt lat="48.63623" lon="2.51854">
        <ele>83</ele>
        <time>2013-07-30T13:32:00Z</time>
      </trkpt>
      <trkpt lat="48.63621" lon="2.51861">
        <ele>83</ele>
        <time>2013-07-30T13:32:04Z</time>
      </trkpt>
      <trkpt lat="48.63619" lon="2.51866">
        <ele>83</ele>
        <time>2013-07-30T13:32:14Z</time>
      </trkpt>
      <trkpt lat="48.63618" lon="2.51873">
        <ele>83</ele>
        <time>2013-07-30T13:32:30Z</time>
      </trkpt>
      <trkpt lat="48.63616" lon="2.51879">
        <ele>83</ele>
        <time>2013-07-30T13:32:34Z</time>
      </trkpt>
      <trkpt lat="48.63613" lon="2.51886">
        <ele>83</ele>
        <time>2013-07-30T13:32:40Z</time>
      </trkpt>
      <trkpt lat="48.63611" lon="2.51893">
        <ele>83</ele>
        <time>2013-07-30T13:32:43Z</time>
      </trkpt>
      <trkpt lat="48.63608" lon="2.519">
        <ele>83</ele>
        <time>2013-07-30T13:32:48Z</time>
      </trkpt>
      <trkpt lat="48.63606" lon="2.51907">
        <ele>83</ele>
        <time>2013-07-30T13:32:52Z</time>
      </trkpt>
      <trkpt lat="48.63604" lon="2.51915">
        <ele>83</ele>
        <time>2013-07-30T13:32:56Z</time>
      </trkpt>
      <trkpt lat="48.63604" lon="2.51923">
        <ele>83</ele>
        <time>2013-07-30T13:33:03Z</time>
      </trkpt>
      <trkpt lat="48.63602" lon="2.5193">
        <ele>83</ele>
        <time>2013-07-30T13:33:09Z</time>
      </trkpt>
      <trkpt lat="48.636" lon="2.51937">
        <ele>83</ele>
        <time>2013-07-30T13:33:13Z</time>
      </trkpt>
      <trkpt lat="48.63598" lon="2.51944">
        <ele>83</ele>
        <time>2013-07-30T13:33:18Z</time>
      </trkpt>
      <trkpt lat="48.63595" lon="2.5195">
        <ele>83</ele>
        <time>2013-07-30T13:33:22Z</time>
      </trkpt>
      <trkpt lat="48.63593" lon="2.51957">
        <ele>83</ele>
        <time>2013-07-30T13:33:26Z</time>
      </trkpt>
      <trkpt lat="48.63592" lon="2.51965">
        <ele>83</ele>
        <time>2013-07-30T13:33:29Z</time>
      </trkpt>
      <trkpt lat="48.63591" lon="2.51972">
        <ele>83</ele>
        <time>2013-07-30T13:33:38Z</time>
      </trkpt>
      <trkpt lat="48.63588" lon="2.51978">
        <ele>83</ele>
        <time>2013-07-30T13:33:41Z</time>
      </trkpt>
      <trkpt lat="48.63585" lon="2.51985">
        <ele>83</ele>
        <time>2013-07-30T13:33:43Z</time>
      </trkpt>
      <trkpt lat="48.63582" lon="2.51993">
        <ele>83</ele>
        <time>2013-07-30T13:33:47Z</time>
      </trkpt>
      <trkpt lat="48.63581" lon="2.52">
        <ele>83</ele>
        <time>2013-07-30T13:33:54Z</time>
      </trkpt>
      <trkpt lat="48.63577" lon="2.52007">
        <ele>83</ele>
        <time>2013-07-30T13:33:58Z</time>
      </trkpt>
      <trkpt lat="48.63574" lon="2.52014">
        <ele>83</ele>
        <time>2013-07-30T13:34:00Z</time>
      </trkpt>
      <trkpt lat="48.63574" lon="2.5202">
        <ele>83</ele>
        <time>2013-07-30T13:34:09Z</time>
      </trkpt>
      <trkpt lat="48.63572" lon="2.52031">
        <ele>83</ele>
        <time>2013-07-30T13:34:24Z</time>
      </trkpt>
      <trkpt lat="48.6357" lon="2.52038">
        <ele>83</ele>
        <time>2013-07-30T13:34:28Z</time>
      </trkpt>
      <trkpt lat="48.63568" lon="2.52045">
        <ele>83</ele>
        <time>2013-07-30T13:34:31Z</time>
      </trkpt>
      <trkpt lat="48.63567" lon="2.52054">
        <ele>83</ele>
        <time>2013-07-30T13:34:35Z</time>
      </trkpt>
      <trkpt lat="48.63566" lon="2.52062">
        <ele>83</ele>
        <time>2013-07-30T13:34:39Z</time>
      </trkpt>
      <trkpt lat="48.63564" lon="2.52069">
        <ele>83</ele>
        <time>2013-07-30T13:34:42Z</time>
      </trkpt>
      <trkpt lat="48.63561" lon="2.52076">
        <ele>83</ele>
        <time>2013-07-30T13:34:46Z</time>
      </trkpt>
      <trkpt lat="48.63559" lon="2.52084">
        <ele>83</ele>
        <time>2013-07-30T13:34:50Z</time>
      </trkpt>
      <trkpt lat="48.63556" lon="2.52091">
        <ele>83</ele>
        <time>2013-07-30T13:34:54Z</time>
      </trkpt>
      <trkpt lat="48.63555" lon="2.52098">
        <ele>83</ele>
        <time>2013-07-30T13:34:58Z</time>
      </trkpt>
      <trkpt lat="48.63552" lon="2.52105">
        <ele>83</ele>
        <time>2013-07-30T13:35:02Z</time>
      </trkpt>
      <trkpt lat="48.63549" lon="2.52112">
        <ele>83</ele>
        <time>2013-07-30T13:35:05Z</time>
      </trkpt>
      <trkpt lat="48.63546" lon="2.52118">
        <ele>83</ele>
        <time>2013-07-30T13:35:09Z</time>
      </trkpt>
      <trkpt lat="48.63546" lon="2.52126">
        <ele>83</ele>
        <time>2013-07-30T13:35:20Z</time>
      </trkpt>
      <trkpt lat="48.63544" lon="2.52133">
        <ele>83</ele>
        <time>2013-07-30T13:35:22Z</time>
      </trkpt>
      <trkpt lat="48.63542" lon="2.52141">
        <ele>83</ele>
        <time>2013-07-30T13:35:26Z</time>
      </trkpt>
      <trkpt lat="48.6354" lon="2.52147">
        <ele>83</ele>
        <time>2013-07-30T13:35:29Z</time>
      </trkpt>
      <trkpt lat="48.63538" lon="2.52154">
        <ele>83</ele>
        <time>2013-07-30T13:35:37Z</time>
      </trkpt>
      <trkpt lat="48.63536" lon="2.52161">
        <ele>83</ele>
        <time>2013-07-30T13:35:40Z</time>
      </trkpt>
      <trkpt lat="48.63534" lon="2.52168">
        <ele>83</ele>
        <time>2013-07-30T13:35:45Z</time>
      </trkpt>
      <trkpt lat="48.63531" lon="2.52175">
        <ele>83</ele>
        <time>2013-07-30T13:35:49Z</time>
      </trkpt>
      <trkpt lat="48.63529" lon="2.52181">
        <ele>83</ele>
        <time>2013-07-30T13:35:53Z</time>
      </trkpt>
      <trkpt lat="48.63527" lon="2.52188">
        <ele>83</ele>
        <time>2013-07-30T13:35:58Z</time>
      </trkpt>
      <trkpt lat="48.63524" lon="2.52195">
        <ele>83</ele>
        <time>2013-07-30T13:36:03Z</time>
      </trkpt>
      <trkpt lat="48.63522" lon="2.52201">
        <ele>83</ele>
        <time>2013-07-30T13:36:05Z</time>
      </trkpt>
      <trkpt lat="48.63521" lon="2.52208">
        <ele>83</ele>
        <time>2013-07-30T13:36:11Z</time>
      </trkpt>
      <trkpt lat="48.63519" lon="2.52216">
        <ele>83</ele>
        <time>2013-07-30T13:36:15Z</time>
      </trkpt>
      <trkpt lat="48.63516" lon="2.52222">
        <ele>83</ele>
        <time>2013-07-30T13:36:20Z</time>
      </trkpt>
      <trkpt lat="48.63515" lon="2.52229">
        <ele>83</ele>
        <time>2013-07-30T13:36:24Z</time>
      </trkpt>
      <trkpt lat="48.63513" lon="2.52237">
        <ele>83</ele>
        <time>2013-07-30T13:36:28Z</time>
      </trkpt>
      <trkpt lat="48.6351" lon="2.52245">
        <ele>83</ele>
        <time>2013-07-30T13:36:36Z</time>
      </trkpt>
      <trkpt lat="48.63509" lon="2.52252">
        <ele>83</ele>
        <time>2013-07-30T13:36:39Z</time>
      </trkpt>
      <trkpt lat="48.63506" lon="2.52259">
        <ele>83</ele>
        <time>2013-07-30T13:36:44Z</time>
      </trkpt>
      <trkpt lat="48.63505" lon="2.52266">
        <ele>83</ele>
        <time>2013-07-30T13:36:49Z</time>
      </trkpt>
      <trkpt lat="48.63503" lon="2.52274">
        <ele>83</ele>
        <time>2013-07-30T13:36:54Z</time>
      </trkpt>
      <trkpt lat="48.63501" lon="2.52281">
        <ele>83</ele>
        <time>2013-07-30T13:36:59Z</time>
      </trkpt>
      <trkpt lat="48.635" lon="2.52289">
        <ele>84</ele>
        <time>2013-07-30T13:37:04Z</time>
      </trkpt>
      <trkpt lat="48.63497" lon="2.52295">
        <ele>84</ele>
        <time>2013-07-30T13:37:08Z</time>
      </trkpt>
      <trkpt lat="48.63494" lon="2.52303">
        <ele>84</ele>
        <time>2013-07-30T13:37:14Z</time>
      </trkpt>
      <trkpt lat="48.63492" lon="2.52309">
        <ele>84</ele>
        <time>2013-07-30T13:37:18Z</time>
      </trkpt>
      <trkpt lat="48.6349" lon="2.52316">
        <ele>84</ele>
        <time>2013-07-30T13:37:22Z</time>
      </trkpt>
      <trkpt lat="48.63489" lon="2.5232">
        <ele>84</ele>
        <time>2013-07-30T13:37:31Z</time>
      </trkpt>
      <trkpt lat="48.63488" lon="2.52327">
        <ele>84</ele>
        <time>2013-07-30T13:37:36Z</time>
      </trkpt>
      <trkpt lat="48.63485" lon="2.52334">
        <ele>84</ele>
        <time>2013-07-30T13:37:41Z</time>
      </trkpt>
      <trkpt lat="48.63484" lon="2.52341">
        <ele>84</ele>
        <time>2013-07-30T13:37:47Z</time>
      </trkpt>
      <trkpt lat="48.63482" lon="2.52347">
        <ele>84</ele>
        <time>2013-07-30T13:37:52Z</time>
      </trkpt>
      <trkpt lat="48.6348" lon="2.52355">
        <ele>84</ele>
        <time>2013-07-30T13:37:56Z</time>
      </trkpt>
      <trkpt lat="48.63478" lon="2.52363">
        <ele>84</ele>
        <time>2013-07-30T13:38:02Z</time>
      </trkpt>
      <trkpt lat="48.63477" lon="2.5237">
        <ele>84</ele>
        <time>2013-07-30T13:38:06Z</time>
      </trkpt>
      <trkpt lat="48.63475" lon="2.52378">
        <ele>84</ele>
        <time>2013-07-30T13:38:12Z</time>
      </trkpt>
      <trkpt lat="48.63474" lon="2.52385">
        <ele>84</ele>
        <time>2013-07-30T13:38:16Z</time>
      </trkpt>
      <trkpt lat="48.63473" lon="2.52392">
        <ele>84</ele>
        <time>2013-07-30T13:38:21Z</time>
      </trkpt>
      <trkpt lat="48.6347" lon="2.52402">
        <ele>84</ele>
        <time>2013-07-30T13:38:26Z</time>
      </trkpt>
      <trkpt lat="48.63469" lon="2.52409">
        <ele>84</ele>
        <time>2013-07-30T13:38:30Z</time>
      </trkpt>
      <trkpt lat="48.63467" lon="2.52416">
        <ele>84</ele>
        <time>2013-07-30T13:38:37Z</time>
      </trkpt>
      <trkpt lat="48.63465" lon="2.52423">
        <ele>84</ele>
        <time>2013-07-30T13:38:42Z</time>
      </trkpt>
      <trkpt lat="48.63464" lon="2.5243">
        <ele>84</ele>
        <time>2013-07-30T13:38:47Z</time>
      </trkpt>
      <trkpt lat="48.63462" lon="2.52437">
        <ele>84</ele>
        <time>2013-07-30T13:38:54Z</time>
      </trkpt>
      <trkpt lat="48.63459" lon="2.52443">
        <ele>84</ele>
        <time>2013-07-30T13:38:58Z</time>
      </trkpt>
      <trkpt lat="48.63458" lon="2.52445">
        <ele>84</ele>
        <time>2013-07-30T13:39:04Z</time>
      </trkpt>
      <trkpt lat="48.63455" lon="2.52452">
        <ele>84</ele>
        <time>2013-07-30T13:39:10Z</time>
      </trkpt>
      <trkpt lat="48.63449" lon="2.52463">
        <ele>84</ele>
        <time>2013-07-30T13:39:23Z</time>
      </trkpt>
      <trkpt lat="48.63445" lon="2.52474">
        <ele>84</ele>
        <time>2013-07-30T13:39:32Z</time>
      </trkpt>
      <trkpt lat="48.63441" lon="2.52478">
        <ele>84</ele>
        <time>2013-07-30T13:39:34Z</time>
      </trkpt>
      <trkpt lat="48.63437" lon="2.52482">
        <ele>84</ele>
        <time>2013-07-30T13:39:37Z</time>
      </trkpt>
      <trkpt lat="48.63434" lon="2.52489">
        <ele>84</ele>
        <time>2013-07-30T13:39:40Z</time>
      </trkpt>
      <trkpt lat="48.63432" lon="2.52497">
        <ele>84</ele>
        <time>2013-07-30T13:39:43Z</time>
      </trkpt>
      <trkpt lat="48.63429" lon="2.52504">
        <ele>84</ele>
        <time>2013-07-30T13:39:46Z</time>
      </trkpt>
      <trkpt lat="48.63427" lon="2.52511">
        <ele>84</ele>
        <time>2013-07-30T13:39:49Z</time>
      </trkpt>
      <trkpt lat="48.63425" lon="2.52516">
        <ele>83</ele>
        <time>2013-07-30T13:39:57Z</time>
      </trkpt>
      <trkpt lat="48.63423" lon="2.5252">
        <ele>83</ele>
        <time>2013-07-30T13:40:04Z</time>
      </trkpt>
      <trkpt lat="48.6342" lon="2.52526">
        <ele>83</ele>
        <time>2013-07-30T13:40:07Z</time>
      </trkpt>
      <trkpt lat="48.63417" lon="2.52536">
        <ele>83</ele>
        <time>2013-07-30T13:40:12Z</time>
      </trkpt>
      <trkpt lat="48.63413" lon="2.52542">
        <ele>84</ele>
        <time>2013-07-30T13:40:18Z</time>
      </trkpt>
      <trkpt lat="48.6341" lon="2.52549">
        <ele>84</ele>
        <time>2013-07-30T13:40:21Z</time>
      </trkpt>
      <trkpt lat="48.63406" lon="2.52558">
        <ele>84</ele>
        <time>2013-07-30T13:40:35Z</time>
      </trkpt>
      <trkpt lat="48.63403" lon="2.52564">
        <ele>84</ele>
        <time>2013-07-30T13:40:40Z</time>
      </trkpt>
      <trkpt lat="48.63403" lon="2.52568">
        <ele>84</ele>
        <time>2013-07-30T13:40:47Z</time>
      </trkpt>
      <trkpt lat="48.63402" lon="2.52575">
        <ele>84</ele>
        <time>2013-07-30T13:40:50Z</time>
      </trkpt>
      <trkpt lat="48.634" lon="2.52584">
        <ele>84</ele>
        <time>2013-07-30T13:41:06Z</time>
      </trkpt>
      <trkpt lat="48.63392" lon="2.52598">
        <ele>84</ele>
        <time>2013-07-30T13:41:14Z</time>
      </trkpt>
      <trkpt lat="48.63385" lon="2.5261">
        <ele>84</ele>
        <time>2013-07-30T13:41:20Z</time>
      </trkpt>
      <trkpt lat="48.63381" lon="2.52618">
        <ele>84</ele>
        <time>2013-07-30T13:41:31Z</time>
      </trkpt>
      <trkpt lat="48.63378" lon="2.52625">
        <ele>84</ele>
        <time>2013-07-30T13:41:32Z</time>
      </trkpt>
      <trkpt lat="48.63371" lon="2.52642">
        <ele>84</ele>
        <time>2013-07-30T13:41:47Z</time>
      </trkpt>
      <trkpt lat="48.63369" lon="2.52649">
        <ele>84</ele>
        <time>2013-07-30T13:41:52Z</time>
      </trkpt>
      <trkpt lat="48.63367" lon="2.52658">
        <ele>84</ele>
        <time>2013-07-30T13:41:56Z</time>
      </trkpt>
      <trkpt lat="48.63366" lon="2.52665">
        <ele>84</ele>
        <time>2013-07-30T13:41:58Z</time>
      </trkpt>
      <trkpt lat="48.63365" lon="2.52672">
        <ele>84</ele>
        <time>2013-07-30T13:42:01Z</time>
      </trkpt>
      <trkpt lat="48.63364" lon="2.52679">
        <ele>84</ele>
        <time>2013-07-30T13:42:08Z</time>
      </trkpt>
      <trkpt lat="48.63362" lon="2.52686">
        <ele>84</ele>
        <time>2013-07-30T13:42:12Z</time>
      </trkpt>
      <trkpt lat="48.6336" lon="2.52695">
        <ele>84</ele>
        <time>2013-07-30T13:42:15Z</time>
      </trkpt>
      <trkpt lat="48.63364" lon="2.52699">
        <ele>84</ele>
        <time>2013-07-30T13:42:21Z</time>
      </trkpt>
      <trkpt lat="48.63367" lon="2.52706">
        <ele>84</ele>
        <time>2013-07-30T13:42:29Z</time>
      </trkpt>
      <trkpt lat="48.63367" lon="2.52713">
        <ele>84</ele>
        <time>2013-07-30T13:42:32Z</time>
      </trkpt>
      <trkpt lat="48.63366" lon="2.52724">
        <ele>84</ele>
        <time>2013-07-30T13:42:44Z</time>
      </trkpt>
      <trkpt lat="48.63367" lon="2.5273">
        <ele>84</ele>
        <time>2013-07-30T13:42:48Z</time>
      </trkpt>
      <trkpt lat="48.63369" lon="2.52737">
        <ele>84</ele>
        <time>2013-07-30T13:42:52Z</time>
      </trkpt>
      <trkpt lat="48.63372" lon="2.52744">
        <ele>84</ele>
        <time>2013-07-30T13:42:54Z</time>
      </trkpt>
      <trkpt lat="48.63374" lon="2.52751">
        <ele>84</ele>
        <time>2013-07-30T13:42:59Z</time>
      </trkpt>
      <trkpt lat="48.63376" lon="2.52757">
        <ele>84</ele>
        <time>2013-07-30T13:43:04Z</time>
      </trkpt>
      <trkpt lat="48.6338" lon="2.52763">
        <ele>84</ele>
        <time>2013-07-30T13:43:10Z</time>
      </trkpt>
      <trkpt lat="48.63383" lon="2.5277">
        <ele>84</ele>
        <time>2013-07-30T13:43:22Z</time>
      </trkpt>
      <trkpt lat="48.63386" lon="2.52776">
        <ele>83</ele>
        <time>2013-07-30T13:43:30Z</time>
      </trkpt>
      <trkpt lat="48.63389" lon="2.52782">
        <ele>83</ele>
        <time>2013-07-30T13:43:37Z</time>
      </trkpt>
      <trkpt lat="48.63388" lon="2.52783">
        <ele>83</ele>
        <time>2013-07-30T13:45:00Z</time>
      </trkpt>
      <trkpt lat="48.63387" lon="2.52775">
        <ele>83</ele>
        <time>2013-07-30T13:45:58Z</time>
      </trkpt>
      <trkpt lat="48.63384" lon="2.52769">
        <ele>84</ele>
        <time>2013-07-30T13:46:00Z</time>
      </trkpt>
      <trkpt lat="48.63379" lon="2.52766">
        <ele>84</ele>
        <time>2013-07-30T13:46:05Z</time>
      </trkpt>
      <trkpt lat="48.63374" lon="2.52766">
        <ele>84</ele>
        <time>2013-07-30T13:46:09Z</time>
      </trkpt>
      <trkpt lat="48.63369" lon="2.52766">
        <ele>84</ele>
        <time>2013-07-30T13:46:13Z</time>
      </trkpt>
      <trkpt lat="48.63366" lon="2.52763">
        <ele>84</ele>
        <time>2013-07-30T13:46:20Z</time>
      </trkpt>
      <trkpt lat="48.62975" lon="2.52795">
        <ele>85</ele>
        <time>2013-07-30T13:51:20Z</time>
      </trkpt>
      <trkpt lat="48.62977" lon="2.52771">
        <ele>86</ele>
        <time>2013-07-30T13:56:20Z</time>
      </trkpt>
      <trkpt lat="48.62919" lon="2.5279">
        <ele>85</ele>
        <time>2013-07-30T14:01:20Z</time>
      </trkpt>
      <trkpt lat="48.62873" lon="2.5278">
        <ele>85</ele>
        <time>2013-07-30T14:06:20Z</time>
      </trkpt>
      <trkpt lat="48.62363" lon="2.52818">
        <ele>85</ele>
        <time>2013-07-30T14:11:20Z</time>
      </trkpt>
      <trkpt lat="48.61975" lon="2.52857">
        <ele>84</ele>
        <time>2013-07-30T14:16:20Z</time>
      </trkpt>
    </trkseg>
  </trk>
</gpx>